<?xml version="1.0" encoding="UTF-8" standalone="no" ?>
<gpx xmlns="http://www.topografix.com/GPX/1/1" xmlns:xsi="http://www.w3.org/2001/XMLSchema-instance" xsi:schemaLocation="http://www.topografix.com/GPX/1/1 http://www.topografix.com/GPX/1/1/gpx.xsd" version="1.1" creator="VisuGPX - https://www.visugpx.com">
  <metadata>
    <name>Randonnée 07-06-2018-VENERQUE</name>
    <desc><![CDATA[Rando pédestre-Boucle autour de Venerque  ]]></desc>
  </metadata>
  <trk>
    <name><![CDATA[Randonnée 07-06-2018-VENERQUE_1]]></name>
    <trkseg>
      <trkpt lat="43.44772" lon="1.44595">
        <ele>243</ele>
        <time>2018-06-10T09:31:42Z</time>
      </trkpt>
      <trkpt lat="43.4477" lon="1.44597">
        <ele>243</ele>
        <time>2018-06-10T09:31:42Z</time>
      </trkpt>
      <trkpt lat="43.44768" lon="1.44599">
        <ele>243</ele>
        <time>2018-06-10T09:31:42Z</time>
      </trkpt>
      <trkpt lat="43.44766" lon="1.44603">
        <ele>243</ele>
        <time>2018-06-10T09:31:42Z</time>
      </trkpt>
      <trkpt lat="43.44765" lon="1.44607">
        <ele>243</ele>
        <time>2018-06-10T09:31:42Z</time>
      </trkpt>
      <trkpt lat="43.44762" lon="1.44611">
        <ele>243</ele>
        <time>2018-06-10T09:31:58Z</time>
      </trkpt>
      <trkpt lat="43.44761" lon="1.44616">
        <ele>243</ele>
        <time>2018-06-10T09:31:58Z</time>
      </trkpt>
      <trkpt lat="43.44759" lon="1.44619">
        <ele>243</ele>
        <time>2018-06-10T09:31:58Z</time>
      </trkpt>
      <trkpt lat="43.44757" lon="1.44623">
        <ele>243</ele>
        <time>2018-06-10T09:31:58Z</time>
      </trkpt>
      <trkpt lat="43.44756" lon="1.44626">
        <ele>247</ele>
        <time>2018-06-10T09:32:14Z</time>
      </trkpt>
      <trkpt lat="43.44755" lon="1.4463">
        <ele>247</ele>
        <time>2018-06-10T09:32:14Z</time>
      </trkpt>
      <trkpt lat="43.44752" lon="1.44636">
        <ele>247</ele>
        <time>2018-06-10T09:32:14Z</time>
      </trkpt>
      <trkpt lat="43.4475" lon="1.44641">
        <ele>247</ele>
        <time>2018-06-10T09:32:14Z</time>
      </trkpt>
      <trkpt lat="43.44747" lon="1.44646">
        <ele>247</ele>
        <time>2018-06-10T09:32:30Z</time>
      </trkpt>
      <trkpt lat="43.44746" lon="1.44651">
        <ele>247</ele>
        <time>2018-06-10T09:32:30Z</time>
      </trkpt>
      <trkpt lat="43.44743" lon="1.44655">
        <ele>247</ele>
        <time>2018-06-10T09:32:30Z</time>
      </trkpt>
      <trkpt lat="43.44741" lon="1.44661">
        <ele>247</ele>
        <time>2018-06-10T09:32:30Z</time>
      </trkpt>
      <trkpt lat="43.4474" lon="1.44666">
        <ele>247</ele>
        <time>2018-06-10T09:32:46Z</time>
      </trkpt>
      <trkpt lat="43.44738" lon="1.44671">
        <ele>247</ele>
        <time>2018-06-10T09:32:46Z</time>
      </trkpt>
      <trkpt lat="43.44735" lon="1.44678">
        <ele>247</ele>
        <time>2018-06-10T09:32:46Z</time>
      </trkpt>
      <trkpt lat="43.44733" lon="1.44683">
        <ele>247</ele>
        <time>2018-06-10T09:32:46Z</time>
      </trkpt>
      <trkpt lat="43.44732" lon="1.44688">
        <ele>247</ele>
        <time>2018-06-10T09:33:02Z</time>
      </trkpt>
      <trkpt lat="43.4473" lon="1.44693">
        <ele>247</ele>
        <time>2018-06-10T09:33:02Z</time>
      </trkpt>
      <trkpt lat="43.44728" lon="1.447">
        <ele>247</ele>
        <time>2018-06-10T09:33:02Z</time>
      </trkpt>
      <trkpt lat="43.44727" lon="1.44705">
        <ele>247</ele>
        <time>2018-06-10T09:33:02Z</time>
      </trkpt>
      <trkpt lat="43.44726" lon="1.4471">
        <ele>249</ele>
        <time>2018-06-10T09:33:18Z</time>
      </trkpt>
      <trkpt lat="43.44723" lon="1.44715">
        <ele>249</ele>
        <time>2018-06-10T09:33:18Z</time>
      </trkpt>
      <trkpt lat="43.44721" lon="1.44723">
        <ele>249</ele>
        <time>2018-06-10T09:33:18Z</time>
      </trkpt>
      <trkpt lat="43.4472" lon="1.44728">
        <ele>249</ele>
        <time>2018-06-10T09:33:18Z</time>
      </trkpt>
      <trkpt lat="43.4472" lon="1.44733">
        <ele>249</ele>
        <time>2018-06-10T09:33:34Z</time>
      </trkpt>
      <trkpt lat="43.44717" lon="1.44738">
        <ele>249</ele>
        <time>2018-06-10T09:33:34Z</time>
      </trkpt>
      <trkpt lat="43.44715" lon="1.44745">
        <ele>249</ele>
        <time>2018-06-10T09:33:34Z</time>
      </trkpt>
      <trkpt lat="43.44714" lon="1.44751">
        <ele>249</ele>
        <time>2018-06-10T09:33:34Z</time>
      </trkpt>
      <trkpt lat="43.44714" lon="1.44757">
        <ele>249</ele>
        <time>2018-06-10T09:33:50Z</time>
      </trkpt>
      <trkpt lat="43.44712" lon="1.44762">
        <ele>249</ele>
        <time>2018-06-10T09:33:50Z</time>
      </trkpt>
      <trkpt lat="43.44709" lon="1.44767">
        <ele>249</ele>
        <time>2018-06-10T09:33:50Z</time>
      </trkpt>
      <trkpt lat="43.44707" lon="1.44774">
        <ele>245</ele>
        <time>2018-06-10T09:33:50Z</time>
      </trkpt>
      <trkpt lat="43.44706" lon="1.4478">
        <ele>245</ele>
        <time>2018-06-10T09:34:06Z</time>
      </trkpt>
      <trkpt lat="43.44705" lon="1.44784">
        <ele>245</ele>
        <time>2018-06-10T09:34:06Z</time>
      </trkpt>
      <trkpt lat="43.44704" lon="1.4479">
        <ele>245</ele>
        <time>2018-06-10T09:34:06Z</time>
      </trkpt>
      <trkpt lat="43.44702" lon="1.44796">
        <ele>249</ele>
        <time>2018-06-10T09:34:06Z</time>
      </trkpt>
      <trkpt lat="43.447" lon="1.448">
        <ele>249</ele>
        <time>2018-06-10T09:34:22Z</time>
      </trkpt>
      <trkpt lat="43.44696" lon="1.44805">
        <ele>249</ele>
        <time>2018-06-10T09:34:22Z</time>
      </trkpt>
      <trkpt lat="43.44693" lon="1.44812">
        <ele>249</ele>
        <time>2018-06-10T09:34:22Z</time>
      </trkpt>
      <trkpt lat="43.44691" lon="1.44822">
        <ele>249</ele>
        <time>2018-06-10T09:34:22Z</time>
      </trkpt>
      <trkpt lat="43.4469" lon="1.44829">
        <ele>249</ele>
        <time>2018-06-10T09:34:50Z</time>
      </trkpt>
      <trkpt lat="43.4469" lon="1.44831">
        <ele>249</ele>
        <time>2018-06-10T09:34:50Z</time>
      </trkpt>
      <trkpt lat="43.44691" lon="1.44834">
        <ele>249</ele>
        <time>2018-06-10T09:34:50Z</time>
      </trkpt>
      <trkpt lat="43.44693" lon="1.44839">
        <ele>249</ele>
        <time>2018-06-10T09:34:50Z</time>
      </trkpt>
      <trkpt lat="43.44699" lon="1.44844">
        <ele>249</ele>
        <time>2018-06-10T09:34:50Z</time>
      </trkpt>
      <trkpt lat="43.44705" lon="1.44848">
        <ele>249</ele>
        <time>2018-06-10T09:35:06Z</time>
      </trkpt>
      <trkpt lat="43.44708" lon="1.44851">
        <ele>249</ele>
        <time>2018-06-10T09:35:06Z</time>
      </trkpt>
      <trkpt lat="43.4471" lon="1.44858">
        <ele>250</ele>
        <time>2018-06-10T09:35:06Z</time>
      </trkpt>
      <trkpt lat="43.44711" lon="1.44864">
        <ele>250</ele>
        <time>2018-06-10T09:35:06Z</time>
      </trkpt>
      <trkpt lat="43.4471" lon="1.44871">
        <ele>250</ele>
        <time>2018-06-10T09:35:22Z</time>
      </trkpt>
      <trkpt lat="43.4471" lon="1.44878">
        <ele>250</ele>
        <time>2018-06-10T09:35:22Z</time>
      </trkpt>
      <trkpt lat="43.44708" lon="1.44885">
        <ele>249</ele>
        <time>2018-06-10T09:35:22Z</time>
      </trkpt>
      <trkpt lat="43.44708" lon="1.44893">
        <ele>249</ele>
        <time>2018-06-10T09:35:22Z</time>
      </trkpt>
      <trkpt lat="43.44707" lon="1.449">
        <ele>249</ele>
        <time>2018-06-10T09:35:38Z</time>
      </trkpt>
      <trkpt lat="43.44708" lon="1.44907">
        <ele>249</ele>
        <time>2018-06-10T09:35:38Z</time>
      </trkpt>
      <trkpt lat="43.44708" lon="1.44912">
        <ele>249</ele>
        <time>2018-06-10T09:35:38Z</time>
      </trkpt>
      <trkpt lat="43.44708" lon="1.44918">
        <ele>249</ele>
        <time>2018-06-10T09:35:38Z</time>
      </trkpt>
      <trkpt lat="43.44707" lon="1.44924">
        <ele>249</ele>
        <time>2018-06-10T09:35:54Z</time>
      </trkpt>
      <trkpt lat="43.44706" lon="1.4493">
        <ele>249</ele>
        <time>2018-06-10T09:35:54Z</time>
      </trkpt>
      <trkpt lat="43.44705" lon="1.44938">
        <ele>249</ele>
        <time>2018-06-10T09:35:54Z</time>
      </trkpt>
      <trkpt lat="43.44706" lon="1.44943">
        <ele>249</ele>
        <time>2018-06-10T09:35:54Z</time>
      </trkpt>
      <trkpt lat="43.44706" lon="1.44948">
        <ele>249</ele>
        <time>2018-06-10T09:36:10Z</time>
      </trkpt>
      <trkpt lat="43.44708" lon="1.44953">
        <ele>249</ele>
        <time>2018-06-10T09:36:10Z</time>
      </trkpt>
      <trkpt lat="43.44709" lon="1.44959">
        <ele>249</ele>
        <time>2018-06-10T09:36:10Z</time>
      </trkpt>
      <trkpt lat="43.44711" lon="1.44964">
        <ele>249</ele>
        <time>2018-06-10T09:36:10Z</time>
      </trkpt>
      <trkpt lat="43.44712" lon="1.44972">
        <ele>249</ele>
        <time>2018-06-10T09:36:26Z</time>
      </trkpt>
      <trkpt lat="43.44714" lon="1.4498">
        <ele>249</ele>
        <time>2018-06-10T09:36:26Z</time>
      </trkpt>
      <trkpt lat="43.44717" lon="1.44988">
        <ele>249</ele>
        <time>2018-06-10T09:36:26Z</time>
      </trkpt>
      <trkpt lat="43.44717" lon="1.44995">
        <ele>249</ele>
        <time>2018-06-10T09:36:26Z</time>
      </trkpt>
      <trkpt lat="43.44718" lon="1.44998">
        <ele>249</ele>
        <time>2018-06-10T09:36:42Z</time>
      </trkpt>
      <trkpt lat="43.4472" lon="1.45003">
        <ele>249</ele>
        <time>2018-06-10T09:36:42Z</time>
      </trkpt>
      <trkpt lat="43.4472" lon="1.4501">
        <ele>249</ele>
        <time>2018-06-10T09:36:42Z</time>
      </trkpt>
      <trkpt lat="43.44721" lon="1.45018">
        <ele>249</ele>
        <time>2018-06-10T09:36:42Z</time>
      </trkpt>
      <trkpt lat="43.44722" lon="1.45025">
        <ele>249</ele>
        <time>2018-06-10T09:36:58Z</time>
      </trkpt>
      <trkpt lat="43.44723" lon="1.4503">
        <ele>249</ele>
        <time>2018-06-10T09:36:58Z</time>
      </trkpt>
      <trkpt lat="43.44724" lon="1.45034">
        <ele>249</ele>
        <time>2018-06-10T09:36:58Z</time>
      </trkpt>
      <trkpt lat="43.44726" lon="1.45039">
        <ele>249</ele>
        <time>2018-06-10T09:36:58Z</time>
      </trkpt>
      <trkpt lat="43.44728" lon="1.45044">
        <ele>249</ele>
        <time>2018-06-10T09:37:14Z</time>
      </trkpt>
      <trkpt lat="43.44728" lon="1.4505">
        <ele>249</ele>
        <time>2018-06-10T09:37:14Z</time>
      </trkpt>
      <trkpt lat="43.4473" lon="1.45057">
        <ele>249</ele>
        <time>2018-06-10T09:37:14Z</time>
      </trkpt>
      <trkpt lat="43.44734" lon="1.45065">
        <ele>249</ele>
        <time>2018-06-10T09:37:14Z</time>
      </trkpt>
      <trkpt lat="43.44737" lon="1.45074">
        <ele>249</ele>
        <time>2018-06-10T09:37:30Z</time>
      </trkpt>
      <trkpt lat="43.44739" lon="1.4508">
        <ele>249</ele>
        <time>2018-06-10T09:37:30Z</time>
      </trkpt>
      <trkpt lat="43.44742" lon="1.45085">
        <ele>249</ele>
        <time>2018-06-10T09:37:30Z</time>
      </trkpt>
      <trkpt lat="43.44743" lon="1.4509">
        <ele>249</ele>
        <time>2018-06-10T09:37:30Z</time>
      </trkpt>
      <trkpt lat="43.44745" lon="1.45096">
        <ele>249</ele>
        <time>2018-06-10T09:37:46Z</time>
      </trkpt>
      <trkpt lat="43.44746" lon="1.45101">
        <ele>249</ele>
        <time>2018-06-10T09:37:46Z</time>
      </trkpt>
      <trkpt lat="43.44746" lon="1.45106">
        <ele>249</ele>
        <time>2018-06-10T09:37:46Z</time>
      </trkpt>
      <trkpt lat="43.44748" lon="1.45111">
        <ele>249</ele>
        <time>2018-06-10T09:37:46Z</time>
      </trkpt>
      <trkpt lat="43.4475" lon="1.45115">
        <ele>249</ele>
        <time>2018-06-10T09:38:02Z</time>
      </trkpt>
      <trkpt lat="43.44752" lon="1.45121">
        <ele>249</ele>
        <time>2018-06-10T09:38:02Z</time>
      </trkpt>
      <trkpt lat="43.44754" lon="1.45127">
        <ele>251</ele>
        <time>2018-06-10T09:38:02Z</time>
      </trkpt>
      <trkpt lat="43.44756" lon="1.45133">
        <ele>251</ele>
        <time>2018-06-10T09:38:02Z</time>
      </trkpt>
      <trkpt lat="43.44755" lon="1.45141">
        <ele>251</ele>
        <time>2018-06-10T09:38:18Z</time>
      </trkpt>
      <trkpt lat="43.44756" lon="1.4515">
        <ele>251</ele>
        <time>2018-06-10T09:38:18Z</time>
      </trkpt>
      <trkpt lat="43.44756" lon="1.4516">
        <ele>251</ele>
        <time>2018-06-10T09:38:18Z</time>
      </trkpt>
      <trkpt lat="43.44757" lon="1.45169">
        <ele>251</ele>
        <time>2018-06-10T09:38:18Z</time>
      </trkpt>
      <trkpt lat="43.44759" lon="1.45178">
        <ele>251</ele>
        <time>2018-06-10T09:38:34Z</time>
      </trkpt>
      <trkpt lat="43.4476" lon="1.45187">
        <ele>251</ele>
        <time>2018-06-10T09:38:34Z</time>
      </trkpt>
      <trkpt lat="43.44762" lon="1.45196">
        <ele>251</ele>
        <time>2018-06-10T09:38:34Z</time>
      </trkpt>
      <trkpt lat="43.44764" lon="1.45204">
        <ele>251</ele>
        <time>2018-06-10T09:38:34Z</time>
      </trkpt>
      <trkpt lat="43.44767" lon="1.4521">
        <ele>253</ele>
        <time>2018-06-10T09:38:50Z</time>
      </trkpt>
      <trkpt lat="43.44771" lon="1.45216">
        <ele>253</ele>
        <time>2018-06-10T09:38:50Z</time>
      </trkpt>
      <trkpt lat="43.44774" lon="1.45218">
        <ele>253</ele>
        <time>2018-06-10T09:38:50Z</time>
      </trkpt>
      <trkpt lat="43.44776" lon="1.45221">
        <ele>253</ele>
        <time>2018-06-10T09:38:50Z</time>
      </trkpt>
      <trkpt lat="43.44777" lon="1.45224">
        <ele>253</ele>
        <time>2018-06-10T09:39:06Z</time>
      </trkpt>
      <trkpt lat="43.44779" lon="1.45228">
        <ele>253</ele>
        <time>2018-06-10T09:39:06Z</time>
      </trkpt>
      <trkpt lat="43.4478" lon="1.45235">
        <ele>253</ele>
        <time>2018-06-10T09:39:06Z</time>
      </trkpt>
      <trkpt lat="43.44782" lon="1.4524">
        <ele>253</ele>
        <time>2018-06-10T09:39:06Z</time>
      </trkpt>
      <trkpt lat="43.44784" lon="1.45246">
        <ele>253</ele>
        <time>2018-06-10T09:39:22Z</time>
      </trkpt>
      <trkpt lat="43.44787" lon="1.45251">
        <ele>253</ele>
        <time>2018-06-10T09:39:22Z</time>
      </trkpt>
      <trkpt lat="43.44788" lon="1.45255">
        <ele>253</ele>
        <time>2018-06-10T09:39:22Z</time>
      </trkpt>
      <trkpt lat="43.4479" lon="1.45258">
        <ele>253</ele>
        <time>2018-06-10T09:39:22Z</time>
      </trkpt>
      <trkpt lat="43.44793" lon="1.45263">
        <ele>254</ele>
        <time>2018-06-10T09:39:38Z</time>
      </trkpt>
      <trkpt lat="43.44793" lon="1.4527">
        <ele>254</ele>
        <time>2018-06-10T09:39:38Z</time>
      </trkpt>
      <trkpt lat="43.44795" lon="1.45277">
        <ele>254</ele>
        <time>2018-06-10T09:39:38Z</time>
      </trkpt>
      <trkpt lat="43.44796" lon="1.45284">
        <ele>254</ele>
        <time>2018-06-10T09:39:38Z</time>
      </trkpt>
      <trkpt lat="43.44797" lon="1.45292">
        <ele>254</ele>
        <time>2018-06-10T09:39:54Z</time>
      </trkpt>
      <trkpt lat="43.44799" lon="1.453">
        <ele>254</ele>
        <time>2018-06-10T09:39:54Z</time>
      </trkpt>
      <trkpt lat="43.44801" lon="1.45309">
        <ele>254</ele>
        <time>2018-06-10T09:39:54Z</time>
      </trkpt>
      <trkpt lat="43.44804" lon="1.45318">
        <ele>254</ele>
        <time>2018-06-10T09:39:54Z</time>
      </trkpt>
      <trkpt lat="43.44807" lon="1.45328">
        <ele>254</ele>
        <time>2018-06-10T09:40:10Z</time>
      </trkpt>
      <trkpt lat="43.44809" lon="1.45334">
        <ele>254</ele>
        <time>2018-06-10T09:40:10Z</time>
      </trkpt>
      <trkpt lat="43.44812" lon="1.45336">
        <ele>254</ele>
        <time>2018-06-10T09:40:10Z</time>
      </trkpt>
      <trkpt lat="43.44813" lon="1.45338">
        <ele>254</ele>
        <time>2018-06-10T09:40:10Z</time>
      </trkpt>
      <trkpt lat="43.44816" lon="1.45341">
        <ele>254</ele>
        <time>2018-06-10T09:40:26Z</time>
      </trkpt>
      <trkpt lat="43.44819" lon="1.45344">
        <ele>254</ele>
        <time>2018-06-10T09:40:26Z</time>
      </trkpt>
      <trkpt lat="43.44821" lon="1.45351">
        <ele>254</ele>
        <time>2018-06-10T09:40:26Z</time>
      </trkpt>
      <trkpt lat="43.44823" lon="1.45358">
        <ele>254</ele>
        <time>2018-06-10T09:40:26Z</time>
      </trkpt>
      <trkpt lat="43.44824" lon="1.45365">
        <ele>254</ele>
        <time>2018-06-10T09:40:42Z</time>
      </trkpt>
      <trkpt lat="43.44826" lon="1.45369">
        <ele>254</ele>
        <time>2018-06-10T09:40:42Z</time>
      </trkpt>
      <trkpt lat="43.44829" lon="1.45373">
        <ele>254</ele>
        <time>2018-06-10T09:40:42Z</time>
      </trkpt>
      <trkpt lat="43.44832" lon="1.45377">
        <ele>254</ele>
        <time>2018-06-10T09:40:42Z</time>
      </trkpt>
      <trkpt lat="43.44835" lon="1.45384">
        <ele>254</ele>
        <time>2018-06-10T09:40:58Z</time>
      </trkpt>
      <trkpt lat="43.44838" lon="1.45392">
        <ele>254</ele>
        <time>2018-06-10T09:40:58Z</time>
      </trkpt>
      <trkpt lat="43.4484" lon="1.45399">
        <ele>254</ele>
        <time>2018-06-10T09:40:58Z</time>
      </trkpt>
      <trkpt lat="43.4484" lon="1.45403">
        <ele>254</ele>
        <time>2018-06-10T09:40:58Z</time>
      </trkpt>
      <trkpt lat="43.44842" lon="1.45408">
        <ele>254</ele>
        <time>2018-06-10T09:41:14Z</time>
      </trkpt>
      <trkpt lat="43.44844" lon="1.45414">
        <ele>254</ele>
        <time>2018-06-10T09:41:14Z</time>
      </trkpt>
      <trkpt lat="43.44845" lon="1.45421">
        <ele>254</ele>
        <time>2018-06-10T09:41:14Z</time>
      </trkpt>
      <trkpt lat="43.44847" lon="1.4543">
        <ele>254</ele>
        <time>2018-06-10T09:41:14Z</time>
      </trkpt>
      <trkpt lat="43.44849" lon="1.45439">
        <ele>254</ele>
        <time>2018-06-10T09:41:30Z</time>
      </trkpt>
      <trkpt lat="43.44851" lon="1.45447">
        <ele>254</ele>
        <time>2018-06-10T09:41:30Z</time>
      </trkpt>
      <trkpt lat="43.44852" lon="1.45454">
        <ele>254</ele>
        <time>2018-06-10T09:41:30Z</time>
      </trkpt>
      <trkpt lat="43.44851" lon="1.45459">
        <ele>254</ele>
        <time>2018-06-10T09:41:30Z</time>
      </trkpt>
      <trkpt lat="43.44851" lon="1.45463">
        <ele>254</ele>
        <time>2018-06-10T09:41:46Z</time>
      </trkpt>
      <trkpt lat="43.44852" lon="1.45469">
        <ele>254</ele>
        <time>2018-06-10T09:41:46Z</time>
      </trkpt>
      <trkpt lat="43.44852" lon="1.45476">
        <ele>254</ele>
        <time>2018-06-10T09:41:46Z</time>
      </trkpt>
      <trkpt lat="43.4485" lon="1.45482">
        <ele>254</ele>
        <time>2018-06-10T09:41:46Z</time>
      </trkpt>
      <trkpt lat="43.44848" lon="1.45488">
        <ele>254</ele>
        <time>2018-06-10T09:42:02Z</time>
      </trkpt>
      <trkpt lat="43.44848" lon="1.45495">
        <ele>254</ele>
        <time>2018-06-10T09:42:02Z</time>
      </trkpt>
      <trkpt lat="43.44849" lon="1.45501">
        <ele>254</ele>
        <time>2018-06-10T09:42:02Z</time>
      </trkpt>
      <trkpt lat="43.4485" lon="1.45508">
        <ele>254</ele>
        <time>2018-06-10T09:42:02Z</time>
      </trkpt>
      <trkpt lat="43.44849" lon="1.45514">
        <ele>254</ele>
        <time>2018-06-10T09:42:18Z</time>
      </trkpt>
      <trkpt lat="43.44847" lon="1.45521">
        <ele>254</ele>
        <time>2018-06-10T09:42:18Z</time>
      </trkpt>
      <trkpt lat="43.44846" lon="1.45529">
        <ele>254</ele>
        <time>2018-06-10T09:42:18Z</time>
      </trkpt>
      <trkpt lat="43.44843" lon="1.45535">
        <ele>254</ele>
        <time>2018-06-10T09:42:18Z</time>
      </trkpt>
      <trkpt lat="43.44843" lon="1.45542">
        <ele>255</ele>
        <time>2018-06-10T09:42:34Z</time>
      </trkpt>
      <trkpt lat="43.44844" lon="1.45549">
        <ele>255</ele>
        <time>2018-06-10T09:42:34Z</time>
      </trkpt>
      <trkpt lat="43.44844" lon="1.45555">
        <ele>255</ele>
        <time>2018-06-10T09:42:34Z</time>
      </trkpt>
      <trkpt lat="43.44844" lon="1.4556">
        <ele>255</ele>
        <time>2018-06-10T09:42:34Z</time>
      </trkpt>
      <trkpt lat="43.44843" lon="1.45566">
        <ele>255</ele>
        <time>2018-06-10T09:42:50Z</time>
      </trkpt>
      <trkpt lat="43.44843" lon="1.45572">
        <ele>255</ele>
        <time>2018-06-10T09:42:50Z</time>
      </trkpt>
      <trkpt lat="43.44843" lon="1.45579">
        <ele>255</ele>
        <time>2018-06-10T09:42:50Z</time>
      </trkpt>
      <trkpt lat="43.44842" lon="1.45585">
        <ele>255</ele>
        <time>2018-06-10T09:42:50Z</time>
      </trkpt>
      <trkpt lat="43.44841" lon="1.45592">
        <ele>255</ele>
        <time>2018-06-10T09:43:06Z</time>
      </trkpt>
      <trkpt lat="43.44839" lon="1.456">
        <ele>255</ele>
        <time>2018-06-10T09:43:06Z</time>
      </trkpt>
      <trkpt lat="43.44837" lon="1.45607">
        <ele>255</ele>
        <time>2018-06-10T09:43:06Z</time>
      </trkpt>
      <trkpt lat="43.44836" lon="1.45614">
        <ele>255</ele>
        <time>2018-06-10T09:43:06Z</time>
      </trkpt>
      <trkpt lat="43.44835" lon="1.45621">
        <ele>255</ele>
        <time>2018-06-10T09:43:22Z</time>
      </trkpt>
      <trkpt lat="43.44835" lon="1.45627">
        <ele>256</ele>
        <time>2018-06-10T09:43:22Z</time>
      </trkpt>
      <trkpt lat="43.44834" lon="1.45634">
        <ele>256</ele>
        <time>2018-06-10T09:43:22Z</time>
      </trkpt>
      <trkpt lat="43.44833" lon="1.4564">
        <ele>256</ele>
        <time>2018-06-10T09:43:22Z</time>
      </trkpt>
      <trkpt lat="43.44832" lon="1.45642">
        <ele>256</ele>
        <time>2018-06-10T09:43:38Z</time>
      </trkpt>
      <trkpt lat="43.44831" lon="1.45646">
        <ele>256</ele>
        <time>2018-06-10T09:43:38Z</time>
      </trkpt>
      <trkpt lat="43.4483" lon="1.45653">
        <ele>256</ele>
        <time>2018-06-10T09:43:38Z</time>
      </trkpt>
      <trkpt lat="43.44828" lon="1.45661">
        <ele>256</ele>
        <time>2018-06-10T09:43:38Z</time>
      </trkpt>
      <trkpt lat="43.44826" lon="1.4567">
        <ele>256</ele>
        <time>2018-06-10T09:43:54Z</time>
      </trkpt>
      <trkpt lat="43.44824" lon="1.4568">
        <ele>256</ele>
        <time>2018-06-10T09:43:54Z</time>
      </trkpt>
      <trkpt lat="43.44821" lon="1.45688">
        <ele>256</ele>
        <time>2018-06-10T09:43:54Z</time>
      </trkpt>
      <trkpt lat="43.44818" lon="1.45697">
        <ele>256</ele>
        <time>2018-06-10T09:43:54Z</time>
      </trkpt>
      <trkpt lat="43.44816" lon="1.45704">
        <ele>256</ele>
        <time>2018-06-10T09:44:10Z</time>
      </trkpt>
      <trkpt lat="43.44815" lon="1.45713">
        <ele>255</ele>
        <time>2018-06-10T09:44:10Z</time>
      </trkpt>
      <trkpt lat="43.44814" lon="1.45721">
        <ele>255</ele>
        <time>2018-06-10T09:44:10Z</time>
      </trkpt>
      <trkpt lat="43.44812" lon="1.45729">
        <ele>255</ele>
        <time>2018-06-10T09:44:10Z</time>
      </trkpt>
      <trkpt lat="43.44811" lon="1.45736">
        <ele>255</ele>
        <time>2018-06-10T09:44:26Z</time>
      </trkpt>
      <trkpt lat="43.44811" lon="1.45742">
        <ele>255</ele>
        <time>2018-06-10T09:44:26Z</time>
      </trkpt>
      <trkpt lat="43.44811" lon="1.45747">
        <ele>255</ele>
        <time>2018-06-10T09:44:26Z</time>
      </trkpt>
      <trkpt lat="43.44808" lon="1.45752">
        <ele>255</ele>
        <time>2018-06-10T09:44:26Z</time>
      </trkpt>
      <trkpt lat="43.44805" lon="1.45762">
        <ele>255</ele>
        <time>2018-06-10T09:44:42Z</time>
      </trkpt>
      <trkpt lat="43.44801" lon="1.45774">
        <ele>255</ele>
        <time>2018-06-10T09:44:42Z</time>
      </trkpt>
      <trkpt lat="43.44798" lon="1.45783">
        <ele>255</ele>
        <time>2018-06-10T09:44:42Z</time>
      </trkpt>
      <trkpt lat="43.44796" lon="1.45791">
        <ele>255</ele>
        <time>2018-06-10T09:44:42Z</time>
      </trkpt>
      <trkpt lat="43.44795" lon="1.45799">
        <ele>254</ele>
        <time>2018-06-10T09:44:58Z</time>
      </trkpt>
      <trkpt lat="43.44795" lon="1.45805">
        <ele>254</ele>
        <time>2018-06-10T09:44:58Z</time>
      </trkpt>
      <trkpt lat="43.44792" lon="1.4581">
        <ele>254</ele>
        <time>2018-06-10T09:44:58Z</time>
      </trkpt>
      <trkpt lat="43.44791" lon="1.45816">
        <ele>251</ele>
        <time>2018-06-10T09:44:58Z</time>
      </trkpt>
      <trkpt lat="43.44791" lon="1.45822">
        <ele>251</ele>
        <time>2018-06-10T09:45:14Z</time>
      </trkpt>
      <trkpt lat="43.44791" lon="1.45829">
        <ele>251</ele>
        <time>2018-06-10T09:45:14Z</time>
      </trkpt>
      <trkpt lat="43.44791" lon="1.45836">
        <ele>251</ele>
        <time>2018-06-10T09:45:14Z</time>
      </trkpt>
      <trkpt lat="43.44792" lon="1.45843">
        <ele>251</ele>
        <time>2018-06-10T09:45:14Z</time>
      </trkpt>
      <trkpt lat="43.4479" lon="1.45849">
        <ele>251</ele>
        <time>2018-06-10T09:45:30Z</time>
      </trkpt>
      <trkpt lat="43.4479" lon="1.45858">
        <ele>251</ele>
        <time>2018-06-10T09:45:30Z</time>
      </trkpt>
      <trkpt lat="43.44792" lon="1.45863">
        <ele>251</ele>
        <time>2018-06-10T09:45:30Z</time>
      </trkpt>
      <trkpt lat="43.44792" lon="1.45869">
        <ele>254</ele>
        <time>2018-06-10T09:45:30Z</time>
      </trkpt>
      <trkpt lat="43.44793" lon="1.45876">
        <ele>252</ele>
        <time>2018-06-10T09:45:46Z</time>
      </trkpt>
      <trkpt lat="43.44792" lon="1.45882">
        <ele>252</ele>
        <time>2018-06-10T09:45:46Z</time>
      </trkpt>
      <trkpt lat="43.4479" lon="1.45889">
        <ele>252</ele>
        <time>2018-06-10T09:45:46Z</time>
      </trkpt>
      <trkpt lat="43.44789" lon="1.45898">
        <ele>252</ele>
        <time>2018-06-10T09:45:46Z</time>
      </trkpt>
      <trkpt lat="43.44789" lon="1.45908">
        <ele>252</ele>
        <time>2018-06-10T09:46:02Z</time>
      </trkpt>
      <trkpt lat="43.44788" lon="1.45919">
        <ele>252</ele>
        <time>2018-06-10T09:46:02Z</time>
      </trkpt>
      <trkpt lat="43.44787" lon="1.45927">
        <ele>252</ele>
        <time>2018-06-10T09:46:02Z</time>
      </trkpt>
      <trkpt lat="43.44786" lon="1.45936">
        <ele>252</ele>
        <time>2018-06-10T09:46:02Z</time>
      </trkpt>
      <trkpt lat="43.44784" lon="1.45944">
        <ele>252</ele>
        <time>2018-06-10T09:46:18Z</time>
      </trkpt>
      <trkpt lat="43.44785" lon="1.45953">
        <ele>252</ele>
        <time>2018-06-10T09:46:18Z</time>
      </trkpt>
      <trkpt lat="43.44785" lon="1.45961">
        <ele>253</ele>
        <time>2018-06-10T09:46:18Z</time>
      </trkpt>
      <trkpt lat="43.44785" lon="1.45967">
        <ele>253</ele>
        <time>2018-06-10T09:46:18Z</time>
      </trkpt>
      <trkpt lat="43.44785" lon="1.45973">
        <ele>253</ele>
        <time>2018-06-10T09:46:34Z</time>
      </trkpt>
      <trkpt lat="43.44785" lon="1.45977">
        <ele>253</ele>
        <time>2018-06-10T09:46:34Z</time>
      </trkpt>
      <trkpt lat="43.44787" lon="1.45982">
        <ele>253</ele>
        <time>2018-06-10T09:46:34Z</time>
      </trkpt>
      <trkpt lat="43.44788" lon="1.45989">
        <ele>253</ele>
        <time>2018-06-10T09:46:34Z</time>
      </trkpt>
      <trkpt lat="43.44788" lon="1.45996">
        <ele>253</ele>
        <time>2018-06-10T09:46:50Z</time>
      </trkpt>
      <trkpt lat="43.44789" lon="1.46002">
        <ele>253</ele>
        <time>2018-06-10T09:46:50Z</time>
      </trkpt>
      <trkpt lat="43.4479" lon="1.46009">
        <ele>253</ele>
        <time>2018-06-10T09:46:50Z</time>
      </trkpt>
      <trkpt lat="43.44789" lon="1.46015">
        <ele>253</ele>
        <time>2018-06-10T09:46:50Z</time>
      </trkpt>
      <trkpt lat="43.44784" lon="1.46016">
        <ele>253</ele>
        <time>2018-06-10T09:47:06Z</time>
      </trkpt>
      <trkpt lat="43.44778" lon="1.46016">
        <ele>253</ele>
        <time>2018-06-10T09:47:06Z</time>
      </trkpt>
      <trkpt lat="43.44772" lon="1.46014">
        <ele>253</ele>
        <time>2018-06-10T09:47:06Z</time>
      </trkpt>
      <trkpt lat="43.44766" lon="1.46013">
        <ele>253</ele>
        <time>2018-06-10T09:47:06Z</time>
      </trkpt>
      <trkpt lat="43.4476" lon="1.4601">
        <ele>253</ele>
        <time>2018-06-10T09:47:22Z</time>
      </trkpt>
      <trkpt lat="43.44755" lon="1.46007">
        <ele>253</ele>
        <time>2018-06-10T09:47:22Z</time>
      </trkpt>
      <trkpt lat="43.44751" lon="1.46004">
        <ele>253</ele>
        <time>2018-06-10T09:47:22Z</time>
      </trkpt>
      <trkpt lat="43.44747" lon="1.46001">
        <ele>253</ele>
        <time>2018-06-10T09:47:22Z</time>
      </trkpt>
      <trkpt lat="43.44742" lon="1.46001">
        <ele>253</ele>
        <time>2018-06-10T09:47:38Z</time>
      </trkpt>
      <trkpt lat="43.44737" lon="1.46">
        <ele>253</ele>
        <time>2018-06-10T09:47:38Z</time>
      </trkpt>
      <trkpt lat="43.44733" lon="1.45999">
        <ele>253</ele>
        <time>2018-06-10T09:47:38Z</time>
      </trkpt>
      <trkpt lat="43.44727" lon="1.45998">
        <ele>253</ele>
        <time>2018-06-10T09:47:38Z</time>
      </trkpt>
      <trkpt lat="43.44722" lon="1.45998">
        <ele>253</ele>
        <time>2018-06-10T09:47:54Z</time>
      </trkpt>
      <trkpt lat="43.44718" lon="1.45997">
        <ele>253</ele>
        <time>2018-06-10T09:47:54Z</time>
      </trkpt>
      <trkpt lat="43.44713" lon="1.45996">
        <ele>253</ele>
        <time>2018-06-10T09:47:54Z</time>
      </trkpt>
      <trkpt lat="43.44709" lon="1.45995">
        <ele>253</ele>
        <time>2018-06-10T09:47:54Z</time>
      </trkpt>
      <trkpt lat="43.44704" lon="1.45993">
        <ele>246</ele>
        <time>2018-06-10T09:48:10Z</time>
      </trkpt>
      <trkpt lat="43.447" lon="1.45993">
        <ele>246</ele>
        <time>2018-06-10T09:48:10Z</time>
      </trkpt>
      <trkpt lat="43.44698" lon="1.45994">
        <ele>246</ele>
        <time>2018-06-10T09:48:10Z</time>
      </trkpt>
      <trkpt lat="43.44693" lon="1.45991">
        <ele>246</ele>
        <time>2018-06-10T09:48:10Z</time>
      </trkpt>
      <trkpt lat="43.4469" lon="1.4599">
        <ele>246</ele>
        <time>2018-06-10T09:48:26Z</time>
      </trkpt>
      <trkpt lat="43.44686" lon="1.45988">
        <ele>246</ele>
        <time>2018-06-10T09:48:26Z</time>
      </trkpt>
      <trkpt lat="43.44682" lon="1.45984">
        <ele>246</ele>
        <time>2018-06-10T09:48:26Z</time>
      </trkpt>
      <trkpt lat="43.44677" lon="1.45979">
        <ele>246</ele>
        <time>2018-06-10T09:48:26Z</time>
      </trkpt>
      <trkpt lat="43.44673" lon="1.45977">
        <ele>246</ele>
        <time>2018-06-10T09:48:42Z</time>
      </trkpt>
      <trkpt lat="43.44668" lon="1.45974">
        <ele>246</ele>
        <time>2018-06-10T09:48:42Z</time>
      </trkpt>
      <trkpt lat="43.44663" lon="1.45971">
        <ele>246</ele>
        <time>2018-06-10T09:48:42Z</time>
      </trkpt>
      <trkpt lat="43.44658" lon="1.45971">
        <ele>246</ele>
        <time>2018-06-10T09:48:42Z</time>
      </trkpt>
      <trkpt lat="43.44655" lon="1.45971">
        <ele>246</ele>
        <time>2018-06-10T09:48:58Z</time>
      </trkpt>
      <trkpt lat="43.44651" lon="1.45968">
        <ele>246</ele>
        <time>2018-06-10T09:48:58Z</time>
      </trkpt>
      <trkpt lat="43.44647" lon="1.45965">
        <ele>246</ele>
        <time>2018-06-10T09:48:58Z</time>
      </trkpt>
      <trkpt lat="43.44643" lon="1.45965">
        <ele>246</ele>
        <time>2018-06-10T09:48:58Z</time>
      </trkpt>
      <trkpt lat="43.44639" lon="1.45963">
        <ele>246</ele>
        <time>2018-06-10T09:49:15Z</time>
      </trkpt>
      <trkpt lat="43.44634" lon="1.45961">
        <ele>246</ele>
        <time>2018-06-10T09:49:15Z</time>
      </trkpt>
      <trkpt lat="43.44629" lon="1.45961">
        <ele>246</ele>
        <time>2018-06-10T09:49:15Z</time>
      </trkpt>
      <trkpt lat="43.44625" lon="1.45959">
        <ele>242</ele>
        <time>2018-06-10T09:49:15Z</time>
      </trkpt>
      <trkpt lat="43.4462" lon="1.45959">
        <ele>242</ele>
        <time>2018-06-10T09:49:30Z</time>
      </trkpt>
      <trkpt lat="43.44616" lon="1.45957">
        <ele>242</ele>
        <time>2018-06-10T09:49:30Z</time>
      </trkpt>
      <trkpt lat="43.44612" lon="1.45955">
        <ele>242</ele>
        <time>2018-06-10T09:49:30Z</time>
      </trkpt>
      <trkpt lat="43.44607" lon="1.45956">
        <ele>242</ele>
        <time>2018-06-10T09:49:30Z</time>
      </trkpt>
      <trkpt lat="43.44603" lon="1.45956">
        <ele>242</ele>
        <time>2018-06-10T09:49:46Z</time>
      </trkpt>
      <trkpt lat="43.44598" lon="1.45955">
        <ele>242</ele>
        <time>2018-06-10T09:49:46Z</time>
      </trkpt>
      <trkpt lat="43.44593" lon="1.45954">
        <ele>242</ele>
        <time>2018-06-10T09:49:46Z</time>
      </trkpt>
      <trkpt lat="43.44587" lon="1.45951">
        <ele>242</ele>
        <time>2018-06-10T09:49:46Z</time>
      </trkpt>
      <trkpt lat="43.44583" lon="1.45949">
        <ele>242</ele>
        <time>2018-06-10T09:50:02Z</time>
      </trkpt>
      <trkpt lat="43.44578" lon="1.45948">
        <ele>242</ele>
        <time>2018-06-10T09:50:02Z</time>
      </trkpt>
      <trkpt lat="43.44574" lon="1.45948">
        <ele>242</ele>
        <time>2018-06-10T09:50:02Z</time>
      </trkpt>
      <trkpt lat="43.44569" lon="1.45947">
        <ele>242</ele>
        <time>2018-06-10T09:50:02Z</time>
      </trkpt>
      <trkpt lat="43.44565" lon="1.45944">
        <ele>242</ele>
        <time>2018-06-10T09:50:18Z</time>
      </trkpt>
      <trkpt lat="43.4456" lon="1.45943">
        <ele>242</ele>
        <time>2018-06-10T09:50:18Z</time>
      </trkpt>
      <trkpt lat="43.44556" lon="1.45941">
        <ele>242</ele>
        <time>2018-06-10T09:50:18Z</time>
      </trkpt>
      <trkpt lat="43.44553" lon="1.45941">
        <ele>242</ele>
        <time>2018-06-10T09:50:18Z</time>
      </trkpt>
      <trkpt lat="43.4455" lon="1.4594">
        <ele>242</ele>
        <time>2018-06-10T09:50:34Z</time>
      </trkpt>
      <trkpt lat="43.44546" lon="1.45941">
        <ele>242</ele>
        <time>2018-06-10T09:50:34Z</time>
      </trkpt>
      <trkpt lat="43.44542" lon="1.4594">
        <ele>242</ele>
        <time>2018-06-10T09:50:34Z</time>
      </trkpt>
      <trkpt lat="43.44538" lon="1.45938">
        <ele>239</ele>
        <time>2018-06-10T09:50:34Z</time>
      </trkpt>
      <trkpt lat="43.44532" lon="1.45938">
        <ele>239</ele>
        <time>2018-06-10T09:50:50Z</time>
      </trkpt>
      <trkpt lat="43.44527" lon="1.45937">
        <ele>239</ele>
        <time>2018-06-10T09:50:50Z</time>
      </trkpt>
      <trkpt lat="43.44521" lon="1.45937">
        <ele>239</ele>
        <time>2018-06-10T09:50:50Z</time>
      </trkpt>
      <trkpt lat="43.44518" lon="1.45936">
        <ele>239</ele>
        <time>2018-06-10T09:50:50Z</time>
      </trkpt>
      <trkpt lat="43.44519" lon="1.45936">
        <ele>239</ele>
        <time>2018-06-10T09:51:34Z</time>
      </trkpt>
      <trkpt lat="43.44518" lon="1.45935">
        <ele>239</ele>
        <time>2018-06-10T09:51:34Z</time>
      </trkpt>
      <trkpt lat="43.44516" lon="1.45933">
        <ele>239</ele>
        <time>2018-06-10T09:51:34Z</time>
      </trkpt>
      <trkpt lat="43.44513" lon="1.45931">
        <ele>239</ele>
        <time>2018-06-10T09:51:34Z</time>
      </trkpt>
      <trkpt lat="43.44509" lon="1.4593">
        <ele>239</ele>
        <time>2018-06-10T09:51:34Z</time>
      </trkpt>
      <trkpt lat="43.44505" lon="1.45929">
        <ele>239</ele>
        <time>2018-06-10T09:51:50Z</time>
      </trkpt>
      <trkpt lat="43.44501" lon="1.45929">
        <ele>239</ele>
        <time>2018-06-10T09:51:50Z</time>
      </trkpt>
      <trkpt lat="43.44496" lon="1.45927">
        <ele>239</ele>
        <time>2018-06-10T09:51:50Z</time>
      </trkpt>
      <trkpt lat="43.44492" lon="1.45926">
        <ele>239</ele>
        <time>2018-06-10T09:51:50Z</time>
      </trkpt>
      <trkpt lat="43.44488" lon="1.45924">
        <ele>239</ele>
        <time>2018-06-10T09:52:06Z</time>
      </trkpt>
      <trkpt lat="43.44483" lon="1.45922">
        <ele>239</ele>
        <time>2018-06-10T09:52:06Z</time>
      </trkpt>
      <trkpt lat="43.44479" lon="1.45919">
        <ele>239</ele>
        <time>2018-06-10T09:52:06Z</time>
      </trkpt>
      <trkpt lat="43.44475" lon="1.45917">
        <ele>239</ele>
        <time>2018-06-10T09:52:06Z</time>
      </trkpt>
      <trkpt lat="43.44471" lon="1.45916">
        <ele>239</ele>
        <time>2018-06-10T09:52:22Z</time>
      </trkpt>
      <trkpt lat="43.44467" lon="1.45913">
        <ele>239</ele>
        <time>2018-06-10T09:52:22Z</time>
      </trkpt>
      <trkpt lat="43.44463" lon="1.45913">
        <ele>239</ele>
        <time>2018-06-10T09:52:22Z</time>
      </trkpt>
      <trkpt lat="43.44459" lon="1.45912">
        <ele>239</ele>
        <time>2018-06-10T09:52:22Z</time>
      </trkpt>
      <trkpt lat="43.44456" lon="1.45911">
        <ele>228</ele>
        <time>2018-06-10T09:52:38Z</time>
      </trkpt>
      <trkpt lat="43.44455" lon="1.45911">
        <ele>228</ele>
        <time>2018-06-10T09:52:38Z</time>
      </trkpt>
      <trkpt lat="43.44451" lon="1.4591">
        <ele>228</ele>
        <time>2018-06-10T09:52:38Z</time>
      </trkpt>
      <trkpt lat="43.44446" lon="1.45907">
        <ele>228</ele>
        <time>2018-06-10T09:52:38Z</time>
      </trkpt>
      <trkpt lat="43.44441" lon="1.45904">
        <ele>228</ele>
        <time>2018-06-10T09:52:58Z</time>
      </trkpt>
      <trkpt lat="43.44437" lon="1.45902">
        <ele>228</ele>
        <time>2018-06-10T09:52:58Z</time>
      </trkpt>
      <trkpt lat="43.44433" lon="1.45902">
        <ele>228</ele>
        <time>2018-06-10T09:52:58Z</time>
      </trkpt>
      <trkpt lat="43.44433" lon="1.45901">
        <ele>228</ele>
        <time>2018-06-10T09:52:58Z</time>
      </trkpt>
      <trkpt lat="43.44432" lon="1.45901">
        <ele>228</ele>
        <time>2018-06-10T09:52:58Z</time>
      </trkpt>
      <trkpt lat="43.44432" lon="1.45901">
        <ele>228</ele>
        <time>2018-06-10T09:53:18Z</time>
      </trkpt>
      <trkpt lat="43.44431" lon="1.45901">
        <ele>228</ele>
        <time>2018-06-10T09:53:18Z</time>
      </trkpt>
      <trkpt lat="43.44428" lon="1.45899">
        <ele>228</ele>
        <time>2018-06-10T09:53:18Z</time>
      </trkpt>
      <trkpt lat="43.44424" lon="1.45897">
        <ele>228</ele>
        <time>2018-06-10T09:53:18Z</time>
      </trkpt>
      <trkpt lat="43.44421" lon="1.45895">
        <ele>228</ele>
        <time>2018-06-10T09:53:18Z</time>
      </trkpt>
      <trkpt lat="43.44417" lon="1.45896">
        <ele>228</ele>
        <time>2018-06-10T09:53:34Z</time>
      </trkpt>
      <trkpt lat="43.44413" lon="1.45894">
        <ele>228</ele>
        <time>2018-06-10T09:53:34Z</time>
      </trkpt>
      <trkpt lat="43.44408" lon="1.45892">
        <ele>228</ele>
        <time>2018-06-10T09:53:34Z</time>
      </trkpt>
      <trkpt lat="43.44405" lon="1.45892">
        <ele>228</ele>
        <time>2018-06-10T09:53:34Z</time>
      </trkpt>
      <trkpt lat="43.44402" lon="1.45889">
        <ele>228</ele>
        <time>2018-06-10T09:53:50Z</time>
      </trkpt>
      <trkpt lat="43.444" lon="1.45887">
        <ele>228</ele>
        <time>2018-06-10T09:53:50Z</time>
      </trkpt>
      <trkpt lat="43.44396" lon="1.45884">
        <ele>228</ele>
        <time>2018-06-10T09:53:50Z</time>
      </trkpt>
      <trkpt lat="43.44392" lon="1.45882">
        <ele>228</ele>
        <time>2018-06-10T09:53:50Z</time>
      </trkpt>
      <trkpt lat="43.44389" lon="1.4588">
        <ele>228</ele>
        <time>2018-06-10T09:54:06Z</time>
      </trkpt>
      <trkpt lat="43.44385" lon="1.45877">
        <ele>228</ele>
        <time>2018-06-10T09:54:06Z</time>
      </trkpt>
      <trkpt lat="43.44379" lon="1.45876">
        <ele>228</ele>
        <time>2018-06-10T09:54:06Z</time>
      </trkpt>
      <trkpt lat="43.44375" lon="1.45873">
        <ele>212</ele>
        <time>2018-06-10T09:54:06Z</time>
      </trkpt>
      <trkpt lat="43.44372" lon="1.45872">
        <ele>212</ele>
        <time>2018-06-10T09:54:22Z</time>
      </trkpt>
      <trkpt lat="43.44369" lon="1.45871">
        <ele>212</ele>
        <time>2018-06-10T09:54:22Z</time>
      </trkpt>
      <trkpt lat="43.44364" lon="1.4587">
        <ele>212</ele>
        <time>2018-06-10T09:54:22Z</time>
      </trkpt>
      <trkpt lat="43.4436" lon="1.45867">
        <ele>212</ele>
        <time>2018-06-10T09:54:22Z</time>
      </trkpt>
      <trkpt lat="43.44356" lon="1.45866">
        <ele>212</ele>
        <time>2018-06-10T09:54:38Z</time>
      </trkpt>
      <trkpt lat="43.44354" lon="1.45867">
        <ele>212</ele>
        <time>2018-06-10T09:54:38Z</time>
      </trkpt>
      <trkpt lat="43.44352" lon="1.45868">
        <ele>212</ele>
        <time>2018-06-10T09:54:38Z</time>
      </trkpt>
      <trkpt lat="43.44347" lon="1.45866">
        <ele>212</ele>
        <time>2018-06-10T09:54:38Z</time>
      </trkpt>
      <trkpt lat="43.44342" lon="1.45865">
        <ele>212</ele>
        <time>2018-06-10T09:54:54Z</time>
      </trkpt>
      <trkpt lat="43.44337" lon="1.45864">
        <ele>212</ele>
        <time>2018-06-10T09:54:54Z</time>
      </trkpt>
      <trkpt lat="43.44333" lon="1.45862">
        <ele>212</ele>
        <time>2018-06-10T09:54:54Z</time>
      </trkpt>
      <trkpt lat="43.44328" lon="1.4586">
        <ele>212</ele>
        <time>2018-06-10T09:54:54Z</time>
      </trkpt>
      <trkpt lat="43.44321" lon="1.45858">
        <ele>212</ele>
        <time>2018-06-10T09:55:10Z</time>
      </trkpt>
      <trkpt lat="43.44315" lon="1.45855">
        <ele>212</ele>
        <time>2018-06-10T09:55:10Z</time>
      </trkpt>
      <trkpt lat="43.4431" lon="1.45854">
        <ele>212</ele>
        <time>2018-06-10T09:55:10Z</time>
      </trkpt>
      <trkpt lat="43.44306" lon="1.45854">
        <ele>212</ele>
        <time>2018-06-10T09:55:10Z</time>
      </trkpt>
      <trkpt lat="43.44306" lon="1.45853">
        <ele>212</ele>
        <time>2018-06-10T09:55:26Z</time>
      </trkpt>
      <trkpt lat="43.44302" lon="1.45855">
        <ele>212</ele>
        <time>2018-06-10T09:55:26Z</time>
      </trkpt>
      <trkpt lat="43.44298" lon="1.45858">
        <ele>212</ele>
        <time>2018-06-10T09:55:26Z</time>
      </trkpt>
      <trkpt lat="43.44294" lon="1.45863">
        <ele>212</ele>
        <time>2018-06-10T09:55:26Z</time>
      </trkpt>
      <trkpt lat="43.44293" lon="1.45871">
        <ele>212</ele>
        <time>2018-06-10T09:55:50Z</time>
      </trkpt>
      <trkpt lat="43.44293" lon="1.45874">
        <ele>212</ele>
        <time>2018-06-10T09:55:50Z</time>
      </trkpt>
      <trkpt lat="43.44293" lon="1.45879">
        <ele>211</ele>
        <time>2018-06-10T09:55:50Z</time>
      </trkpt>
      <trkpt lat="43.44293" lon="1.4588">
        <ele>211</ele>
        <time>2018-06-10T09:55:50Z</time>
      </trkpt>
      <trkpt lat="43.44293" lon="1.45881">
        <ele>211</ele>
        <time>2018-06-10T09:55:50Z</time>
      </trkpt>
      <trkpt lat="43.44294" lon="1.45887">
        <ele>211</ele>
        <time>2018-06-10T09:56:06Z</time>
      </trkpt>
      <trkpt lat="43.44291" lon="1.45891">
        <ele>197</ele>
        <time>2018-06-10T09:56:06Z</time>
      </trkpt>
      <trkpt lat="43.44288" lon="1.45896">
        <ele>197</ele>
        <time>2018-06-10T09:56:06Z</time>
      </trkpt>
      <trkpt lat="43.44289" lon="1.45907">
        <ele>197</ele>
        <time>2018-06-10T09:56:06Z</time>
      </trkpt>
      <trkpt lat="43.4429" lon="1.45916">
        <ele>197</ele>
        <time>2018-06-10T09:56:22Z</time>
      </trkpt>
      <trkpt lat="43.4429" lon="1.45922">
        <ele>197</ele>
        <time>2018-06-10T09:56:22Z</time>
      </trkpt>
      <trkpt lat="43.4429" lon="1.45928">
        <ele>197</ele>
        <time>2018-06-10T09:56:22Z</time>
      </trkpt>
      <trkpt lat="43.44291" lon="1.45934">
        <ele>197</ele>
        <time>2018-06-10T09:56:22Z</time>
      </trkpt>
      <trkpt lat="43.4429" lon="1.45945">
        <ele>197</ele>
        <time>2018-06-10T09:56:46Z</time>
      </trkpt>
      <trkpt lat="43.44289" lon="1.45946">
        <ele>197</ele>
        <time>2018-06-10T09:56:46Z</time>
      </trkpt>
      <trkpt lat="43.44288" lon="1.45947">
        <ele>197</ele>
        <time>2018-06-10T09:56:46Z</time>
      </trkpt>
      <trkpt lat="43.44285" lon="1.45949">
        <ele>197</ele>
        <time>2018-06-10T09:56:46Z</time>
      </trkpt>
      <trkpt lat="43.4428" lon="1.45949">
        <ele>197</ele>
        <time>2018-06-10T09:56:46Z</time>
      </trkpt>
      <trkpt lat="43.44277" lon="1.45945">
        <ele>197</ele>
        <time>2018-06-10T09:57:38Z</time>
      </trkpt>
      <trkpt lat="43.4428" lon="1.45942">
        <ele>197</ele>
        <time>2018-06-10T09:57:38Z</time>
      </trkpt>
      <trkpt lat="43.44282" lon="1.45941">
        <ele>197</ele>
        <time>2018-06-10T09:57:38Z</time>
      </trkpt>
      <trkpt lat="43.44282" lon="1.4594">
        <ele>197</ele>
        <time>2018-06-10T09:57:38Z</time>
      </trkpt>
      <trkpt lat="43.44283" lon="1.45941">
        <ele>197</ele>
        <time>2018-06-10T09:57:38Z</time>
      </trkpt>
      <trkpt lat="43.44285" lon="1.45947">
        <ele>197</ele>
        <time>2018-06-10T09:59:06Z</time>
      </trkpt>
      <trkpt lat="43.44281" lon="1.45948">
        <ele>197</ele>
        <time>2018-06-10T09:59:06Z</time>
      </trkpt>
      <trkpt lat="43.44277" lon="1.45947">
        <ele>197</ele>
        <time>2018-06-10T09:59:06Z</time>
      </trkpt>
      <trkpt lat="43.44272" lon="1.45947">
        <ele>197</ele>
        <time>2018-06-10T09:59:06Z</time>
      </trkpt>
      <trkpt lat="43.44271" lon="1.45947">
        <ele>197</ele>
        <time>2018-06-10T09:59:06Z</time>
      </trkpt>
      <trkpt lat="43.44268" lon="1.45945">
        <ele>197</ele>
        <time>2018-06-10T09:59:22Z</time>
      </trkpt>
      <trkpt lat="43.44265" lon="1.45942">
        <ele>197</ele>
        <time>2018-06-10T09:59:22Z</time>
      </trkpt>
      <trkpt lat="43.44262" lon="1.45939">
        <ele>197</ele>
        <time>2018-06-10T09:59:22Z</time>
      </trkpt>
      <trkpt lat="43.44259" lon="1.45935">
        <ele>197</ele>
        <time>2018-06-10T09:59:22Z</time>
      </trkpt>
      <trkpt lat="43.44255" lon="1.45932">
        <ele>197</ele>
        <time>2018-06-10T09:59:38Z</time>
      </trkpt>
      <trkpt lat="43.44251" lon="1.45931">
        <ele>197</ele>
        <time>2018-06-10T09:59:38Z</time>
      </trkpt>
      <trkpt lat="43.44248" lon="1.45926">
        <ele>197</ele>
        <time>2018-06-10T09:59:38Z</time>
      </trkpt>
      <trkpt lat="43.44246" lon="1.45921">
        <ele>197</ele>
        <time>2018-06-10T09:59:38Z</time>
      </trkpt>
      <trkpt lat="43.44243" lon="1.45917">
        <ele>197</ele>
        <time>2018-06-10T09:59:54Z</time>
      </trkpt>
      <trkpt lat="43.44241" lon="1.45913">
        <ele>197</ele>
        <time>2018-06-10T09:59:54Z</time>
      </trkpt>
      <trkpt lat="43.44241" lon="1.45909">
        <ele>197</ele>
        <time>2018-06-10T09:59:54Z</time>
      </trkpt>
      <trkpt lat="43.44237" lon="1.45907">
        <ele>197</ele>
        <time>2018-06-10T09:59:54Z</time>
      </trkpt>
      <trkpt lat="43.4424" lon="1.45898">
        <ele>197</ele>
        <time>2018-06-10T10:00:30Z</time>
      </trkpt>
      <trkpt lat="43.44238" lon="1.4589">
        <ele>197</ele>
        <time>2018-06-10T10:00:30Z</time>
      </trkpt>
      <trkpt lat="43.44233" lon="1.45883">
        <ele>197</ele>
        <time>2018-06-10T10:00:30Z</time>
      </trkpt>
      <trkpt lat="43.4423" lon="1.45876">
        <ele>197</ele>
        <time>2018-06-10T10:00:30Z</time>
      </trkpt>
      <trkpt lat="43.44224" lon="1.4587">
        <ele>197</ele>
        <time>2018-06-10T10:00:30Z</time>
      </trkpt>
      <trkpt lat="43.44219" lon="1.45864">
        <ele>197</ele>
        <time>2018-06-10T10:00:46Z</time>
      </trkpt>
      <trkpt lat="43.44216" lon="1.45858">
        <ele>197</ele>
        <time>2018-06-10T10:00:46Z</time>
      </trkpt>
      <trkpt lat="43.44214" lon="1.45853">
        <ele>197</ele>
        <time>2018-06-10T10:00:46Z</time>
      </trkpt>
      <trkpt lat="43.44214" lon="1.45848">
        <ele>197</ele>
        <time>2018-06-10T10:00:46Z</time>
      </trkpt>
      <trkpt lat="43.44216" lon="1.45842">
        <ele>197</ele>
        <time>2018-06-10T10:01:14Z</time>
      </trkpt>
      <trkpt lat="43.44212" lon="1.45841">
        <ele>197</ele>
        <time>2018-06-10T10:01:14Z</time>
      </trkpt>
      <trkpt lat="43.44205" lon="1.45839">
        <ele>201</ele>
        <time>2018-06-10T10:01:14Z</time>
      </trkpt>
      <trkpt lat="43.44198" lon="1.45838">
        <ele>201</ele>
        <time>2018-06-10T10:01:14Z</time>
      </trkpt>
      <trkpt lat="43.44192" lon="1.45834">
        <ele>201</ele>
        <time>2018-06-10T10:01:14Z</time>
      </trkpt>
      <trkpt lat="43.44188" lon="1.4583">
        <ele>201</ele>
        <time>2018-06-10T10:01:30Z</time>
      </trkpt>
      <trkpt lat="43.44184" lon="1.45828">
        <ele>201</ele>
        <time>2018-06-10T10:01:30Z</time>
      </trkpt>
      <trkpt lat="43.44181" lon="1.45826">
        <ele>201</ele>
        <time>2018-06-10T10:01:30Z</time>
      </trkpt>
      <trkpt lat="43.44177" lon="1.45826">
        <ele>201</ele>
        <time>2018-06-10T10:01:30Z</time>
      </trkpt>
      <trkpt lat="43.44173" lon="1.45825">
        <ele>201</ele>
        <time>2018-06-10T10:01:46Z</time>
      </trkpt>
      <trkpt lat="43.44167" lon="1.45824">
        <ele>201</ele>
        <time>2018-06-10T10:01:46Z</time>
      </trkpt>
      <trkpt lat="43.44162" lon="1.45822">
        <ele>201</ele>
        <time>2018-06-10T10:01:46Z</time>
      </trkpt>
      <trkpt lat="43.44157" lon="1.45821">
        <ele>201</ele>
        <time>2018-06-10T10:01:46Z</time>
      </trkpt>
      <trkpt lat="43.44152" lon="1.45822">
        <ele>201</ele>
        <time>2018-06-10T10:02:02Z</time>
      </trkpt>
      <trkpt lat="43.44147" lon="1.45822">
        <ele>201</ele>
        <time>2018-06-10T10:02:02Z</time>
      </trkpt>
      <trkpt lat="43.44145" lon="1.45822">
        <ele>201</ele>
        <time>2018-06-10T10:02:02Z</time>
      </trkpt>
      <trkpt lat="43.44141" lon="1.45821">
        <ele>201</ele>
        <time>2018-06-10T10:02:02Z</time>
      </trkpt>
      <trkpt lat="43.44137" lon="1.45822">
        <ele>201</ele>
        <time>2018-06-10T10:02:18Z</time>
      </trkpt>
      <trkpt lat="43.44132" lon="1.45821">
        <ele>201</ele>
        <time>2018-06-10T10:02:18Z</time>
      </trkpt>
      <trkpt lat="43.44127" lon="1.45818">
        <ele>201</ele>
        <time>2018-06-10T10:02:18Z</time>
      </trkpt>
      <trkpt lat="43.44124" lon="1.45814">
        <ele>204</ele>
        <time>2018-06-10T10:02:18Z</time>
      </trkpt>
      <trkpt lat="43.4412" lon="1.45812">
        <ele>204</ele>
        <time>2018-06-10T10:02:34Z</time>
      </trkpt>
      <trkpt lat="43.44118" lon="1.45807">
        <ele>204</ele>
        <time>2018-06-10T10:02:34Z</time>
      </trkpt>
      <trkpt lat="43.44114" lon="1.45802">
        <ele>204</ele>
        <time>2018-06-10T10:02:34Z</time>
      </trkpt>
      <trkpt lat="43.4411" lon="1.45798">
        <ele>204</ele>
        <time>2018-06-10T10:02:34Z</time>
      </trkpt>
      <trkpt lat="43.44106" lon="1.45795">
        <ele>204</ele>
        <time>2018-06-10T10:02:50Z</time>
      </trkpt>
      <trkpt lat="43.44102" lon="1.45791">
        <ele>203</ele>
        <time>2018-06-10T10:02:50Z</time>
      </trkpt>
      <trkpt lat="43.44099" lon="1.45787">
        <ele>203</ele>
        <time>2018-06-10T10:02:50Z</time>
      </trkpt>
      <trkpt lat="43.44096" lon="1.45782">
        <ele>203</ele>
        <time>2018-06-10T10:02:50Z</time>
      </trkpt>
      <trkpt lat="43.44094" lon="1.45777">
        <ele>203</ele>
        <time>2018-06-10T10:03:06Z</time>
      </trkpt>
      <trkpt lat="43.4409" lon="1.45772">
        <ele>203</ele>
        <time>2018-06-10T10:03:06Z</time>
      </trkpt>
      <trkpt lat="43.44085" lon="1.45768">
        <ele>203</ele>
        <time>2018-06-10T10:03:06Z</time>
      </trkpt>
      <trkpt lat="43.44081" lon="1.45766">
        <ele>203</ele>
        <time>2018-06-10T10:03:06Z</time>
      </trkpt>
      <trkpt lat="43.44078" lon="1.45761">
        <ele>203</ele>
        <time>2018-06-10T10:03:22Z</time>
      </trkpt>
      <trkpt lat="43.44074" lon="1.45756">
        <ele>203</ele>
        <time>2018-06-10T10:03:22Z</time>
      </trkpt>
      <trkpt lat="43.44071" lon="1.45752">
        <ele>203</ele>
        <time>2018-06-10T10:03:22Z</time>
      </trkpt>
      <trkpt lat="43.44068" lon="1.45748">
        <ele>203</ele>
        <time>2018-06-10T10:03:22Z</time>
      </trkpt>
      <trkpt lat="43.44062" lon="1.45744">
        <ele>203</ele>
        <time>2018-06-10T10:03:38Z</time>
      </trkpt>
      <trkpt lat="43.44058" lon="1.45741">
        <ele>203</ele>
        <time>2018-06-10T10:03:38Z</time>
      </trkpt>
      <trkpt lat="43.44055" lon="1.45738">
        <ele>203</ele>
        <time>2018-06-10T10:03:38Z</time>
      </trkpt>
      <trkpt lat="43.44052" lon="1.45734">
        <ele>203</ele>
        <time>2018-06-10T10:03:38Z</time>
      </trkpt>
      <trkpt lat="43.44047" lon="1.45729">
        <ele>203</ele>
        <time>2018-06-10T10:03:54Z</time>
      </trkpt>
      <trkpt lat="43.44042" lon="1.45724">
        <ele>203</ele>
        <time>2018-06-10T10:03:54Z</time>
      </trkpt>
      <trkpt lat="43.44039" lon="1.45721">
        <ele>211</ele>
        <time>2018-06-10T10:03:54Z</time>
      </trkpt>
      <trkpt lat="43.44036" lon="1.45718">
        <ele>211</ele>
        <time>2018-06-10T10:03:54Z</time>
      </trkpt>
      <trkpt lat="43.44033" lon="1.45714">
        <ele>211</ele>
        <time>2018-06-10T10:04:10Z</time>
      </trkpt>
      <trkpt lat="43.44029" lon="1.45709">
        <ele>211</ele>
        <time>2018-06-10T10:04:10Z</time>
      </trkpt>
      <trkpt lat="43.44024" lon="1.45706">
        <ele>210</ele>
        <time>2018-06-10T10:04:10Z</time>
      </trkpt>
      <trkpt lat="43.4402" lon="1.45702">
        <ele>210</ele>
        <time>2018-06-10T10:04:10Z</time>
      </trkpt>
      <trkpt lat="43.44016" lon="1.45698">
        <ele>210</ele>
        <time>2018-06-10T10:04:26Z</time>
      </trkpt>
      <trkpt lat="43.4401" lon="1.45695">
        <ele>210</ele>
        <time>2018-06-10T10:04:26Z</time>
      </trkpt>
      <trkpt lat="43.44007" lon="1.4569">
        <ele>210</ele>
        <time>2018-06-10T10:04:26Z</time>
      </trkpt>
      <trkpt lat="43.44003" lon="1.45688">
        <ele>210</ele>
        <time>2018-06-10T10:04:26Z</time>
      </trkpt>
      <trkpt lat="43.43999" lon="1.45682">
        <ele>210</ele>
        <time>2018-06-10T10:04:42Z</time>
      </trkpt>
      <trkpt lat="43.43994" lon="1.45678">
        <ele>210</ele>
        <time>2018-06-10T10:04:42Z</time>
      </trkpt>
      <trkpt lat="43.43989" lon="1.45676">
        <ele>210</ele>
        <time>2018-06-10T10:04:42Z</time>
      </trkpt>
      <trkpt lat="43.43985" lon="1.45672">
        <ele>210</ele>
        <time>2018-06-10T10:04:42Z</time>
      </trkpt>
      <trkpt lat="43.43982" lon="1.45666">
        <ele>210</ele>
        <time>2018-06-10T10:04:58Z</time>
      </trkpt>
      <trkpt lat="43.4398" lon="1.45663">
        <ele>210</ele>
        <time>2018-06-10T10:04:58Z</time>
      </trkpt>
      <trkpt lat="43.43979" lon="1.45653">
        <ele>210</ele>
        <time>2018-06-10T10:04:58Z</time>
      </trkpt>
      <trkpt lat="43.43975" lon="1.45645">
        <ele>210</ele>
        <time>2018-06-10T10:04:58Z</time>
      </trkpt>
      <trkpt lat="43.43972" lon="1.45642">
        <ele>210</ele>
        <time>2018-06-10T10:05:14Z</time>
      </trkpt>
      <trkpt lat="43.4397" lon="1.45636">
        <ele>210</ele>
        <time>2018-06-10T10:05:14Z</time>
      </trkpt>
      <trkpt lat="43.43969" lon="1.4563">
        <ele>210</ele>
        <time>2018-06-10T10:05:14Z</time>
      </trkpt>
      <trkpt lat="43.43966" lon="1.45623">
        <ele>209</ele>
        <time>2018-06-10T10:05:14Z</time>
      </trkpt>
      <trkpt lat="43.43962" lon="1.45617">
        <ele>209</ele>
        <time>2018-06-10T10:05:30Z</time>
      </trkpt>
      <trkpt lat="43.43957" lon="1.45616">
        <ele>220</ele>
        <time>2018-06-10T10:05:30Z</time>
      </trkpt>
      <trkpt lat="43.43952" lon="1.45615">
        <ele>220</ele>
        <time>2018-06-10T10:05:30Z</time>
      </trkpt>
      <trkpt lat="43.43951" lon="1.45612">
        <ele>220</ele>
        <time>2018-06-10T10:05:30Z</time>
      </trkpt>
      <trkpt lat="43.43947" lon="1.4561">
        <ele>220</ele>
        <time>2018-06-10T10:05:46Z</time>
      </trkpt>
      <trkpt lat="43.43943" lon="1.45606">
        <ele>220</ele>
        <time>2018-06-10T10:05:46Z</time>
      </trkpt>
      <trkpt lat="43.43938" lon="1.45604">
        <ele>220</ele>
        <time>2018-06-10T10:05:46Z</time>
      </trkpt>
      <trkpt lat="43.43933" lon="1.45605">
        <ele>220</ele>
        <time>2018-06-10T10:05:46Z</time>
      </trkpt>
      <trkpt lat="43.4393" lon="1.45601">
        <ele>220</ele>
        <time>2018-06-10T10:06:02Z</time>
      </trkpt>
      <trkpt lat="43.43927" lon="1.45597">
        <ele>220</ele>
        <time>2018-06-10T10:06:02Z</time>
      </trkpt>
      <trkpt lat="43.43925" lon="1.45593">
        <ele>220</ele>
        <time>2018-06-10T10:06:02Z</time>
      </trkpt>
      <trkpt lat="43.43919" lon="1.45591">
        <ele>220</ele>
        <time>2018-06-10T10:06:02Z</time>
      </trkpt>
      <trkpt lat="43.43914" lon="1.45588">
        <ele>220</ele>
        <time>2018-06-10T10:06:18Z</time>
      </trkpt>
      <trkpt lat="43.43909" lon="1.45585">
        <ele>220</ele>
        <time>2018-06-10T10:06:18Z</time>
      </trkpt>
      <trkpt lat="43.43903" lon="1.45582">
        <ele>220</ele>
        <time>2018-06-10T10:06:18Z</time>
      </trkpt>
      <trkpt lat="43.43898" lon="1.45578">
        <ele>220</ele>
        <time>2018-06-10T10:06:18Z</time>
      </trkpt>
      <trkpt lat="43.4389" lon="1.45575">
        <ele>220</ele>
        <time>2018-06-10T10:06:35Z</time>
      </trkpt>
      <trkpt lat="43.43884" lon="1.45571">
        <ele>220</ele>
        <time>2018-06-10T10:06:35Z</time>
      </trkpt>
      <trkpt lat="43.43882" lon="1.45571">
        <ele>220</ele>
        <time>2018-06-10T10:06:35Z</time>
      </trkpt>
      <trkpt lat="43.43877" lon="1.45569">
        <ele>220</ele>
        <time>2018-06-10T10:06:35Z</time>
      </trkpt>
      <trkpt lat="43.43882" lon="1.4556">
        <ele>220</ele>
        <time>2018-06-10T10:07:34Z</time>
      </trkpt>
      <trkpt lat="43.43883" lon="1.45561">
        <ele>220</ele>
        <time>2018-06-10T10:07:34Z</time>
      </trkpt>
      <trkpt lat="43.43883" lon="1.45561">
        <ele>220</ele>
        <time>2018-06-10T10:07:34Z</time>
      </trkpt>
      <trkpt lat="43.43883" lon="1.45561">
        <ele>220</ele>
        <time>2018-06-10T10:07:34Z</time>
      </trkpt>
      <trkpt lat="43.43883" lon="1.4556">
        <ele>220</ele>
        <time>2018-06-10T10:07:34Z</time>
      </trkpt>
      <trkpt lat="43.43883" lon="1.45561">
        <ele>220</ele>
        <time>2018-06-10T10:08:02Z</time>
      </trkpt>
      <trkpt lat="43.43883" lon="1.45561">
        <ele>220</ele>
        <time>2018-06-10T10:08:02Z</time>
      </trkpt>
      <trkpt lat="43.4388" lon="1.45559">
        <ele>220</ele>
        <time>2018-06-10T10:08:02Z</time>
      </trkpt>
      <trkpt lat="43.43876" lon="1.45559">
        <ele>220</ele>
        <time>2018-06-10T10:08:02Z</time>
      </trkpt>
      <trkpt lat="43.43874" lon="1.45557">
        <ele>226</ele>
        <time>2018-06-10T10:08:02Z</time>
      </trkpt>
      <trkpt lat="43.43872" lon="1.45554">
        <ele>226</ele>
        <time>2018-06-10T10:08:22Z</time>
      </trkpt>
      <trkpt lat="43.4387" lon="1.45553">
        <ele>226</ele>
        <time>2018-06-10T10:08:22Z</time>
      </trkpt>
      <trkpt lat="43.43868" lon="1.45551">
        <ele>226</ele>
        <time>2018-06-10T10:08:22Z</time>
      </trkpt>
      <trkpt lat="43.43864" lon="1.45553">
        <ele>226</ele>
        <time>2018-06-10T10:08:22Z</time>
      </trkpt>
      <trkpt lat="43.43861" lon="1.45552">
        <ele>226</ele>
        <time>2018-06-10T10:08:22Z</time>
      </trkpt>
      <trkpt lat="43.43859" lon="1.45551">
        <ele>226</ele>
        <time>2018-06-10T10:08:42Z</time>
      </trkpt>
      <trkpt lat="43.43857" lon="1.45551">
        <ele>226</ele>
        <time>2018-06-10T10:08:42Z</time>
      </trkpt>
      <trkpt lat="43.43853" lon="1.4555">
        <ele>226</ele>
        <time>2018-06-10T10:08:42Z</time>
      </trkpt>
      <trkpt lat="43.4385" lon="1.45551">
        <ele>226</ele>
        <time>2018-06-10T10:08:42Z</time>
      </trkpt>
      <trkpt lat="43.43846" lon="1.45549">
        <ele>226</ele>
        <time>2018-06-10T10:08:42Z</time>
      </trkpt>
      <trkpt lat="43.4384" lon="1.45546">
        <ele>226</ele>
        <time>2018-06-10T10:08:58Z</time>
      </trkpt>
      <trkpt lat="43.43838" lon="1.45545">
        <ele>226</ele>
        <time>2018-06-10T10:08:58Z</time>
      </trkpt>
      <trkpt lat="43.43834" lon="1.45545">
        <ele>226</ele>
        <time>2018-06-10T10:08:58Z</time>
      </trkpt>
      <trkpt lat="43.4383" lon="1.45542">
        <ele>226</ele>
        <time>2018-06-10T10:08:58Z</time>
      </trkpt>
      <trkpt lat="43.43825" lon="1.45541">
        <ele>219</ele>
        <time>2018-06-10T10:09:14Z</time>
      </trkpt>
      <trkpt lat="43.43818" lon="1.45541">
        <ele>219</ele>
        <time>2018-06-10T10:09:14Z</time>
      </trkpt>
      <trkpt lat="43.43813" lon="1.4554">
        <ele>219</ele>
        <time>2018-06-10T10:09:14Z</time>
      </trkpt>
      <trkpt lat="43.43807" lon="1.45539">
        <ele>219</ele>
        <time>2018-06-10T10:09:14Z</time>
      </trkpt>
      <trkpt lat="43.43796" lon="1.45537">
        <ele>219</ele>
        <time>2018-06-10T10:09:38Z</time>
      </trkpt>
      <trkpt lat="43.43792" lon="1.45539">
        <ele>219</ele>
        <time>2018-06-10T10:09:38Z</time>
      </trkpt>
      <trkpt lat="43.43792" lon="1.45539">
        <ele>219</ele>
        <time>2018-06-10T10:09:38Z</time>
      </trkpt>
      <trkpt lat="43.43792" lon="1.45539">
        <ele>221</ele>
        <time>2018-06-10T10:09:38Z</time>
      </trkpt>
      <trkpt lat="43.43791" lon="1.45539">
        <ele>221</ele>
        <time>2018-06-10T10:09:38Z</time>
      </trkpt>
      <trkpt lat="43.4379" lon="1.45539">
        <ele>221</ele>
        <time>2018-06-10T10:09:58Z</time>
      </trkpt>
      <trkpt lat="43.43787" lon="1.4554">
        <ele>221</ele>
        <time>2018-06-10T10:09:58Z</time>
      </trkpt>
      <trkpt lat="43.43786" lon="1.45544">
        <ele>228</ele>
        <time>2018-06-10T10:09:58Z</time>
      </trkpt>
      <trkpt lat="43.43784" lon="1.45548">
        <ele>228</ele>
        <time>2018-06-10T10:09:58Z</time>
      </trkpt>
      <trkpt lat="43.43783" lon="1.4555">
        <ele>228</ele>
        <time>2018-06-10T10:09:58Z</time>
      </trkpt>
      <trkpt lat="43.43782" lon="1.45555">
        <ele>228</ele>
        <time>2018-06-10T10:10:18Z</time>
      </trkpt>
      <trkpt lat="43.43782" lon="1.45555">
        <ele>228</ele>
        <time>2018-06-10T10:10:18Z</time>
      </trkpt>
      <trkpt lat="43.43777" lon="1.45561">
        <ele>228</ele>
        <time>2018-06-10T10:10:18Z</time>
      </trkpt>
      <trkpt lat="43.43776" lon="1.45563">
        <ele>228</ele>
        <time>2018-06-10T10:10:18Z</time>
      </trkpt>
      <trkpt lat="43.43775" lon="1.45564">
        <ele>228</ele>
        <time>2018-06-10T10:10:18Z</time>
      </trkpt>
      <trkpt lat="43.43774" lon="1.45568">
        <ele>228</ele>
        <time>2018-06-10T10:10:34Z</time>
      </trkpt>
      <trkpt lat="43.43768" lon="1.45575">
        <ele>228</ele>
        <time>2018-06-10T10:10:34Z</time>
      </trkpt>
      <trkpt lat="43.43766" lon="1.45577">
        <ele>228</ele>
        <time>2018-06-10T10:10:34Z</time>
      </trkpt>
      <trkpt lat="43.43764" lon="1.45583">
        <ele>228</ele>
        <time>2018-06-10T10:10:34Z</time>
      </trkpt>
      <trkpt lat="43.4376" lon="1.45589">
        <ele>228</ele>
        <time>2018-06-10T10:10:50Z</time>
      </trkpt>
      <trkpt lat="43.43757" lon="1.45594">
        <ele>228</ele>
        <time>2018-06-10T10:10:50Z</time>
      </trkpt>
      <trkpt lat="43.43754" lon="1.45602">
        <ele>228</ele>
        <time>2018-06-10T10:10:50Z</time>
      </trkpt>
      <trkpt lat="43.43751" lon="1.45608">
        <ele>228</ele>
        <time>2018-06-10T10:10:50Z</time>
      </trkpt>
      <trkpt lat="43.43749" lon="1.45613">
        <ele>228</ele>
        <time>2018-06-10T10:11:10Z</time>
      </trkpt>
      <trkpt lat="43.4375" lon="1.45616">
        <ele>228</ele>
        <time>2018-06-10T10:11:10Z</time>
      </trkpt>
      <trkpt lat="43.43749" lon="1.4562">
        <ele>228</ele>
        <time>2018-06-10T10:11:10Z</time>
      </trkpt>
      <trkpt lat="43.43745" lon="1.45624">
        <ele>228</ele>
        <time>2018-06-10T10:11:10Z</time>
      </trkpt>
      <trkpt lat="43.43744" lon="1.45628">
        <ele>231</ele>
        <time>2018-06-10T10:11:10Z</time>
      </trkpt>
      <trkpt lat="43.43741" lon="1.45634">
        <ele>231</ele>
        <time>2018-06-10T10:11:26Z</time>
      </trkpt>
      <trkpt lat="43.43737" lon="1.4564">
        <ele>231</ele>
        <time>2018-06-10T10:11:26Z</time>
      </trkpt>
      <trkpt lat="43.43734" lon="1.45644">
        <ele>231</ele>
        <time>2018-06-10T10:11:26Z</time>
      </trkpt>
      <trkpt lat="43.43731" lon="1.45648">
        <ele>231</ele>
        <time>2018-06-10T10:11:26Z</time>
      </trkpt>
      <trkpt lat="43.43731" lon="1.45653">
        <ele>231</ele>
        <time>2018-06-10T10:11:42Z</time>
      </trkpt>
      <trkpt lat="43.4373" lon="1.45658">
        <ele>231</ele>
        <time>2018-06-10T10:11:42Z</time>
      </trkpt>
      <trkpt lat="43.43728" lon="1.45663">
        <ele>231</ele>
        <time>2018-06-10T10:11:42Z</time>
      </trkpt>
      <trkpt lat="43.43725" lon="1.45668">
        <ele>231</ele>
        <time>2018-06-10T10:11:42Z</time>
      </trkpt>
      <trkpt lat="43.43723" lon="1.45674">
        <ele>231</ele>
        <time>2018-06-10T10:11:58Z</time>
      </trkpt>
      <trkpt lat="43.43721" lon="1.45678">
        <ele>231</ele>
        <time>2018-06-10T10:11:58Z</time>
      </trkpt>
      <trkpt lat="43.43715" lon="1.45679">
        <ele>231</ele>
        <time>2018-06-10T10:11:58Z</time>
      </trkpt>
      <trkpt lat="43.43711" lon="1.45686">
        <ele>231</ele>
        <time>2018-06-10T10:11:58Z</time>
      </trkpt>
      <trkpt lat="43.43714" lon="1.45695">
        <ele>231</ele>
        <time>2018-06-10T10:12:14Z</time>
      </trkpt>
      <trkpt lat="43.43713" lon="1.45701">
        <ele>231</ele>
        <time>2018-06-10T10:12:14Z</time>
      </trkpt>
      <trkpt lat="43.43712" lon="1.45707">
        <ele>231</ele>
        <time>2018-06-10T10:12:14Z</time>
      </trkpt>
      <trkpt lat="43.43711" lon="1.45713">
        <ele>238</ele>
        <time>2018-06-10T10:12:14Z</time>
      </trkpt>
      <trkpt lat="43.43709" lon="1.4572">
        <ele>238</ele>
        <time>2018-06-10T10:12:30Z</time>
      </trkpt>
      <trkpt lat="43.43708" lon="1.45726">
        <ele>237</ele>
        <time>2018-06-10T10:12:30Z</time>
      </trkpt>
      <trkpt lat="43.43707" lon="1.45731">
        <ele>237</ele>
        <time>2018-06-10T10:12:30Z</time>
      </trkpt>
      <trkpt lat="43.43705" lon="1.45736">
        <ele>237</ele>
        <time>2018-06-10T10:12:30Z</time>
      </trkpt>
      <trkpt lat="43.43704" lon="1.45742">
        <ele>237</ele>
        <time>2018-06-10T10:12:46Z</time>
      </trkpt>
      <trkpt lat="43.43702" lon="1.45748">
        <ele>237</ele>
        <time>2018-06-10T10:12:46Z</time>
      </trkpt>
      <trkpt lat="43.43701" lon="1.45754">
        <ele>237</ele>
        <time>2018-06-10T10:12:47Z</time>
      </trkpt>
      <trkpt lat="43.437" lon="1.45761">
        <ele>237</ele>
        <time>2018-06-10T10:12:47Z</time>
      </trkpt>
      <trkpt lat="43.43698" lon="1.45767">
        <ele>237</ele>
        <time>2018-06-10T10:13:02Z</time>
      </trkpt>
      <trkpt lat="43.43696" lon="1.45774">
        <ele>237</ele>
        <time>2018-06-10T10:13:02Z</time>
      </trkpt>
      <trkpt lat="43.43694" lon="1.4578">
        <ele>237</ele>
        <time>2018-06-10T10:13:02Z</time>
      </trkpt>
      <trkpt lat="43.43692" lon="1.45786">
        <ele>237</ele>
        <time>2018-06-10T10:13:02Z</time>
      </trkpt>
      <trkpt lat="43.4369" lon="1.45792">
        <ele>242</ele>
        <time>2018-06-10T10:13:18Z</time>
      </trkpt>
      <trkpt lat="43.43688" lon="1.45798">
        <ele>242</ele>
        <time>2018-06-10T10:13:18Z</time>
      </trkpt>
      <trkpt lat="43.43687" lon="1.45805">
        <ele>242</ele>
        <time>2018-06-10T10:13:18Z</time>
      </trkpt>
      <trkpt lat="43.43685" lon="1.45811">
        <ele>242</ele>
        <time>2018-06-10T10:13:18Z</time>
      </trkpt>
      <trkpt lat="43.43682" lon="1.45817">
        <ele>242</ele>
        <time>2018-06-10T10:13:34Z</time>
      </trkpt>
      <trkpt lat="43.4368" lon="1.45824">
        <ele>242</ele>
        <time>2018-06-10T10:13:34Z</time>
      </trkpt>
      <trkpt lat="43.43677" lon="1.45831">
        <ele>242</ele>
        <time>2018-06-10T10:13:34Z</time>
      </trkpt>
      <trkpt lat="43.43675" lon="1.45837">
        <ele>242</ele>
        <time>2018-06-10T10:13:34Z</time>
      </trkpt>
      <trkpt lat="43.43672" lon="1.45843">
        <ele>242</ele>
        <time>2018-06-10T10:13:50Z</time>
      </trkpt>
      <trkpt lat="43.43669" lon="1.45848">
        <ele>242</ele>
        <time>2018-06-10T10:13:50Z</time>
      </trkpt>
      <trkpt lat="43.43668" lon="1.45855">
        <ele>242</ele>
        <time>2018-06-10T10:13:50Z</time>
      </trkpt>
      <trkpt lat="43.43666" lon="1.45861">
        <ele>242</ele>
        <time>2018-06-10T10:13:50Z</time>
      </trkpt>
      <trkpt lat="43.43664" lon="1.45867">
        <ele>242</ele>
        <time>2018-06-10T10:14:06Z</time>
      </trkpt>
      <trkpt lat="43.43662" lon="1.45873">
        <ele>242</ele>
        <time>2018-06-10T10:14:06Z</time>
      </trkpt>
      <trkpt lat="43.4366" lon="1.4588">
        <ele>247</ele>
        <time>2018-06-10T10:14:06Z</time>
      </trkpt>
      <trkpt lat="43.43659" lon="1.45887">
        <ele>247</ele>
        <time>2018-06-10T10:14:06Z</time>
      </trkpt>
      <trkpt lat="43.43657" lon="1.45894">
        <ele>247</ele>
        <time>2018-06-10T10:14:46Z</time>
      </trkpt>
      <trkpt lat="43.43657" lon="1.45894">
        <ele>247</ele>
        <time>2018-06-10T10:14:46Z</time>
      </trkpt>
      <trkpt lat="43.43657" lon="1.45896">
        <ele>247</ele>
        <time>2018-06-10T10:14:46Z</time>
      </trkpt>
      <trkpt lat="43.43655" lon="1.45902">
        <ele>247</ele>
        <time>2018-06-10T10:14:46Z</time>
      </trkpt>
      <trkpt lat="43.43654" lon="1.45908">
        <ele>247</ele>
        <time>2018-06-10T10:14:46Z</time>
      </trkpt>
      <trkpt lat="43.43653" lon="1.45914">
        <ele>247</ele>
        <time>2018-06-10T10:15:02Z</time>
      </trkpt>
      <trkpt lat="43.43652" lon="1.4592">
        <ele>247</ele>
        <time>2018-06-10T10:15:02Z</time>
      </trkpt>
      <trkpt lat="43.43652" lon="1.45926">
        <ele>247</ele>
        <time>2018-06-10T10:15:02Z</time>
      </trkpt>
      <trkpt lat="43.43652" lon="1.45932">
        <ele>247</ele>
        <time>2018-06-10T10:15:02Z</time>
      </trkpt>
      <trkpt lat="43.43652" lon="1.45939">
        <ele>247</ele>
        <time>2018-06-10T10:15:18Z</time>
      </trkpt>
      <trkpt lat="43.43651" lon="1.45946">
        <ele>247</ele>
        <time>2018-06-10T10:15:18Z</time>
      </trkpt>
      <trkpt lat="43.43651" lon="1.45952">
        <ele>247</ele>
        <time>2018-06-10T10:15:18Z</time>
      </trkpt>
      <trkpt lat="43.43649" lon="1.45958">
        <ele>247</ele>
        <time>2018-06-10T10:15:18Z</time>
      </trkpt>
      <trkpt lat="43.43649" lon="1.45964">
        <ele>252</ele>
        <time>2018-06-10T10:15:34Z</time>
      </trkpt>
      <trkpt lat="43.43648" lon="1.4597">
        <ele>252</ele>
        <time>2018-06-10T10:15:34Z</time>
      </trkpt>
      <trkpt lat="43.43648" lon="1.45975">
        <ele>252</ele>
        <time>2018-06-10T10:15:34Z</time>
      </trkpt>
      <trkpt lat="43.43648" lon="1.4598">
        <ele>252</ele>
        <time>2018-06-10T10:15:34Z</time>
      </trkpt>
      <trkpt lat="43.43648" lon="1.45987">
        <ele>252</ele>
        <time>2018-06-10T10:15:50Z</time>
      </trkpt>
      <trkpt lat="43.43648" lon="1.45992">
        <ele>252</ele>
        <time>2018-06-10T10:15:50Z</time>
      </trkpt>
      <trkpt lat="43.43647" lon="1.45998">
        <ele>252</ele>
        <time>2018-06-10T10:15:50Z</time>
      </trkpt>
      <trkpt lat="43.43646" lon="1.46003">
        <ele>252</ele>
        <time>2018-06-10T10:15:50Z</time>
      </trkpt>
      <trkpt lat="43.43645" lon="1.46009">
        <ele>252</ele>
        <time>2018-06-10T10:16:06Z</time>
      </trkpt>
      <trkpt lat="43.43644" lon="1.46016">
        <ele>252</ele>
        <time>2018-06-10T10:16:06Z</time>
      </trkpt>
      <trkpt lat="43.43644" lon="1.46022">
        <ele>252</ele>
        <time>2018-06-10T10:16:06Z</time>
      </trkpt>
      <trkpt lat="43.43644" lon="1.46028">
        <ele>252</ele>
        <time>2018-06-10T10:16:06Z</time>
      </trkpt>
      <trkpt lat="43.43644" lon="1.46034">
        <ele>252</ele>
        <time>2018-06-10T10:16:22Z</time>
      </trkpt>
      <trkpt lat="43.43643" lon="1.46041">
        <ele>252</ele>
        <time>2018-06-10T10:16:22Z</time>
      </trkpt>
      <trkpt lat="43.43642" lon="1.46047">
        <ele>253</ele>
        <time>2018-06-10T10:16:22Z</time>
      </trkpt>
      <trkpt lat="43.43642" lon="1.46054">
        <ele>253</ele>
        <time>2018-06-10T10:16:22Z</time>
      </trkpt>
      <trkpt lat="43.4364" lon="1.46063">
        <ele>253</ele>
        <time>2018-06-10T10:16:38Z</time>
      </trkpt>
      <trkpt lat="43.43639" lon="1.46068">
        <ele>253</ele>
        <time>2018-06-10T10:16:38Z</time>
      </trkpt>
      <trkpt lat="43.43638" lon="1.46074">
        <ele>253</ele>
        <time>2018-06-10T10:16:38Z</time>
      </trkpt>
      <trkpt lat="43.43636" lon="1.46079">
        <ele>253</ele>
        <time>2018-06-10T10:16:38Z</time>
      </trkpt>
      <trkpt lat="43.43635" lon="1.46086">
        <ele>253</ele>
        <time>2018-06-10T10:16:54Z</time>
      </trkpt>
      <trkpt lat="43.43634" lon="1.46093">
        <ele>253</ele>
        <time>2018-06-10T10:16:54Z</time>
      </trkpt>
      <trkpt lat="43.43633" lon="1.46099">
        <ele>253</ele>
        <time>2018-06-10T10:16:54Z</time>
      </trkpt>
      <trkpt lat="43.43632" lon="1.46105">
        <ele>253</ele>
        <time>2018-06-10T10:16:54Z</time>
      </trkpt>
      <trkpt lat="43.43629" lon="1.46113">
        <ele>253</ele>
        <time>2018-06-10T10:17:10Z</time>
      </trkpt>
      <trkpt lat="43.43627" lon="1.4612">
        <ele>253</ele>
        <time>2018-06-10T10:17:10Z</time>
      </trkpt>
      <trkpt lat="43.43625" lon="1.46127">
        <ele>252</ele>
        <time>2018-06-10T10:17:10Z</time>
      </trkpt>
      <trkpt lat="43.43624" lon="1.46133">
        <ele>251</ele>
        <time>2018-06-10T10:17:10Z</time>
      </trkpt>
      <trkpt lat="43.43623" lon="1.4614">
        <ele>251</ele>
        <time>2018-06-10T10:17:26Z</time>
      </trkpt>
      <trkpt lat="43.43621" lon="1.46148">
        <ele>251</ele>
        <time>2018-06-10T10:17:26Z</time>
      </trkpt>
      <trkpt lat="43.4362" lon="1.46153">
        <ele>251</ele>
        <time>2018-06-10T10:17:26Z</time>
      </trkpt>
      <trkpt lat="43.43619" lon="1.46159">
        <ele>251</ele>
        <time>2018-06-10T10:17:26Z</time>
      </trkpt>
      <trkpt lat="43.43617" lon="1.46166">
        <ele>251</ele>
        <time>2018-06-10T10:17:42Z</time>
      </trkpt>
      <trkpt lat="43.43616" lon="1.46172">
        <ele>251</ele>
        <time>2018-06-10T10:17:42Z</time>
      </trkpt>
      <trkpt lat="43.43615" lon="1.46177">
        <ele>251</ele>
        <time>2018-06-10T10:17:42Z</time>
      </trkpt>
      <trkpt lat="43.43614" lon="1.46182">
        <ele>251</ele>
        <time>2018-06-10T10:17:42Z</time>
      </trkpt>
      <trkpt lat="43.43612" lon="1.46188">
        <ele>251</ele>
        <time>2018-06-10T10:17:58Z</time>
      </trkpt>
      <trkpt lat="43.4361" lon="1.46194">
        <ele>251</ele>
        <time>2018-06-10T10:17:58Z</time>
      </trkpt>
      <trkpt lat="43.43608" lon="1.46201">
        <ele>251</ele>
        <time>2018-06-10T10:17:58Z</time>
      </trkpt>
      <trkpt lat="43.43607" lon="1.46208">
        <ele>251</ele>
        <time>2018-06-10T10:17:58Z</time>
      </trkpt>
      <trkpt lat="43.43604" lon="1.46215">
        <ele>255</ele>
        <time>2018-06-10T10:18:14Z</time>
      </trkpt>
      <trkpt lat="43.43602" lon="1.46222">
        <ele>255</ele>
        <time>2018-06-10T10:18:14Z</time>
      </trkpt>
      <trkpt lat="43.436" lon="1.46228">
        <ele>255</ele>
        <time>2018-06-10T10:18:14Z</time>
      </trkpt>
      <trkpt lat="43.43599" lon="1.46235">
        <ele>255</ele>
        <time>2018-06-10T10:18:14Z</time>
      </trkpt>
      <trkpt lat="43.43598" lon="1.46241">
        <ele>255</ele>
        <time>2018-06-10T10:18:30Z</time>
      </trkpt>
      <trkpt lat="43.43597" lon="1.46247">
        <ele>255</ele>
        <time>2018-06-10T10:18:30Z</time>
      </trkpt>
      <trkpt lat="43.43596" lon="1.46253">
        <ele>255</ele>
        <time>2018-06-10T10:18:30Z</time>
      </trkpt>
      <trkpt lat="43.43593" lon="1.4626">
        <ele>255</ele>
        <time>2018-06-10T10:18:30Z</time>
      </trkpt>
      <trkpt lat="43.43591" lon="1.46267">
        <ele>255</ele>
        <time>2018-06-10T10:18:46Z</time>
      </trkpt>
      <trkpt lat="43.4359" lon="1.46273">
        <ele>255</ele>
        <time>2018-06-10T10:18:46Z</time>
      </trkpt>
      <trkpt lat="43.43588" lon="1.4628">
        <ele>255</ele>
        <time>2018-06-10T10:18:46Z</time>
      </trkpt>
      <trkpt lat="43.43586" lon="1.46286">
        <ele>255</ele>
        <time>2018-06-10T10:18:46Z</time>
      </trkpt>
      <trkpt lat="43.43585" lon="1.46293">
        <ele>256</ele>
        <time>2018-06-10T10:19:02Z</time>
      </trkpt>
      <trkpt lat="43.43584" lon="1.46299">
        <ele>256</ele>
        <time>2018-06-10T10:19:02Z</time>
      </trkpt>
      <trkpt lat="43.43583" lon="1.46305">
        <ele>256</ele>
        <time>2018-06-10T10:19:02Z</time>
      </trkpt>
      <trkpt lat="43.43582" lon="1.46311">
        <ele>256</ele>
        <time>2018-06-10T10:19:02Z</time>
      </trkpt>
      <trkpt lat="43.4358" lon="1.46318">
        <ele>256</ele>
        <time>2018-06-10T10:19:18Z</time>
      </trkpt>
      <trkpt lat="43.43579" lon="1.46326">
        <ele>256</ele>
        <time>2018-06-10T10:19:18Z</time>
      </trkpt>
      <trkpt lat="43.43578" lon="1.46331">
        <ele>256</ele>
        <time>2018-06-10T10:19:18Z</time>
      </trkpt>
      <trkpt lat="43.43576" lon="1.46338">
        <ele>256</ele>
        <time>2018-06-10T10:19:18Z</time>
      </trkpt>
      <trkpt lat="43.43574" lon="1.46345">
        <ele>256</ele>
        <time>2018-06-10T10:19:34Z</time>
      </trkpt>
      <trkpt lat="43.43573" lon="1.46351">
        <ele>256</ele>
        <time>2018-06-10T10:19:34Z</time>
      </trkpt>
      <trkpt lat="43.43574" lon="1.46359">
        <ele>256</ele>
        <time>2018-06-10T10:19:34Z</time>
      </trkpt>
      <trkpt lat="43.43574" lon="1.46367">
        <ele>256</ele>
        <time>2018-06-10T10:19:34Z</time>
      </trkpt>
      <trkpt lat="43.43573" lon="1.46374">
        <ele>256</ele>
        <time>2018-06-10T10:19:50Z</time>
      </trkpt>
      <trkpt lat="43.43572" lon="1.4638">
        <ele>256</ele>
        <time>2018-06-10T10:19:50Z</time>
      </trkpt>
      <trkpt lat="43.43572" lon="1.46386">
        <ele>256</ele>
        <time>2018-06-10T10:19:50Z</time>
      </trkpt>
      <trkpt lat="43.43572" lon="1.46391">
        <ele>256</ele>
        <time>2018-06-10T10:19:50Z</time>
      </trkpt>
      <trkpt lat="43.43571" lon="1.46397">
        <ele>256</ele>
        <time>2018-06-10T10:20:06Z</time>
      </trkpt>
      <trkpt lat="43.43571" lon="1.46404">
        <ele>256</ele>
        <time>2018-06-10T10:20:06Z</time>
      </trkpt>
      <trkpt lat="43.4357" lon="1.46411">
        <ele>256</ele>
        <time>2018-06-10T10:20:06Z</time>
      </trkpt>
      <trkpt lat="43.43569" lon="1.46417">
        <ele>256</ele>
        <time>2018-06-10T10:20:06Z</time>
      </trkpt>
      <trkpt lat="43.43569" lon="1.46424">
        <ele>256</ele>
        <time>2018-06-10T10:20:22Z</time>
      </trkpt>
      <trkpt lat="43.43568" lon="1.4643">
        <ele>256</ele>
        <time>2018-06-10T10:20:22Z</time>
      </trkpt>
      <trkpt lat="43.43567" lon="1.46435">
        <ele>256</ele>
        <time>2018-06-10T10:20:22Z</time>
      </trkpt>
      <trkpt lat="43.43566" lon="1.46441">
        <ele>256</ele>
        <time>2018-06-10T10:20:22Z</time>
      </trkpt>
      <trkpt lat="43.43566" lon="1.46448">
        <ele>256</ele>
        <time>2018-06-10T10:20:38Z</time>
      </trkpt>
      <trkpt lat="43.43567" lon="1.46454">
        <ele>256</ele>
        <time>2018-06-10T10:20:38Z</time>
      </trkpt>
      <trkpt lat="43.43567" lon="1.46461">
        <ele>256</ele>
        <time>2018-06-10T10:20:38Z</time>
      </trkpt>
      <trkpt lat="43.43564" lon="1.46466">
        <ele>256</ele>
        <time>2018-06-10T10:20:38Z</time>
      </trkpt>
      <trkpt lat="43.43563" lon="1.46473">
        <ele>256</ele>
        <time>2018-06-10T10:20:54Z</time>
      </trkpt>
      <trkpt lat="43.43561" lon="1.46479">
        <ele>256</ele>
        <time>2018-06-10T10:20:54Z</time>
      </trkpt>
      <trkpt lat="43.4356" lon="1.46486">
        <ele>256</ele>
        <time>2018-06-10T10:20:54Z</time>
      </trkpt>
      <trkpt lat="43.4356" lon="1.46494">
        <ele>256</ele>
        <time>2018-06-10T10:20:54Z</time>
      </trkpt>
      <trkpt lat="43.43558" lon="1.46501">
        <ele>256</ele>
        <time>2018-06-10T10:21:10Z</time>
      </trkpt>
      <trkpt lat="43.43557" lon="1.46508">
        <ele>256</ele>
        <time>2018-06-10T10:21:10Z</time>
      </trkpt>
      <trkpt lat="43.43555" lon="1.46517">
        <ele>256</ele>
        <time>2018-06-10T10:21:10Z</time>
      </trkpt>
      <trkpt lat="43.43554" lon="1.46522">
        <ele>256</ele>
        <time>2018-06-10T10:21:10Z</time>
      </trkpt>
      <trkpt lat="43.43553" lon="1.46529">
        <ele>256</ele>
        <time>2018-06-10T10:21:26Z</time>
      </trkpt>
      <trkpt lat="43.43553" lon="1.46536">
        <ele>256</ele>
        <time>2018-06-10T10:21:26Z</time>
      </trkpt>
      <trkpt lat="43.43552" lon="1.46543">
        <ele>254</ele>
        <time>2018-06-10T10:21:26Z</time>
      </trkpt>
      <trkpt lat="43.43551" lon="1.46549">
        <ele>254</ele>
        <time>2018-06-10T10:21:26Z</time>
      </trkpt>
      <trkpt lat="43.4355" lon="1.46555">
        <ele>254</ele>
        <time>2018-06-10T10:21:42Z</time>
      </trkpt>
      <trkpt lat="43.43548" lon="1.46561">
        <ele>254</ele>
        <time>2018-06-10T10:21:42Z</time>
      </trkpt>
      <trkpt lat="43.43547" lon="1.4657">
        <ele>254</ele>
        <time>2018-06-10T10:21:42Z</time>
      </trkpt>
      <trkpt lat="43.43545" lon="1.46575">
        <ele>254</ele>
        <time>2018-06-10T10:21:42Z</time>
      </trkpt>
      <trkpt lat="43.43544" lon="1.46582">
        <ele>254</ele>
        <time>2018-06-10T10:21:58Z</time>
      </trkpt>
      <trkpt lat="43.43543" lon="1.46589">
        <ele>254</ele>
        <time>2018-06-10T10:21:58Z</time>
      </trkpt>
      <trkpt lat="43.4354" lon="1.46596">
        <ele>257</ele>
        <time>2018-06-10T10:21:58Z</time>
      </trkpt>
      <trkpt lat="43.43537" lon="1.46602">
        <ele>257</ele>
        <time>2018-06-10T10:21:58Z</time>
      </trkpt>
      <trkpt lat="43.43536" lon="1.46608">
        <ele>257</ele>
        <time>2018-06-10T10:22:14Z</time>
      </trkpt>
      <trkpt lat="43.43532" lon="1.46616">
        <ele>257</ele>
        <time>2018-06-10T10:22:14Z</time>
      </trkpt>
      <trkpt lat="43.43531" lon="1.46621">
        <ele>257</ele>
        <time>2018-06-10T10:22:14Z</time>
      </trkpt>
      <trkpt lat="43.43529" lon="1.46626">
        <ele>259</ele>
        <time>2018-06-10T10:22:14Z</time>
      </trkpt>
      <trkpt lat="43.43526" lon="1.46633">
        <ele>259</ele>
        <time>2018-06-10T10:22:30Z</time>
      </trkpt>
      <trkpt lat="43.43523" lon="1.46639">
        <ele>259</ele>
        <time>2018-06-10T10:22:30Z</time>
      </trkpt>
      <trkpt lat="43.43521" lon="1.46644">
        <ele>259</ele>
        <time>2018-06-10T10:22:30Z</time>
      </trkpt>
      <trkpt lat="43.43519" lon="1.46651">
        <ele>259</ele>
        <time>2018-06-10T10:22:30Z</time>
      </trkpt>
      <trkpt lat="43.43517" lon="1.46658">
        <ele>259</ele>
        <time>2018-06-10T10:22:46Z</time>
      </trkpt>
      <trkpt lat="43.43515" lon="1.46664">
        <ele>259</ele>
        <time>2018-06-10T10:22:46Z</time>
      </trkpt>
      <trkpt lat="43.43513" lon="1.46671">
        <ele>259</ele>
        <time>2018-06-10T10:22:46Z</time>
      </trkpt>
      <trkpt lat="43.43512" lon="1.46677">
        <ele>259</ele>
        <time>2018-06-10T10:22:46Z</time>
      </trkpt>
      <trkpt lat="43.4351" lon="1.46682">
        <ele>259</ele>
        <time>2018-06-10T10:23:02Z</time>
      </trkpt>
      <trkpt lat="43.43508" lon="1.46688">
        <ele>259</ele>
        <time>2018-06-10T10:23:02Z</time>
      </trkpt>
      <trkpt lat="43.43506" lon="1.46694">
        <ele>259</ele>
        <time>2018-06-10T10:23:02Z</time>
      </trkpt>
      <trkpt lat="43.43504" lon="1.46701">
        <ele>259</ele>
        <time>2018-06-10T10:23:02Z</time>
      </trkpt>
      <trkpt lat="43.43498" lon="1.46716">
        <ele>258</ele>
        <time>2018-06-10T10:23:34Z</time>
      </trkpt>
      <trkpt lat="43.43497" lon="1.46723">
        <ele>258</ele>
        <time>2018-06-10T10:23:34Z</time>
      </trkpt>
      <trkpt lat="43.43495" lon="1.4673">
        <ele>258</ele>
        <time>2018-06-10T10:23:34Z</time>
      </trkpt>
      <trkpt lat="43.43493" lon="1.46737">
        <ele>258</ele>
        <time>2018-06-10T10:23:34Z</time>
      </trkpt>
      <trkpt lat="43.43491" lon="1.46744">
        <ele>258</ele>
        <time>2018-06-10T10:23:34Z</time>
      </trkpt>
      <trkpt lat="43.4349" lon="1.4675">
        <ele>258</ele>
        <time>2018-06-10T10:23:50Z</time>
      </trkpt>
      <trkpt lat="43.4349" lon="1.46756">
        <ele>258</ele>
        <time>2018-06-10T10:23:50Z</time>
      </trkpt>
      <trkpt lat="43.43488" lon="1.46762">
        <ele>258</ele>
        <time>2018-06-10T10:23:50Z</time>
      </trkpt>
      <trkpt lat="43.43487" lon="1.46768">
        <ele>258</ele>
        <time>2018-06-10T10:23:50Z</time>
      </trkpt>
      <trkpt lat="43.43485" lon="1.46774">
        <ele>258</ele>
        <time>2018-06-10T10:24:06Z</time>
      </trkpt>
      <trkpt lat="43.43483" lon="1.4678">
        <ele>258</ele>
        <time>2018-06-10T10:24:06Z</time>
      </trkpt>
      <trkpt lat="43.43482" lon="1.46786">
        <ele>258</ele>
        <time>2018-06-10T10:24:06Z</time>
      </trkpt>
      <trkpt lat="43.4348" lon="1.46793">
        <ele>256</ele>
        <time>2018-06-10T10:24:06Z</time>
      </trkpt>
      <trkpt lat="43.43479" lon="1.46798">
        <ele>256</ele>
        <time>2018-06-10T10:24:22Z</time>
      </trkpt>
      <trkpt lat="43.43478" lon="1.46805">
        <ele>256</ele>
        <time>2018-06-10T10:24:22Z</time>
      </trkpt>
      <trkpt lat="43.43476" lon="1.46812">
        <ele>256</ele>
        <time>2018-06-10T10:24:22Z</time>
      </trkpt>
      <trkpt lat="43.43475" lon="1.46819">
        <ele>256</ele>
        <time>2018-06-10T10:24:22Z</time>
      </trkpt>
      <trkpt lat="43.43468" lon="1.46832">
        <ele>256</ele>
        <time>2018-06-10T10:25:10Z</time>
      </trkpt>
      <trkpt lat="43.43468" lon="1.46832">
        <ele>256</ele>
        <time>2018-06-10T10:25:10Z</time>
      </trkpt>
      <trkpt lat="43.43468" lon="1.46832">
        <ele>256</ele>
        <time>2018-06-10T10:25:10Z</time>
      </trkpt>
      <trkpt lat="43.43468" lon="1.46834">
        <ele>256</ele>
        <time>2018-06-10T10:25:10Z</time>
      </trkpt>
      <trkpt lat="43.43467" lon="1.46835">
        <ele>256</ele>
        <time>2018-06-10T10:25:10Z</time>
      </trkpt>
      <trkpt lat="43.43466" lon="1.46835">
        <ele>256</ele>
        <time>2018-06-10T10:25:30Z</time>
      </trkpt>
      <trkpt lat="43.43466" lon="1.46835">
        <ele>256</ele>
        <time>2018-06-10T10:25:30Z</time>
      </trkpt>
      <trkpt lat="43.43465" lon="1.46837">
        <ele>256</ele>
        <time>2018-06-10T10:25:30Z</time>
      </trkpt>
      <trkpt lat="43.43461" lon="1.4684">
        <ele>256</ele>
        <time>2018-06-10T10:25:30Z</time>
      </trkpt>
      <trkpt lat="43.43457" lon="1.46841">
        <ele>251</ele>
        <time>2018-06-10T10:25:30Z</time>
      </trkpt>
      <trkpt lat="43.43453" lon="1.46842">
        <ele>251</ele>
        <time>2018-06-10T10:25:46Z</time>
      </trkpt>
      <trkpt lat="43.43449" lon="1.46845">
        <ele>251</ele>
        <time>2018-06-10T10:25:46Z</time>
      </trkpt>
      <trkpt lat="43.43447" lon="1.4685">
        <ele>251</ele>
        <time>2018-06-10T10:25:46Z</time>
      </trkpt>
      <trkpt lat="43.43448" lon="1.46855">
        <ele>251</ele>
        <time>2018-06-10T10:25:46Z</time>
      </trkpt>
      <trkpt lat="43.4345" lon="1.46862">
        <ele>251</ele>
        <time>2018-06-10T10:26:02Z</time>
      </trkpt>
      <trkpt lat="43.43451" lon="1.46867">
        <ele>251</ele>
        <time>2018-06-10T10:26:02Z</time>
      </trkpt>
      <trkpt lat="43.43452" lon="1.46872">
        <ele>251</ele>
        <time>2018-06-10T10:26:02Z</time>
      </trkpt>
      <trkpt lat="43.43453" lon="1.46878">
        <ele>253</ele>
        <time>2018-06-10T10:26:02Z</time>
      </trkpt>
      <trkpt lat="43.43454" lon="1.46884">
        <ele>253</ele>
        <time>2018-06-10T10:26:18Z</time>
      </trkpt>
      <trkpt lat="43.43455" lon="1.46891">
        <ele>253</ele>
        <time>2018-06-10T10:26:18Z</time>
      </trkpt>
      <trkpt lat="43.43456" lon="1.46896">
        <ele>253</ele>
        <time>2018-06-10T10:26:18Z</time>
      </trkpt>
      <trkpt lat="43.43457" lon="1.46902">
        <ele>253</ele>
        <time>2018-06-10T10:26:18Z</time>
      </trkpt>
      <trkpt lat="43.43458" lon="1.4691">
        <ele>253</ele>
        <time>2018-06-10T10:26:34Z</time>
      </trkpt>
      <trkpt lat="43.43458" lon="1.46915">
        <ele>253</ele>
        <time>2018-06-10T10:26:34Z</time>
      </trkpt>
      <trkpt lat="43.43458" lon="1.46923">
        <ele>253</ele>
        <time>2018-06-10T10:26:34Z</time>
      </trkpt>
      <trkpt lat="43.43458" lon="1.46927">
        <ele>253</ele>
        <time>2018-06-10T10:26:34Z</time>
      </trkpt>
      <trkpt lat="43.43459" lon="1.46934">
        <ele>256</ele>
        <time>2018-06-10T10:26:50Z</time>
      </trkpt>
      <trkpt lat="43.43458" lon="1.46941">
        <ele>256</ele>
        <time>2018-06-10T10:26:50Z</time>
      </trkpt>
      <trkpt lat="43.43459" lon="1.46947">
        <ele>256</ele>
        <time>2018-06-10T10:26:50Z</time>
      </trkpt>
      <trkpt lat="43.43459" lon="1.46953">
        <ele>256</ele>
        <time>2018-06-10T10:26:50Z</time>
      </trkpt>
      <trkpt lat="43.4346" lon="1.46961">
        <ele>253</ele>
        <time>2018-06-10T10:27:06Z</time>
      </trkpt>
      <trkpt lat="43.4346" lon="1.46966">
        <ele>253</ele>
        <time>2018-06-10T10:27:06Z</time>
      </trkpt>
      <trkpt lat="43.43461" lon="1.46974">
        <ele>253</ele>
        <time>2018-06-10T10:27:06Z</time>
      </trkpt>
      <trkpt lat="43.43461" lon="1.46979">
        <ele>253</ele>
        <time>2018-06-10T10:27:06Z</time>
      </trkpt>
      <trkpt lat="43.43462" lon="1.46986">
        <ele>253</ele>
        <time>2018-06-10T10:27:22Z</time>
      </trkpt>
      <trkpt lat="43.43463" lon="1.46994">
        <ele>253</ele>
        <time>2018-06-10T10:27:22Z</time>
      </trkpt>
      <trkpt lat="43.43463" lon="1.46999">
        <ele>253</ele>
        <time>2018-06-10T10:27:22Z</time>
      </trkpt>
      <trkpt lat="43.43464" lon="1.47006">
        <ele>253</ele>
        <time>2018-06-10T10:27:22Z</time>
      </trkpt>
      <trkpt lat="43.43462" lon="1.47013">
        <ele>253</ele>
        <time>2018-06-10T10:27:39Z</time>
      </trkpt>
      <trkpt lat="43.4346" lon="1.47018">
        <ele>253</ele>
        <time>2018-06-10T10:27:39Z</time>
      </trkpt>
      <trkpt lat="43.43458" lon="1.47024">
        <ele>254</ele>
        <time>2018-06-10T10:27:39Z</time>
      </trkpt>
      <trkpt lat="43.43455" lon="1.4703">
        <ele>254</ele>
        <time>2018-06-10T10:27:39Z</time>
      </trkpt>
      <trkpt lat="43.43455" lon="1.47032">
        <ele>254</ele>
        <time>2018-06-10T10:27:54Z</time>
      </trkpt>
      <trkpt lat="43.43453" lon="1.47037">
        <ele>254</ele>
        <time>2018-06-10T10:27:54Z</time>
      </trkpt>
      <trkpt lat="43.4345" lon="1.47041">
        <ele>254</ele>
        <time>2018-06-10T10:27:54Z</time>
      </trkpt>
      <trkpt lat="43.43448" lon="1.47047">
        <ele>257</ele>
        <time>2018-06-10T10:27:54Z</time>
      </trkpt>
      <trkpt lat="43.43445" lon="1.47053">
        <ele>257</ele>
        <time>2018-06-10T10:28:11Z</time>
      </trkpt>
      <trkpt lat="43.43443" lon="1.47057">
        <ele>257</ele>
        <time>2018-06-10T10:28:11Z</time>
      </trkpt>
      <trkpt lat="43.43441" lon="1.47062">
        <ele>257</ele>
        <time>2018-06-10T10:28:11Z</time>
      </trkpt>
      <trkpt lat="43.43437" lon="1.47068">
        <ele>257</ele>
        <time>2018-06-10T10:28:11Z</time>
      </trkpt>
      <trkpt lat="43.43435" lon="1.47071">
        <ele>257</ele>
        <time>2018-06-10T10:28:26Z</time>
      </trkpt>
      <trkpt lat="43.43432" lon="1.47074">
        <ele>257</ele>
        <time>2018-06-10T10:28:26Z</time>
      </trkpt>
      <trkpt lat="43.43426" lon="1.47081">
        <ele>257</ele>
        <time>2018-06-10T10:28:26Z</time>
      </trkpt>
      <trkpt lat="43.43424" lon="1.47085">
        <ele>257</ele>
        <time>2018-06-10T10:28:26Z</time>
      </trkpt>
      <trkpt lat="43.43419" lon="1.47092">
        <ele>257</ele>
        <time>2018-06-10T10:28:43Z</time>
      </trkpt>
      <trkpt lat="43.43416" lon="1.47097">
        <ele>257</ele>
        <time>2018-06-10T10:28:43Z</time>
      </trkpt>
      <trkpt lat="43.4341" lon="1.47102">
        <ele>257</ele>
        <time>2018-06-10T10:28:43Z</time>
      </trkpt>
      <trkpt lat="43.43404" lon="1.47108">
        <ele>257</ele>
        <time>2018-06-10T10:28:43Z</time>
      </trkpt>
      <trkpt lat="43.43401" lon="1.47111">
        <ele>257</ele>
        <time>2018-06-10T10:28:58Z</time>
      </trkpt>
      <trkpt lat="43.43397" lon="1.47116">
        <ele>257</ele>
        <time>2018-06-10T10:28:58Z</time>
      </trkpt>
      <trkpt lat="43.43392" lon="1.47122">
        <ele>257</ele>
        <time>2018-06-10T10:28:58Z</time>
      </trkpt>
      <trkpt lat="43.43389" lon="1.47127">
        <ele>259</ele>
        <time>2018-06-10T10:28:58Z</time>
      </trkpt>
      <trkpt lat="43.43385" lon="1.47132">
        <ele>259</ele>
        <time>2018-06-10T10:29:15Z</time>
      </trkpt>
      <trkpt lat="43.43381" lon="1.47138">
        <ele>259</ele>
        <time>2018-06-10T10:29:15Z</time>
      </trkpt>
      <trkpt lat="43.43378" lon="1.47141">
        <ele>259</ele>
        <time>2018-06-10T10:29:15Z</time>
      </trkpt>
      <trkpt lat="43.43373" lon="1.47147">
        <ele>259</ele>
        <time>2018-06-10T10:29:15Z</time>
      </trkpt>
      <trkpt lat="43.43371" lon="1.4715">
        <ele>259</ele>
        <time>2018-06-10T10:29:30Z</time>
      </trkpt>
      <trkpt lat="43.43368" lon="1.47154">
        <ele>259</ele>
        <time>2018-06-10T10:29:30Z</time>
      </trkpt>
      <trkpt lat="43.43366" lon="1.47157">
        <ele>259</ele>
        <time>2018-06-10T10:29:30Z</time>
      </trkpt>
      <trkpt lat="43.43364" lon="1.47161">
        <ele>259</ele>
        <time>2018-06-10T10:29:30Z</time>
      </trkpt>
      <trkpt lat="43.43361" lon="1.47165">
        <ele>259</ele>
        <time>2018-06-10T10:29:46Z</time>
      </trkpt>
      <trkpt lat="43.43359" lon="1.4717">
        <ele>259</ele>
        <time>2018-06-10T10:29:46Z</time>
      </trkpt>
      <trkpt lat="43.43357" lon="1.47173">
        <ele>259</ele>
        <time>2018-06-10T10:29:46Z</time>
      </trkpt>
      <trkpt lat="43.43353" lon="1.47178">
        <ele>259</ele>
        <time>2018-06-10T10:29:46Z</time>
      </trkpt>
      <trkpt lat="43.4335" lon="1.47183">
        <ele>259</ele>
        <time>2018-06-10T10:30:02Z</time>
      </trkpt>
      <trkpt lat="43.43348" lon="1.47187">
        <ele>259</ele>
        <time>2018-06-10T10:30:02Z</time>
      </trkpt>
      <trkpt lat="43.43345" lon="1.47193">
        <ele>259</ele>
        <time>2018-06-10T10:30:02Z</time>
      </trkpt>
      <trkpt lat="43.43342" lon="1.47199">
        <ele>259</ele>
        <time>2018-06-10T10:30:02Z</time>
      </trkpt>
      <trkpt lat="43.43337" lon="1.47203">
        <ele>259</ele>
        <time>2018-06-10T10:30:19Z</time>
      </trkpt>
      <trkpt lat="43.43334" lon="1.4721">
        <ele>260</ele>
        <time>2018-06-10T10:30:19Z</time>
      </trkpt>
      <trkpt lat="43.4333" lon="1.47217">
        <ele>260</ele>
        <time>2018-06-10T10:30:19Z</time>
      </trkpt>
      <trkpt lat="43.43324" lon="1.47224">
        <ele>260</ele>
        <time>2018-06-10T10:30:19Z</time>
      </trkpt>
      <trkpt lat="43.43321" lon="1.47228">
        <ele>260</ele>
        <time>2018-06-10T10:30:34Z</time>
      </trkpt>
      <trkpt lat="43.43317" lon="1.47233">
        <ele>260</ele>
        <time>2018-06-10T10:30:34Z</time>
      </trkpt>
      <trkpt lat="43.43315" lon="1.47236">
        <ele>260</ele>
        <time>2018-06-10T10:30:34Z</time>
      </trkpt>
      <trkpt lat="43.43311" lon="1.4724">
        <ele>260</ele>
        <time>2018-06-10T10:30:34Z</time>
      </trkpt>
      <trkpt lat="43.43306" lon="1.47246">
        <ele>260</ele>
        <time>2018-06-10T10:30:50Z</time>
      </trkpt>
      <trkpt lat="43.43303" lon="1.4725">
        <ele>260</ele>
        <time>2018-06-10T10:30:50Z</time>
      </trkpt>
      <trkpt lat="43.43299" lon="1.47255">
        <ele>260</ele>
        <time>2018-06-10T10:30:50Z</time>
      </trkpt>
      <trkpt lat="43.43295" lon="1.47261">
        <ele>260</ele>
        <time>2018-06-10T10:30:50Z</time>
      </trkpt>
      <trkpt lat="43.43291" lon="1.47266">
        <ele>259</ele>
        <time>2018-06-10T10:31:06Z</time>
      </trkpt>
      <trkpt lat="43.43287" lon="1.47271">
        <ele>259</ele>
        <time>2018-06-10T10:31:06Z</time>
      </trkpt>
      <trkpt lat="43.43284" lon="1.47275">
        <ele>259</ele>
        <time>2018-06-10T10:31:06Z</time>
      </trkpt>
      <trkpt lat="43.43281" lon="1.4728">
        <ele>259</ele>
        <time>2018-06-10T10:31:06Z</time>
      </trkpt>
      <trkpt lat="43.43278" lon="1.47283">
        <ele>259</ele>
        <time>2018-06-10T10:31:22Z</time>
      </trkpt>
      <trkpt lat="43.43276" lon="1.47289">
        <ele>259</ele>
        <time>2018-06-10T10:31:22Z</time>
      </trkpt>
      <trkpt lat="43.43274" lon="1.47293">
        <ele>260</ele>
        <time>2018-06-10T10:31:22Z</time>
      </trkpt>
      <trkpt lat="43.4327" lon="1.47298">
        <ele>260</ele>
        <time>2018-06-10T10:31:22Z</time>
      </trkpt>
      <trkpt lat="43.43266" lon="1.47303">
        <ele>260</ele>
        <time>2018-06-10T10:31:38Z</time>
      </trkpt>
      <trkpt lat="43.43261" lon="1.47309">
        <ele>260</ele>
        <time>2018-06-10T10:31:38Z</time>
      </trkpt>
      <trkpt lat="43.43257" lon="1.47312">
        <ele>260</ele>
        <time>2018-06-10T10:31:38Z</time>
      </trkpt>
      <trkpt lat="43.43254" lon="1.47316">
        <ele>260</ele>
        <time>2018-06-10T10:31:38Z</time>
      </trkpt>
      <trkpt lat="43.43249" lon="1.4732">
        <ele>260</ele>
        <time>2018-06-10T10:31:55Z</time>
      </trkpt>
      <trkpt lat="43.43246" lon="1.47321">
        <ele>260</ele>
        <time>2018-06-10T10:31:55Z</time>
      </trkpt>
      <trkpt lat="43.43241" lon="1.47325">
        <ele>260</ele>
        <time>2018-06-10T10:31:55Z</time>
      </trkpt>
      <trkpt lat="43.43234" lon="1.47328">
        <ele>260</ele>
        <time>2018-06-10T10:31:55Z</time>
      </trkpt>
      <trkpt lat="43.4323" lon="1.4733">
        <ele>260</ele>
        <time>2018-06-10T10:32:10Z</time>
      </trkpt>
      <trkpt lat="43.43227" lon="1.47333">
        <ele>260</ele>
        <time>2018-06-10T10:32:10Z</time>
      </trkpt>
      <trkpt lat="43.43223" lon="1.47335">
        <ele>260</ele>
        <time>2018-06-10T10:32:10Z</time>
      </trkpt>
      <trkpt lat="43.43218" lon="1.47336">
        <ele>260</ele>
        <time>2018-06-10T10:32:10Z</time>
      </trkpt>
      <trkpt lat="43.43213" lon="1.47339">
        <ele>260</ele>
        <time>2018-06-10T10:32:26Z</time>
      </trkpt>
      <trkpt lat="43.43206" lon="1.47344">
        <ele>258</ele>
        <time>2018-06-10T10:32:26Z</time>
      </trkpt>
      <trkpt lat="43.43203" lon="1.47346">
        <ele>258</ele>
        <time>2018-06-10T10:32:26Z</time>
      </trkpt>
      <trkpt lat="43.43198" lon="1.47349">
        <ele>258</ele>
        <time>2018-06-10T10:32:26Z</time>
      </trkpt>
      <trkpt lat="43.43191" lon="1.47352">
        <ele>258</ele>
        <time>2018-06-10T10:32:42Z</time>
      </trkpt>
      <trkpt lat="43.43187" lon="1.47354">
        <ele>258</ele>
        <time>2018-06-10T10:32:42Z</time>
      </trkpt>
      <trkpt lat="43.43182" lon="1.47358">
        <ele>258</ele>
        <time>2018-06-10T10:32:42Z</time>
      </trkpt>
      <trkpt lat="43.43179" lon="1.47361">
        <ele>258</ele>
        <time>2018-06-10T10:32:42Z</time>
      </trkpt>
      <trkpt lat="43.43174" lon="1.47362">
        <ele>258</ele>
        <time>2018-06-10T10:32:58Z</time>
      </trkpt>
      <trkpt lat="43.43169" lon="1.47364">
        <ele>258</ele>
        <time>2018-06-10T10:32:58Z</time>
      </trkpt>
      <trkpt lat="43.43166" lon="1.47367">
        <ele>258</ele>
        <time>2018-06-10T10:32:58Z</time>
      </trkpt>
      <trkpt lat="43.43162" lon="1.47369">
        <ele>258</ele>
        <time>2018-06-10T10:32:58Z</time>
      </trkpt>
      <trkpt lat="43.43156" lon="1.47372">
        <ele>258</ele>
        <time>2018-06-10T10:33:15Z</time>
      </trkpt>
      <trkpt lat="43.43152" lon="1.47375">
        <ele>258</ele>
        <time>2018-06-10T10:33:15Z</time>
      </trkpt>
      <trkpt lat="43.43147" lon="1.47377">
        <ele>259</ele>
        <time>2018-06-10T10:33:15Z</time>
      </trkpt>
      <trkpt lat="43.4314" lon="1.47381">
        <ele>259</ele>
        <time>2018-06-10T10:33:15Z</time>
      </trkpt>
      <trkpt lat="43.43137" lon="1.47382">
        <ele>259</ele>
        <time>2018-06-10T10:33:30Z</time>
      </trkpt>
      <trkpt lat="43.43132" lon="1.47384">
        <ele>259</ele>
        <time>2018-06-10T10:33:30Z</time>
      </trkpt>
      <trkpt lat="43.4313" lon="1.47385">
        <ele>259</ele>
        <time>2018-06-10T10:33:30Z</time>
      </trkpt>
      <trkpt lat="43.43126" lon="1.47385">
        <ele>259</ele>
        <time>2018-06-10T10:33:30Z</time>
      </trkpt>
      <trkpt lat="43.43123" lon="1.47389">
        <ele>252</ele>
        <time>2018-06-10T10:33:46Z</time>
      </trkpt>
      <trkpt lat="43.4312" lon="1.47392">
        <ele>252</ele>
        <time>2018-06-10T10:33:46Z</time>
      </trkpt>
      <trkpt lat="43.43117" lon="1.47395">
        <ele>252</ele>
        <time>2018-06-10T10:33:46Z</time>
      </trkpt>
      <trkpt lat="43.43114" lon="1.47401">
        <ele>252</ele>
        <time>2018-06-10T10:33:46Z</time>
      </trkpt>
      <trkpt lat="43.43111" lon="1.47404">
        <ele>252</ele>
        <time>2018-06-10T10:34:02Z</time>
      </trkpt>
      <trkpt lat="43.43106" lon="1.47408">
        <ele>252</ele>
        <time>2018-06-10T10:34:02Z</time>
      </trkpt>
      <trkpt lat="43.43101" lon="1.47415">
        <ele>252</ele>
        <time>2018-06-10T10:34:02Z</time>
      </trkpt>
      <trkpt lat="43.43096" lon="1.47418">
        <ele>252</ele>
        <time>2018-06-10T10:34:02Z</time>
      </trkpt>
      <trkpt lat="43.4309" lon="1.47424">
        <ele>252</ele>
        <time>2018-06-10T10:34:19Z</time>
      </trkpt>
      <trkpt lat="43.43087" lon="1.47428">
        <ele>252</ele>
        <time>2018-06-10T10:34:19Z</time>
      </trkpt>
      <trkpt lat="43.43083" lon="1.47433">
        <ele>252</ele>
        <time>2018-06-10T10:34:19Z</time>
      </trkpt>
      <trkpt lat="43.43079" lon="1.47442">
        <ele>252</ele>
        <time>2018-06-10T10:34:19Z</time>
      </trkpt>
      <trkpt lat="43.43076" lon="1.47447">
        <ele>252</ele>
        <time>2018-06-10T10:34:34Z</time>
      </trkpt>
      <trkpt lat="43.43072" lon="1.47452">
        <ele>252</ele>
        <time>2018-06-10T10:34:34Z</time>
      </trkpt>
      <trkpt lat="43.43068" lon="1.47459">
        <ele>254</ele>
        <time>2018-06-10T10:34:34Z</time>
      </trkpt>
      <trkpt lat="43.43066" lon="1.47462">
        <ele>254</ele>
        <time>2018-06-10T10:34:34Z</time>
      </trkpt>
      <trkpt lat="43.43062" lon="1.47466">
        <ele>254</ele>
        <time>2018-06-10T10:34:50Z</time>
      </trkpt>
      <trkpt lat="43.43057" lon="1.47469">
        <ele>254</ele>
        <time>2018-06-10T10:34:50Z</time>
      </trkpt>
      <trkpt lat="43.43054" lon="1.47472">
        <ele>254</ele>
        <time>2018-06-10T10:34:50Z</time>
      </trkpt>
      <trkpt lat="43.4305" lon="1.47475">
        <ele>254</ele>
        <time>2018-06-10T10:34:50Z</time>
      </trkpt>
      <trkpt lat="43.43044" lon="1.4748">
        <ele>254</ele>
        <time>2018-06-10T10:35:06Z</time>
      </trkpt>
      <trkpt lat="43.43041" lon="1.47484">
        <ele>254</ele>
        <time>2018-06-10T10:35:06Z</time>
      </trkpt>
      <trkpt lat="43.43036" lon="1.47486">
        <ele>254</ele>
        <time>2018-06-10T10:35:06Z</time>
      </trkpt>
      <trkpt lat="43.43031" lon="1.47488">
        <ele>254</ele>
        <time>2018-06-10T10:35:06Z</time>
      </trkpt>
      <trkpt lat="43.43027" lon="1.47489">
        <ele>254</ele>
        <time>2018-06-10T10:35:22Z</time>
      </trkpt>
      <trkpt lat="43.43023" lon="1.47491">
        <ele>254</ele>
        <time>2018-06-10T10:35:22Z</time>
      </trkpt>
      <trkpt lat="43.43017" lon="1.47492">
        <ele>254</ele>
        <time>2018-06-10T10:35:22Z</time>
      </trkpt>
      <trkpt lat="43.43014" lon="1.47495">
        <ele>254</ele>
        <time>2018-06-10T10:35:22Z</time>
      </trkpt>
      <trkpt lat="43.43013" lon="1.47499">
        <ele>254</ele>
        <time>2018-06-10T10:35:39Z</time>
      </trkpt>
      <trkpt lat="43.4301" lon="1.47501">
        <ele>254</ele>
        <time>2018-06-10T10:35:39Z</time>
      </trkpt>
      <trkpt lat="43.43004" lon="1.47502">
        <ele>254</ele>
        <time>2018-06-10T10:35:39Z</time>
      </trkpt>
      <trkpt lat="43.42996" lon="1.47505">
        <ele>254</ele>
        <time>2018-06-10T10:35:39Z</time>
      </trkpt>
      <trkpt lat="43.42991" lon="1.47507">
        <ele>254</ele>
        <time>2018-06-10T10:35:54Z</time>
      </trkpt>
      <trkpt lat="43.42986" lon="1.47508">
        <ele>254</ele>
        <time>2018-06-10T10:35:54Z</time>
      </trkpt>
      <trkpt lat="43.42979" lon="1.47511">
        <ele>254</ele>
        <time>2018-06-10T10:35:54Z</time>
      </trkpt>
      <trkpt lat="43.42976" lon="1.47512">
        <ele>254</ele>
        <time>2018-06-10T10:35:54Z</time>
      </trkpt>
      <trkpt lat="43.42971" lon="1.47515">
        <ele>254</ele>
        <time>2018-06-10T10:36:11Z</time>
      </trkpt>
      <trkpt lat="43.42967" lon="1.47517">
        <ele>254</ele>
        <time>2018-06-10T10:36:11Z</time>
      </trkpt>
      <trkpt lat="43.4296" lon="1.47519">
        <ele>254</ele>
        <time>2018-06-10T10:36:11Z</time>
      </trkpt>
      <trkpt lat="43.42954" lon="1.47521">
        <ele>251</ele>
        <time>2018-06-10T10:36:11Z</time>
      </trkpt>
      <trkpt lat="43.42951" lon="1.47522">
        <ele>251</ele>
        <time>2018-06-10T10:36:26Z</time>
      </trkpt>
      <trkpt lat="43.42947" lon="1.47525">
        <ele>251</ele>
        <time>2018-06-10T10:36:26Z</time>
      </trkpt>
      <trkpt lat="43.4294" lon="1.47528">
        <ele>251</ele>
        <time>2018-06-10T10:36:26Z</time>
      </trkpt>
      <trkpt lat="43.42936" lon="1.4753">
        <ele>251</ele>
        <time>2018-06-10T10:36:26Z</time>
      </trkpt>
      <trkpt lat="43.42932" lon="1.47532">
        <ele>251</ele>
        <time>2018-06-10T10:36:43Z</time>
      </trkpt>
      <trkpt lat="43.42926" lon="1.47534">
        <ele>251</ele>
        <time>2018-06-10T10:36:43Z</time>
      </trkpt>
      <trkpt lat="43.42922" lon="1.47536">
        <ele>251</ele>
        <time>2018-06-10T10:36:43Z</time>
      </trkpt>
      <trkpt lat="43.42917" lon="1.47538">
        <ele>251</ele>
        <time>2018-06-10T10:36:43Z</time>
      </trkpt>
      <trkpt lat="43.42914" lon="1.47539">
        <ele>251</ele>
        <time>2018-06-10T10:36:58Z</time>
      </trkpt>
      <trkpt lat="43.4291" lon="1.47542">
        <ele>251</ele>
        <time>2018-06-10T10:36:58Z</time>
      </trkpt>
      <trkpt lat="43.42903" lon="1.47546">
        <ele>251</ele>
        <time>2018-06-10T10:36:58Z</time>
      </trkpt>
      <trkpt lat="43.42898" lon="1.47548">
        <ele>251</ele>
        <time>2018-06-10T10:36:58Z</time>
      </trkpt>
      <trkpt lat="43.42893" lon="1.47551">
        <ele>251</ele>
        <time>2018-06-10T10:37:14Z</time>
      </trkpt>
      <trkpt lat="43.42885" lon="1.47554">
        <ele>251</ele>
        <time>2018-06-10T10:37:14Z</time>
      </trkpt>
      <trkpt lat="43.42882" lon="1.47556">
        <ele>251</ele>
        <time>2018-06-10T10:37:14Z</time>
      </trkpt>
      <trkpt lat="43.42877" lon="1.47558">
        <ele>251</ele>
        <time>2018-06-10T10:37:14Z</time>
      </trkpt>
      <trkpt lat="43.42871" lon="1.4756">
        <ele>252</ele>
        <time>2018-06-10T10:37:30Z</time>
      </trkpt>
      <trkpt lat="43.42867" lon="1.47561">
        <ele>252</ele>
        <time>2018-06-10T10:37:30Z</time>
      </trkpt>
      <trkpt lat="43.42861" lon="1.47564">
        <ele>252</ele>
        <time>2018-06-10T10:37:30Z</time>
      </trkpt>
      <trkpt lat="43.42857" lon="1.47566">
        <ele>252</ele>
        <time>2018-06-10T10:37:30Z</time>
      </trkpt>
      <trkpt lat="43.42851" lon="1.47568">
        <ele>252</ele>
        <time>2018-06-10T10:37:46Z</time>
      </trkpt>
      <trkpt lat="43.42844" lon="1.47572">
        <ele>252</ele>
        <time>2018-06-10T10:37:46Z</time>
      </trkpt>
      <trkpt lat="43.4284" lon="1.47574">
        <ele>252</ele>
        <time>2018-06-10T10:37:46Z</time>
      </trkpt>
      <trkpt lat="43.42835" lon="1.47572">
        <ele>252</ele>
        <time>2018-06-10T10:37:46Z</time>
      </trkpt>
      <trkpt lat="43.42828" lon="1.47571">
        <ele>252</ele>
        <time>2018-06-10T10:38:03Z</time>
      </trkpt>
      <trkpt lat="43.42825" lon="1.47571">
        <ele>252</ele>
        <time>2018-06-10T10:38:03Z</time>
      </trkpt>
      <trkpt lat="43.42821" lon="1.4757">
        <ele>252</ele>
        <time>2018-06-10T10:38:03Z</time>
      </trkpt>
      <trkpt lat="43.42817" lon="1.47569">
        <ele>252</ele>
        <time>2018-06-10T10:38:03Z</time>
      </trkpt>
      <trkpt lat="43.42815" lon="1.47569">
        <ele>252</ele>
        <time>2018-06-10T10:38:18Z</time>
      </trkpt>
      <trkpt lat="43.42811" lon="1.47569">
        <ele>252</ele>
        <time>2018-06-10T10:38:18Z</time>
      </trkpt>
      <trkpt lat="43.42807" lon="1.47568">
        <ele>252</ele>
        <time>2018-06-10T10:38:18Z</time>
      </trkpt>
      <trkpt lat="43.42803" lon="1.47566">
        <ele>252</ele>
        <time>2018-06-10T10:38:18Z</time>
      </trkpt>
      <trkpt lat="43.42802" lon="1.47565">
        <ele>252</ele>
        <time>2018-06-10T10:38:35Z</time>
      </trkpt>
      <trkpt lat="43.42802" lon="1.47564">
        <ele>252</ele>
        <time>2018-06-10T10:38:35Z</time>
      </trkpt>
      <trkpt lat="43.42799" lon="1.47564">
        <ele>252</ele>
        <time>2018-06-10T10:38:35Z</time>
      </trkpt>
      <trkpt lat="43.42792" lon="1.47564">
        <ele>252</ele>
        <time>2018-06-10T10:38:35Z</time>
      </trkpt>
      <trkpt lat="43.42789" lon="1.47563">
        <ele>255</ele>
        <time>2018-06-10T10:38:50Z</time>
      </trkpt>
      <trkpt lat="43.42785" lon="1.47562">
        <ele>255</ele>
        <time>2018-06-10T10:38:50Z</time>
      </trkpt>
      <trkpt lat="43.42781" lon="1.47559">
        <ele>255</ele>
        <time>2018-06-10T10:38:50Z</time>
      </trkpt>
      <trkpt lat="43.42776" lon="1.47556">
        <ele>255</ele>
        <time>2018-06-10T10:38:50Z</time>
      </trkpt>
      <trkpt lat="43.42772" lon="1.47554">
        <ele>255</ele>
        <time>2018-06-10T10:39:07Z</time>
      </trkpt>
      <trkpt lat="43.42768" lon="1.4755">
        <ele>255</ele>
        <time>2018-06-10T10:39:07Z</time>
      </trkpt>
      <trkpt lat="43.42765" lon="1.47546">
        <ele>255</ele>
        <time>2018-06-10T10:39:07Z</time>
      </trkpt>
      <trkpt lat="43.42765" lon="1.47537">
        <ele>248</ele>
        <time>2018-06-10T10:39:07Z</time>
      </trkpt>
      <trkpt lat="43.42766" lon="1.47532">
        <ele>248</ele>
        <time>2018-06-10T10:39:22Z</time>
      </trkpt>
      <trkpt lat="43.42768" lon="1.47524">
        <ele>248</ele>
        <time>2018-06-10T10:39:22Z</time>
      </trkpt>
      <trkpt lat="43.42771" lon="1.47516">
        <ele>248</ele>
        <time>2018-06-10T10:39:22Z</time>
      </trkpt>
      <trkpt lat="43.42773" lon="1.47511">
        <ele>248</ele>
        <time>2018-06-10T10:39:22Z</time>
      </trkpt>
      <trkpt lat="43.42776" lon="1.47503">
        <ele>248</ele>
        <time>2018-06-10T10:39:39Z</time>
      </trkpt>
      <trkpt lat="43.42778" lon="1.47498">
        <ele>248</ele>
        <time>2018-06-10T10:39:39Z</time>
      </trkpt>
      <trkpt lat="43.4278" lon="1.47492">
        <ele>248</ele>
        <time>2018-06-10T10:39:39Z</time>
      </trkpt>
      <trkpt lat="43.42783" lon="1.47483">
        <ele>248</ele>
        <time>2018-06-10T10:39:39Z</time>
      </trkpt>
      <trkpt lat="43.42785" lon="1.47479">
        <ele>248</ele>
        <time>2018-06-10T10:39:54Z</time>
      </trkpt>
      <trkpt lat="43.42787" lon="1.47472">
        <ele>248</ele>
        <time>2018-06-10T10:39:54Z</time>
      </trkpt>
      <trkpt lat="43.42789" lon="1.47465">
        <ele>248</ele>
        <time>2018-06-10T10:39:54Z</time>
      </trkpt>
      <trkpt lat="43.42791" lon="1.4746">
        <ele>248</ele>
        <time>2018-06-10T10:39:54Z</time>
      </trkpt>
      <trkpt lat="43.42792" lon="1.47453">
        <ele>251</ele>
        <time>2018-06-10T10:40:11Z</time>
      </trkpt>
      <trkpt lat="43.42792" lon="1.47446">
        <ele>251</ele>
        <time>2018-06-10T10:40:11Z</time>
      </trkpt>
      <trkpt lat="43.42795" lon="1.4744">
        <ele>251</ele>
        <time>2018-06-10T10:40:11Z</time>
      </trkpt>
      <trkpt lat="43.42797" lon="1.47433">
        <ele>251</ele>
        <time>2018-06-10T10:40:11Z</time>
      </trkpt>
      <trkpt lat="43.42799" lon="1.47429">
        <ele>251</ele>
        <time>2018-06-10T10:40:26Z</time>
      </trkpt>
      <trkpt lat="43.42802" lon="1.47423">
        <ele>251</ele>
        <time>2018-06-10T10:40:26Z</time>
      </trkpt>
      <trkpt lat="43.42804" lon="1.47416">
        <ele>251</ele>
        <time>2018-06-10T10:40:26Z</time>
      </trkpt>
      <trkpt lat="43.42806" lon="1.47411">
        <ele>251</ele>
        <time>2018-06-10T10:40:26Z</time>
      </trkpt>
      <trkpt lat="43.42807" lon="1.47404">
        <ele>251</ele>
        <time>2018-06-10T10:40:42Z</time>
      </trkpt>
      <trkpt lat="43.42808" lon="1.47395">
        <ele>251</ele>
        <time>2018-06-10T10:40:42Z</time>
      </trkpt>
      <trkpt lat="43.4281" lon="1.4739">
        <ele>251</ele>
        <time>2018-06-10T10:40:42Z</time>
      </trkpt>
      <trkpt lat="43.42812" lon="1.47385">
        <ele>251</ele>
        <time>2018-06-10T10:40:42Z</time>
      </trkpt>
      <trkpt lat="43.42813" lon="1.47378">
        <ele>251</ele>
        <time>2018-06-10T10:40:58Z</time>
      </trkpt>
      <trkpt lat="43.42811" lon="1.47373">
        <ele>246</ele>
        <time>2018-06-10T10:40:58Z</time>
      </trkpt>
      <trkpt lat="43.42807" lon="1.47368">
        <ele>246</ele>
        <time>2018-06-10T10:40:58Z</time>
      </trkpt>
      <trkpt lat="43.42804" lon="1.47367">
        <ele>246</ele>
        <time>2018-06-10T10:40:58Z</time>
      </trkpt>
      <trkpt lat="43.42801" lon="1.47364">
        <ele>246</ele>
        <time>2018-06-10T10:41:14Z</time>
      </trkpt>
      <trkpt lat="43.42798" lon="1.4736">
        <ele>246</ele>
        <time>2018-06-10T10:41:14Z</time>
      </trkpt>
      <trkpt lat="43.42795" lon="1.47358">
        <ele>246</ele>
        <time>2018-06-10T10:41:14Z</time>
      </trkpt>
      <trkpt lat="43.42792" lon="1.47357">
        <ele>246</ele>
        <time>2018-06-10T10:41:14Z</time>
      </trkpt>
      <trkpt lat="43.42786" lon="1.47353">
        <ele>242</ele>
        <time>2018-06-10T10:41:30Z</time>
      </trkpt>
      <trkpt lat="43.42783" lon="1.47349">
        <ele>242</ele>
        <time>2018-06-10T10:41:30Z</time>
      </trkpt>
      <trkpt lat="43.42779" lon="1.47344">
        <ele>242</ele>
        <time>2018-06-10T10:41:30Z</time>
      </trkpt>
      <trkpt lat="43.42777" lon="1.4734">
        <ele>242</ele>
        <time>2018-06-10T10:41:30Z</time>
      </trkpt>
      <trkpt lat="43.42775" lon="1.47335">
        <ele>242</ele>
        <time>2018-06-10T10:41:46Z</time>
      </trkpt>
      <trkpt lat="43.42772" lon="1.47332">
        <ele>242</ele>
        <time>2018-06-10T10:41:46Z</time>
      </trkpt>
      <trkpt lat="43.42767" lon="1.47326">
        <ele>242</ele>
        <time>2018-06-10T10:41:46Z</time>
      </trkpt>
      <trkpt lat="43.42763" lon="1.47322">
        <ele>242</ele>
        <time>2018-06-10T10:41:46Z</time>
      </trkpt>
      <trkpt lat="43.4276" lon="1.4732">
        <ele>242</ele>
        <time>2018-06-10T10:42:03Z</time>
      </trkpt>
      <trkpt lat="43.42756" lon="1.47317">
        <ele>242</ele>
        <time>2018-06-10T10:42:03Z</time>
      </trkpt>
      <trkpt lat="43.42749" lon="1.47315">
        <ele>242</ele>
        <time>2018-06-10T10:42:03Z</time>
      </trkpt>
      <trkpt lat="43.42746" lon="1.47316">
        <ele>242</ele>
        <time>2018-06-10T10:42:03Z</time>
      </trkpt>
      <trkpt lat="43.42745" lon="1.47315">
        <ele>242</ele>
        <time>2018-06-10T10:42:18Z</time>
      </trkpt>
      <trkpt lat="43.42739" lon="1.47311">
        <ele>242</ele>
        <time>2018-06-10T10:42:18Z</time>
      </trkpt>
      <trkpt lat="43.42736" lon="1.47309">
        <ele>242</ele>
        <time>2018-06-10T10:42:18Z</time>
      </trkpt>
      <trkpt lat="43.42732" lon="1.47307">
        <ele>242</ele>
        <time>2018-06-10T10:42:18Z</time>
      </trkpt>
      <trkpt lat="43.42728" lon="1.47305">
        <ele>242</ele>
        <time>2018-06-10T10:42:35Z</time>
      </trkpt>
      <trkpt lat="43.42725" lon="1.47303">
        <ele>242</ele>
        <time>2018-06-10T10:42:35Z</time>
      </trkpt>
      <trkpt lat="43.4272" lon="1.47298">
        <ele>242</ele>
        <time>2018-06-10T10:42:35Z</time>
      </trkpt>
      <trkpt lat="43.42716" lon="1.47288">
        <ele>240</ele>
        <time>2018-06-10T10:42:35Z</time>
      </trkpt>
      <trkpt lat="43.42714" lon="1.47283">
        <ele>240</ele>
        <time>2018-06-10T10:42:50Z</time>
      </trkpt>
      <trkpt lat="43.42713" lon="1.47275">
        <ele>240</ele>
        <time>2018-06-10T10:42:50Z</time>
      </trkpt>
      <trkpt lat="43.42715" lon="1.47265">
        <ele>240</ele>
        <time>2018-06-10T10:42:50Z</time>
      </trkpt>
      <trkpt lat="43.42716" lon="1.47259">
        <ele>240</ele>
        <time>2018-06-10T10:42:50Z</time>
      </trkpt>
      <trkpt lat="43.42716" lon="1.47246">
        <ele>240</ele>
        <time>2018-06-10T10:43:14Z</time>
      </trkpt>
      <trkpt lat="43.42715" lon="1.47246">
        <ele>240</ele>
        <time>2018-06-10T10:43:14Z</time>
      </trkpt>
      <trkpt lat="43.42717" lon="1.47243">
        <ele>240</ele>
        <time>2018-06-10T10:43:14Z</time>
      </trkpt>
      <trkpt lat="43.42718" lon="1.47239">
        <ele>240</ele>
        <time>2018-06-10T10:43:14Z</time>
      </trkpt>
      <trkpt lat="43.42719" lon="1.47233">
        <ele>240</ele>
        <time>2018-06-10T10:43:14Z</time>
      </trkpt>
      <trkpt lat="43.42723" lon="1.4723">
        <ele>240</ele>
        <time>2018-06-10T10:43:31Z</time>
      </trkpt>
      <trkpt lat="43.42727" lon="1.47221">
        <ele>240</ele>
        <time>2018-06-10T10:43:31Z</time>
      </trkpt>
      <trkpt lat="43.42732" lon="1.47209">
        <ele>240</ele>
        <time>2018-06-10T10:43:31Z</time>
      </trkpt>
      <trkpt lat="43.42732" lon="1.47202">
        <ele>237</ele>
        <time>2018-06-10T10:43:31Z</time>
      </trkpt>
      <trkpt lat="43.42733" lon="1.47198">
        <ele>237</ele>
        <time>2018-06-10T10:43:46Z</time>
      </trkpt>
      <trkpt lat="43.42731" lon="1.47192">
        <ele>237</ele>
        <time>2018-06-10T10:43:46Z</time>
      </trkpt>
      <trkpt lat="43.42731" lon="1.47184">
        <ele>237</ele>
        <time>2018-06-10T10:43:46Z</time>
      </trkpt>
      <trkpt lat="43.42733" lon="1.47179">
        <ele>237</ele>
        <time>2018-06-10T10:43:46Z</time>
      </trkpt>
      <trkpt lat="43.42735" lon="1.47172">
        <ele>237</ele>
        <time>2018-06-10T10:44:03Z</time>
      </trkpt>
      <trkpt lat="43.42734" lon="1.47161">
        <ele>237</ele>
        <time>2018-06-10T10:44:03Z</time>
      </trkpt>
      <trkpt lat="43.42734" lon="1.47155">
        <ele>237</ele>
        <time>2018-06-10T10:44:03Z</time>
      </trkpt>
      <trkpt lat="43.42736" lon="1.47149">
        <ele>237</ele>
        <time>2018-06-10T10:44:03Z</time>
      </trkpt>
      <trkpt lat="43.42736" lon="1.47146">
        <ele>237</ele>
        <time>2018-06-10T10:44:18Z</time>
      </trkpt>
      <trkpt lat="43.42738" lon="1.47141">
        <ele>237</ele>
        <time>2018-06-10T10:44:18Z</time>
      </trkpt>
      <trkpt lat="43.42738" lon="1.47134">
        <ele>237</ele>
        <time>2018-06-10T10:44:18Z</time>
      </trkpt>
      <trkpt lat="43.4274" lon="1.4713">
        <ele>237</ele>
        <time>2018-06-10T10:44:18Z</time>
      </trkpt>
      <trkpt lat="43.42742" lon="1.47122">
        <ele>233</ele>
        <time>2018-06-10T10:44:34Z</time>
      </trkpt>
      <trkpt lat="43.42745" lon="1.47114">
        <ele>233</ele>
        <time>2018-06-10T10:44:34Z</time>
      </trkpt>
      <trkpt lat="43.42745" lon="1.47109">
        <ele>233</ele>
        <time>2018-06-10T10:44:34Z</time>
      </trkpt>
      <trkpt lat="43.42745" lon="1.47104">
        <ele>233</ele>
        <time>2018-06-10T10:44:34Z</time>
      </trkpt>
      <trkpt lat="43.42747" lon="1.47097">
        <ele>233</ele>
        <time>2018-06-10T10:44:50Z</time>
      </trkpt>
      <trkpt lat="43.42748" lon="1.47091">
        <ele>233</ele>
        <time>2018-06-10T10:44:50Z</time>
      </trkpt>
      <trkpt lat="43.4275" lon="1.47082">
        <ele>233</ele>
        <time>2018-06-10T10:44:50Z</time>
      </trkpt>
      <trkpt lat="43.4275" lon="1.47076">
        <ele>233</ele>
        <time>2018-06-10T10:44:50Z</time>
      </trkpt>
      <trkpt lat="43.42751" lon="1.4707">
        <ele>233</ele>
        <time>2018-06-10T10:45:06Z</time>
      </trkpt>
      <trkpt lat="43.42752" lon="1.47061">
        <ele>233</ele>
        <time>2018-06-10T10:45:06Z</time>
      </trkpt>
      <trkpt lat="43.42752" lon="1.47057">
        <ele>233</ele>
        <time>2018-06-10T10:45:06Z</time>
      </trkpt>
      <trkpt lat="43.42752" lon="1.47049">
        <ele>233</ele>
        <time>2018-06-10T10:45:06Z</time>
      </trkpt>
      <trkpt lat="43.42755" lon="1.47042">
        <ele>233</ele>
        <time>2018-06-10T10:45:23Z</time>
      </trkpt>
      <trkpt lat="43.42757" lon="1.47037">
        <ele>230</ele>
        <time>2018-06-10T10:45:23Z</time>
      </trkpt>
      <trkpt lat="43.4276" lon="1.47025">
        <ele>230</ele>
        <time>2018-06-10T10:45:23Z</time>
      </trkpt>
      <trkpt lat="43.42765" lon="1.47008">
        <ele>230</ele>
        <time>2018-06-10T10:45:23Z</time>
      </trkpt>
      <trkpt lat="43.42766" lon="1.47004">
        <ele>230</ele>
        <time>2018-06-10T10:45:43Z</time>
      </trkpt>
      <trkpt lat="43.42768" lon="1.47002">
        <ele>230</ele>
        <time>2018-06-10T10:45:43Z</time>
      </trkpt>
      <trkpt lat="43.42768" lon="1.47">
        <ele>230</ele>
        <time>2018-06-10T10:45:43Z</time>
      </trkpt>
      <trkpt lat="43.42769" lon="1.46997">
        <ele>230</ele>
        <time>2018-06-10T10:45:43Z</time>
      </trkpt>
      <trkpt lat="43.4277" lon="1.46991">
        <ele>230</ele>
        <time>2018-06-10T10:45:43Z</time>
      </trkpt>
      <trkpt lat="43.42772" lon="1.46986">
        <ele>230</ele>
        <time>2018-06-10T10:45:58Z</time>
      </trkpt>
      <trkpt lat="43.42776" lon="1.46975">
        <ele>230</ele>
        <time>2018-06-10T10:45:58Z</time>
      </trkpt>
      <trkpt lat="43.42777" lon="1.46968">
        <ele>230</ele>
        <time>2018-06-10T10:45:58Z</time>
      </trkpt>
      <trkpt lat="43.42777" lon="1.46968">
        <ele>230</ele>
        <time>2018-06-10T10:45:58Z</time>
      </trkpt>
      <trkpt lat="43.42776" lon="1.46963">
        <ele>230</ele>
        <time>2018-06-10T10:46:14Z</time>
      </trkpt>
      <trkpt lat="43.42778" lon="1.46956">
        <ele>225</ele>
        <time>2018-06-10T10:46:14Z</time>
      </trkpt>
      <trkpt lat="43.42779" lon="1.46951">
        <ele>225</ele>
        <time>2018-06-10T10:46:14Z</time>
      </trkpt>
      <trkpt lat="43.42782" lon="1.46941">
        <ele>225</ele>
        <time>2018-06-10T10:46:14Z</time>
      </trkpt>
      <trkpt lat="43.42784" lon="1.46931">
        <ele>225</ele>
        <time>2018-06-10T10:46:30Z</time>
      </trkpt>
      <trkpt lat="43.42783" lon="1.46926">
        <ele>225</ele>
        <time>2018-06-10T10:46:30Z</time>
      </trkpt>
      <trkpt lat="43.42784" lon="1.46922">
        <ele>225</ele>
        <time>2018-06-10T10:46:30Z</time>
      </trkpt>
      <trkpt lat="43.42785" lon="1.46918">
        <ele>225</ele>
        <time>2018-06-10T10:46:30Z</time>
      </trkpt>
      <trkpt lat="43.42786" lon="1.4691">
        <ele>225</ele>
        <time>2018-06-10T10:46:47Z</time>
      </trkpt>
      <trkpt lat="43.42788" lon="1.469">
        <ele>225</ele>
        <time>2018-06-10T10:46:47Z</time>
      </trkpt>
      <trkpt lat="43.42788" lon="1.46895">
        <ele>225</ele>
        <time>2018-06-10T10:46:47Z</time>
      </trkpt>
      <trkpt lat="43.42787" lon="1.46889">
        <ele>225</ele>
        <time>2018-06-10T10:46:47Z</time>
      </trkpt>
      <trkpt lat="43.42788" lon="1.46885">
        <ele>225</ele>
        <time>2018-06-10T10:47:02Z</time>
      </trkpt>
      <trkpt lat="43.42788" lon="1.4688">
        <ele>225</ele>
        <time>2018-06-10T10:47:02Z</time>
      </trkpt>
      <trkpt lat="43.42786" lon="1.46872">
        <ele>221</ele>
        <time>2018-06-10T10:47:02Z</time>
      </trkpt>
      <trkpt lat="43.42786" lon="1.46868">
        <ele>221</ele>
        <time>2018-06-10T10:47:02Z</time>
      </trkpt>
      <trkpt lat="43.42787" lon="1.46862">
        <ele>221</ele>
        <time>2018-06-10T10:47:18Z</time>
      </trkpt>
      <trkpt lat="43.42784" lon="1.46855">
        <ele>221</ele>
        <time>2018-06-10T10:47:18Z</time>
      </trkpt>
      <trkpt lat="43.42785" lon="1.4685">
        <ele>221</ele>
        <time>2018-06-10T10:47:18Z</time>
      </trkpt>
      <trkpt lat="43.42787" lon="1.46844">
        <ele>221</ele>
        <time>2018-06-10T10:47:18Z</time>
      </trkpt>
      <trkpt lat="43.42789" lon="1.46837">
        <ele>221</ele>
        <time>2018-06-10T10:47:34Z</time>
      </trkpt>
      <trkpt lat="43.4279" lon="1.46832">
        <ele>221</ele>
        <time>2018-06-10T10:47:34Z</time>
      </trkpt>
      <trkpt lat="43.42789" lon="1.46824">
        <ele>221</ele>
        <time>2018-06-10T10:47:34Z</time>
      </trkpt>
      <trkpt lat="43.42792" lon="1.46818">
        <ele>221</ele>
        <time>2018-06-10T10:47:34Z</time>
      </trkpt>
      <trkpt lat="43.42793" lon="1.46813">
        <ele>224</ele>
        <time>2018-06-10T10:47:50Z</time>
      </trkpt>
      <trkpt lat="43.42793" lon="1.46808">
        <ele>224</ele>
        <time>2018-06-10T10:47:50Z</time>
      </trkpt>
      <trkpt lat="43.42795" lon="1.46803">
        <ele>224</ele>
        <time>2018-06-10T10:47:50Z</time>
      </trkpt>
      <trkpt lat="43.42796" lon="1.46797">
        <ele>224</ele>
        <time>2018-06-10T10:47:50Z</time>
      </trkpt>
      <trkpt lat="43.42796" lon="1.4679">
        <ele>223</ele>
        <time>2018-06-10T10:48:07Z</time>
      </trkpt>
      <trkpt lat="43.42796" lon="1.46785">
        <ele>223</ele>
        <time>2018-06-10T10:48:07Z</time>
      </trkpt>
      <trkpt lat="43.42797" lon="1.46778">
        <ele>223</ele>
        <time>2018-06-10T10:48:07Z</time>
      </trkpt>
      <trkpt lat="43.42798" lon="1.46768">
        <ele>223</ele>
        <time>2018-06-10T10:48:07Z</time>
      </trkpt>
      <trkpt lat="43.42799" lon="1.46764">
        <ele>223</ele>
        <time>2018-06-10T10:48:22Z</time>
      </trkpt>
      <trkpt lat="43.42798" lon="1.46758">
        <ele>223</ele>
        <time>2018-06-10T10:48:22Z</time>
      </trkpt>
      <trkpt lat="43.42798" lon="1.46752">
        <ele>223</ele>
        <time>2018-06-10T10:48:22Z</time>
      </trkpt>
      <trkpt lat="43.42798" lon="1.46747">
        <ele>223</ele>
        <time>2018-06-10T10:48:22Z</time>
      </trkpt>
      <trkpt lat="43.42798" lon="1.46738">
        <ele>223</ele>
        <time>2018-06-10T10:48:39Z</time>
      </trkpt>
      <trkpt lat="43.42801" lon="1.46731">
        <ele>223</ele>
        <time>2018-06-10T10:48:39Z</time>
      </trkpt>
      <trkpt lat="43.42801" lon="1.46724">
        <ele>223</ele>
        <time>2018-06-10T10:48:39Z</time>
      </trkpt>
      <trkpt lat="43.42803" lon="1.46715">
        <ele>223</ele>
        <time>2018-06-10T10:48:39Z</time>
      </trkpt>
      <trkpt lat="43.42803" lon="1.4671">
        <ele>223</ele>
        <time>2018-06-10T10:48:54Z</time>
      </trkpt>
      <trkpt lat="43.42804" lon="1.46701">
        <ele>221</ele>
        <time>2018-06-10T10:48:54Z</time>
      </trkpt>
      <trkpt lat="43.42803" lon="1.467">
        <ele>221</ele>
        <time>2018-06-10T10:48:54Z</time>
      </trkpt>
      <trkpt lat="43.42805" lon="1.46695">
        <ele>221</ele>
        <time>2018-06-10T10:48:54Z</time>
      </trkpt>
      <trkpt lat="43.42805" lon="1.46689">
        <ele>221</ele>
        <time>2018-06-10T10:49:11Z</time>
      </trkpt>
      <trkpt lat="43.42805" lon="1.46683">
        <ele>221</ele>
        <time>2018-06-10T10:49:11Z</time>
      </trkpt>
      <trkpt lat="43.42804" lon="1.46678">
        <ele>221</ele>
        <time>2018-06-10T10:49:11Z</time>
      </trkpt>
      <trkpt lat="43.42805" lon="1.46671">
        <ele>221</ele>
        <time>2018-06-10T10:49:11Z</time>
      </trkpt>
      <trkpt lat="43.42805" lon="1.46665">
        <ele>221</ele>
        <time>2018-06-10T10:49:26Z</time>
      </trkpt>
      <trkpt lat="43.42805" lon="1.46657">
        <ele>221</ele>
        <time>2018-06-10T10:49:26Z</time>
      </trkpt>
      <trkpt lat="43.42807" lon="1.46653">
        <ele>221</ele>
        <time>2018-06-10T10:49:26Z</time>
      </trkpt>
      <trkpt lat="43.42808" lon="1.46646">
        <ele>221</ele>
        <time>2018-06-10T10:49:26Z</time>
      </trkpt>
      <trkpt lat="43.42809" lon="1.46638">
        <ele>221</ele>
        <time>2018-06-10T10:49:43Z</time>
      </trkpt>
      <trkpt lat="43.42809" lon="1.46633">
        <ele>221</ele>
        <time>2018-06-10T10:49:43Z</time>
      </trkpt>
      <trkpt lat="43.42811" lon="1.46627">
        <ele>221</ele>
        <time>2018-06-10T10:49:43Z</time>
      </trkpt>
      <trkpt lat="43.42812" lon="1.4662">
        <ele>215</ele>
        <time>2018-06-10T10:49:43Z</time>
      </trkpt>
      <trkpt lat="43.42813" lon="1.46614">
        <ele>215</ele>
        <time>2018-06-10T10:49:58Z</time>
      </trkpt>
      <trkpt lat="43.42814" lon="1.46607">
        <ele>215</ele>
        <time>2018-06-10T10:49:58Z</time>
      </trkpt>
      <trkpt lat="43.42815" lon="1.46598">
        <ele>215</ele>
        <time>2018-06-10T10:49:58Z</time>
      </trkpt>
      <trkpt lat="43.42817" lon="1.46593">
        <ele>215</ele>
        <time>2018-06-10T10:49:58Z</time>
      </trkpt>
      <trkpt lat="43.42819" lon="1.46586">
        <ele>215</ele>
        <time>2018-06-10T10:50:14Z</time>
      </trkpt>
      <trkpt lat="43.4282" lon="1.4658">
        <ele>215</ele>
        <time>2018-06-10T10:50:14Z</time>
      </trkpt>
      <trkpt lat="43.42823" lon="1.46574">
        <ele>215</ele>
        <time>2018-06-10T10:50:14Z</time>
      </trkpt>
      <trkpt lat="43.42825" lon="1.46568">
        <ele>215</ele>
        <time>2018-06-10T10:50:14Z</time>
      </trkpt>
      <trkpt lat="43.42827" lon="1.46558">
        <ele>215</ele>
        <time>2018-06-10T10:50:30Z</time>
      </trkpt>
      <trkpt lat="43.4283" lon="1.46554">
        <ele>215</ele>
        <time>2018-06-10T10:50:30Z</time>
      </trkpt>
      <trkpt lat="43.42832" lon="1.4655">
        <ele>215</ele>
        <time>2018-06-10T10:50:30Z</time>
      </trkpt>
      <trkpt lat="43.42833" lon="1.46544">
        <ele>215</ele>
        <time>2018-06-10T10:50:30Z</time>
      </trkpt>
      <trkpt lat="43.42834" lon="1.46537">
        <ele>209</ele>
        <time>2018-06-10T10:50:46Z</time>
      </trkpt>
      <trkpt lat="43.42837" lon="1.46524">
        <ele>209</ele>
        <time>2018-06-10T10:50:46Z</time>
      </trkpt>
      <trkpt lat="43.42839" lon="1.46516">
        <ele>209</ele>
        <time>2018-06-10T10:50:46Z</time>
      </trkpt>
      <trkpt lat="43.42841" lon="1.4651">
        <ele>209</ele>
        <time>2018-06-10T10:50:46Z</time>
      </trkpt>
      <trkpt lat="43.42842" lon="1.46508">
        <ele>209</ele>
        <time>2018-06-10T10:51:02Z</time>
      </trkpt>
      <trkpt lat="43.4284" lon="1.46503">
        <ele>209</ele>
        <time>2018-06-10T10:51:02Z</time>
      </trkpt>
      <trkpt lat="43.42842" lon="1.46497">
        <ele>209</ele>
        <time>2018-06-10T10:51:02Z</time>
      </trkpt>
      <trkpt lat="43.42844" lon="1.46491">
        <ele>209</ele>
        <time>2018-06-10T10:51:02Z</time>
      </trkpt>
      <trkpt lat="43.42845" lon="1.46482">
        <ele>209</ele>
        <time>2018-06-10T10:51:18Z</time>
      </trkpt>
      <trkpt lat="43.42849" lon="1.46475">
        <ele>209</ele>
        <time>2018-06-10T10:51:18Z</time>
      </trkpt>
      <trkpt lat="43.42847" lon="1.46469">
        <ele>209</ele>
        <time>2018-06-10T10:51:18Z</time>
      </trkpt>
      <trkpt lat="43.42848" lon="1.46462">
        <ele>209</ele>
        <time>2018-06-10T10:51:18Z</time>
      </trkpt>
      <trkpt lat="43.4285" lon="1.46456">
        <ele>203</ele>
        <time>2018-06-10T10:51:34Z</time>
      </trkpt>
      <trkpt lat="43.42848" lon="1.46448">
        <ele>203</ele>
        <time>2018-06-10T10:51:34Z</time>
      </trkpt>
      <trkpt lat="43.42851" lon="1.46439">
        <ele>203</ele>
        <time>2018-06-10T10:51:34Z</time>
      </trkpt>
      <trkpt lat="43.42854" lon="1.46437">
        <ele>203</ele>
        <time>2018-06-10T10:51:34Z</time>
      </trkpt>
      <trkpt lat="43.42854" lon="1.46433">
        <ele>203</ele>
        <time>2018-06-10T10:51:50Z</time>
      </trkpt>
      <trkpt lat="43.42854" lon="1.46426">
        <ele>203</ele>
        <time>2018-06-10T10:51:50Z</time>
      </trkpt>
      <trkpt lat="43.42857" lon="1.46424">
        <ele>203</ele>
        <time>2018-06-10T10:51:50Z</time>
      </trkpt>
      <trkpt lat="43.42859" lon="1.46418">
        <ele>203</ele>
        <time>2018-06-10T10:51:50Z</time>
      </trkpt>
      <trkpt lat="43.42861" lon="1.46406">
        <ele>203</ele>
        <time>2018-06-10T10:52:06Z</time>
      </trkpt>
      <trkpt lat="43.42861" lon="1.46398">
        <ele>203</ele>
        <time>2018-06-10T10:52:06Z</time>
      </trkpt>
      <trkpt lat="43.42863" lon="1.4639">
        <ele>203</ele>
        <time>2018-06-10T10:52:06Z</time>
      </trkpt>
      <trkpt lat="43.42863" lon="1.46384">
        <ele>203</ele>
        <time>2018-06-10T10:52:06Z</time>
      </trkpt>
      <trkpt lat="43.42864" lon="1.46379">
        <ele>203</ele>
        <time>2018-06-10T10:52:22Z</time>
      </trkpt>
      <trkpt lat="43.42867" lon="1.46372">
        <ele>201</ele>
        <time>2018-06-10T10:52:22Z</time>
      </trkpt>
      <trkpt lat="43.42869" lon="1.46366">
        <ele>201</ele>
        <time>2018-06-10T10:52:22Z</time>
      </trkpt>
      <trkpt lat="43.4287" lon="1.4636">
        <ele>201</ele>
        <time>2018-06-10T10:52:22Z</time>
      </trkpt>
      <trkpt lat="43.4287" lon="1.46356">
        <ele>201</ele>
        <time>2018-06-10T10:52:39Z</time>
      </trkpt>
      <trkpt lat="43.42871" lon="1.46352">
        <ele>201</ele>
        <time>2018-06-10T10:52:39Z</time>
      </trkpt>
      <trkpt lat="43.42875" lon="1.46344">
        <ele>201</ele>
        <time>2018-06-10T10:52:39Z</time>
      </trkpt>
      <trkpt lat="43.42877" lon="1.46335">
        <ele>206</ele>
        <time>2018-06-10T10:52:39Z</time>
      </trkpt>
      <trkpt lat="43.42876" lon="1.46329">
        <ele>206</ele>
        <time>2018-06-10T10:57:51Z</time>
      </trkpt>
      <trkpt lat="43.42876" lon="1.46329">
        <ele>206</ele>
        <time>2018-06-10T10:57:51Z</time>
      </trkpt>
      <trkpt lat="43.42875" lon="1.46328">
        <ele>201</ele>
        <time>2018-06-10T10:57:51Z</time>
      </trkpt>
      <trkpt lat="43.42871" lon="1.46325">
        <ele>201</ele>
        <time>2018-06-10T10:57:51Z</time>
      </trkpt>
      <trkpt lat="43.42867" lon="1.46321">
        <ele>201</ele>
        <time>2018-06-10T10:57:51Z</time>
      </trkpt>
      <trkpt lat="43.42865" lon="1.4632">
        <ele>201</ele>
        <time>2018-06-10T10:58:06Z</time>
      </trkpt>
      <trkpt lat="43.42861" lon="1.46319">
        <ele>201</ele>
        <time>2018-06-10T10:58:06Z</time>
      </trkpt>
      <trkpt lat="43.42856" lon="1.46314">
        <ele>201</ele>
        <time>2018-06-10T10:58:06Z</time>
      </trkpt>
      <trkpt lat="43.42854" lon="1.46312">
        <ele>201</ele>
        <time>2018-06-10T10:58:06Z</time>
      </trkpt>
      <trkpt lat="43.4285" lon="1.46309">
        <ele>201</ele>
        <time>2018-06-10T10:58:22Z</time>
      </trkpt>
      <trkpt lat="43.42847" lon="1.46306">
        <ele>201</ele>
        <time>2018-06-10T10:58:22Z</time>
      </trkpt>
      <trkpt lat="43.42842" lon="1.46302">
        <ele>201</ele>
        <time>2018-06-10T10:58:22Z</time>
      </trkpt>
      <trkpt lat="43.42838" lon="1.46302">
        <ele>201</ele>
        <time>2018-06-10T10:58:22Z</time>
      </trkpt>
      <trkpt lat="43.42835" lon="1.463">
        <ele>201</ele>
        <time>2018-06-10T10:58:38Z</time>
      </trkpt>
      <trkpt lat="43.42833" lon="1.46295">
        <ele>201</ele>
        <time>2018-06-10T10:58:38Z</time>
      </trkpt>
      <trkpt lat="43.4283" lon="1.46293">
        <ele>201</ele>
        <time>2018-06-10T10:58:38Z</time>
      </trkpt>
      <trkpt lat="43.42826" lon="1.46289">
        <ele>197</ele>
        <time>2018-06-10T10:58:38Z</time>
      </trkpt>
      <trkpt lat="43.42822" lon="1.46286">
        <ele>197</ele>
        <time>2018-06-10T10:58:58Z</time>
      </trkpt>
      <trkpt lat="43.4282" lon="1.46284">
        <ele>197</ele>
        <time>2018-06-10T10:58:58Z</time>
      </trkpt>
      <trkpt lat="43.42818" lon="1.46284">
        <ele>197</ele>
        <time>2018-06-10T10:58:58Z</time>
      </trkpt>
      <trkpt lat="43.42815" lon="1.46283">
        <ele>197</ele>
        <time>2018-06-10T10:58:58Z</time>
      </trkpt>
      <trkpt lat="43.42812" lon="1.46283">
        <ele>197</ele>
        <time>2018-06-10T10:58:58Z</time>
      </trkpt>
      <trkpt lat="43.42812" lon="1.46285">
        <ele>197</ele>
        <time>2018-06-10T10:59:14Z</time>
      </trkpt>
      <trkpt lat="43.42806" lon="1.46282">
        <ele>197</ele>
        <time>2018-06-10T10:59:14Z</time>
      </trkpt>
      <trkpt lat="43.42804" lon="1.46279">
        <ele>197</ele>
        <time>2018-06-10T10:59:14Z</time>
      </trkpt>
      <trkpt lat="43.428" lon="1.46275">
        <ele>197</ele>
        <time>2018-06-10T10:59:14Z</time>
      </trkpt>
      <trkpt lat="43.42796" lon="1.4627">
        <ele>197</ele>
        <time>2018-06-10T10:59:30Z</time>
      </trkpt>
      <trkpt lat="43.42795" lon="1.46267">
        <ele>197</ele>
        <time>2018-06-10T10:59:30Z</time>
      </trkpt>
      <trkpt lat="43.42791" lon="1.46263">
        <ele>188</ele>
        <time>2018-06-10T10:59:30Z</time>
      </trkpt>
      <trkpt lat="43.42789" lon="1.46261">
        <ele>188</ele>
        <time>2018-06-10T10:59:30Z</time>
      </trkpt>
      <trkpt lat="43.42786" lon="1.46259">
        <ele>188</ele>
        <time>2018-06-10T10:59:46Z</time>
      </trkpt>
      <trkpt lat="43.4278" lon="1.46258">
        <ele>188</ele>
        <time>2018-06-10T10:59:46Z</time>
      </trkpt>
      <trkpt lat="43.42777" lon="1.46256">
        <ele>188</ele>
        <time>2018-06-10T10:59:46Z</time>
      </trkpt>
      <trkpt lat="43.42772" lon="1.46256">
        <ele>188</ele>
        <time>2018-06-10T10:59:46Z</time>
      </trkpt>
      <trkpt lat="43.42765" lon="1.46255">
        <ele>188</ele>
        <time>2018-06-10T11:00:02Z</time>
      </trkpt>
      <trkpt lat="43.42762" lon="1.46251">
        <ele>188</ele>
        <time>2018-06-10T11:00:02Z</time>
      </trkpt>
      <trkpt lat="43.42757" lon="1.46247">
        <ele>188</ele>
        <time>2018-06-10T11:00:02Z</time>
      </trkpt>
      <trkpt lat="43.42754" lon="1.46243">
        <ele>188</ele>
        <time>2018-06-10T11:00:02Z</time>
      </trkpt>
      <trkpt lat="43.42751" lon="1.4624">
        <ele>188</ele>
        <time>2018-06-10T11:00:18Z</time>
      </trkpt>
      <trkpt lat="43.42746" lon="1.46236">
        <ele>188</ele>
        <time>2018-06-10T11:00:18Z</time>
      </trkpt>
      <trkpt lat="43.42744" lon="1.46234">
        <ele>188</ele>
        <time>2018-06-10T11:00:18Z</time>
      </trkpt>
      <trkpt lat="43.4274" lon="1.46232">
        <ele>188</ele>
        <time>2018-06-10T11:00:18Z</time>
      </trkpt>
      <trkpt lat="43.42735" lon="1.4623">
        <ele>188</ele>
        <time>2018-06-10T11:00:34Z</time>
      </trkpt>
      <trkpt lat="43.42731" lon="1.46228">
        <ele>188</ele>
        <time>2018-06-10T11:00:35Z</time>
      </trkpt>
      <trkpt lat="43.42727" lon="1.46225">
        <ele>188</ele>
        <time>2018-06-10T11:00:35Z</time>
      </trkpt>
      <trkpt lat="43.42723" lon="1.46222">
        <ele>188</ele>
        <time>2018-06-10T11:00:35Z</time>
      </trkpt>
      <trkpt lat="43.42718" lon="1.4622">
        <ele>188</ele>
        <time>2018-06-10T11:00:50Z</time>
      </trkpt>
      <trkpt lat="43.42713" lon="1.46217">
        <ele>188</ele>
        <time>2018-06-10T11:00:50Z</time>
      </trkpt>
      <trkpt lat="43.42708" lon="1.46214">
        <ele>185</ele>
        <time>2018-06-10T11:00:50Z</time>
      </trkpt>
      <trkpt lat="43.42706" lon="1.46213">
        <ele>185</ele>
        <time>2018-06-10T11:00:50Z</time>
      </trkpt>
      <trkpt lat="43.42706" lon="1.46203">
        <ele>182</ele>
        <time>2018-06-10T11:01:42Z</time>
      </trkpt>
      <trkpt lat="43.42707" lon="1.46203">
        <ele>182</ele>
        <time>2018-06-10T11:01:42Z</time>
      </trkpt>
      <trkpt lat="43.42707" lon="1.46198">
        <ele>182</ele>
        <time>2018-06-10T11:01:42Z</time>
      </trkpt>
      <trkpt lat="43.42708" lon="1.46194">
        <ele>182</ele>
        <time>2018-06-10T11:01:42Z</time>
      </trkpt>
      <trkpt lat="43.4271" lon="1.46189">
        <ele>185</ele>
        <time>2018-06-10T11:01:42Z</time>
      </trkpt>
      <trkpt lat="43.42713" lon="1.46182">
        <ele>185</ele>
        <time>2018-06-10T11:01:59Z</time>
      </trkpt>
      <trkpt lat="43.42713" lon="1.46177">
        <ele>185</ele>
        <time>2018-06-10T11:01:59Z</time>
      </trkpt>
      <trkpt lat="43.42716" lon="1.46171">
        <ele>185</ele>
        <time>2018-06-10T11:01:59Z</time>
      </trkpt>
      <trkpt lat="43.42717" lon="1.46163">
        <ele>185</ele>
        <time>2018-06-10T11:01:59Z</time>
      </trkpt>
      <trkpt lat="43.42717" lon="1.4616">
        <ele>185</ele>
        <time>2018-06-10T11:02:19Z</time>
      </trkpt>
      <trkpt lat="43.42715" lon="1.46156">
        <ele>185</ele>
        <time>2018-06-10T11:02:19Z</time>
      </trkpt>
      <trkpt lat="43.42713" lon="1.46154">
        <ele>185</ele>
        <time>2018-06-10T11:02:19Z</time>
      </trkpt>
      <trkpt lat="43.42713" lon="1.4615">
        <ele>185</ele>
        <time>2018-06-10T11:02:19Z</time>
      </trkpt>
      <trkpt lat="43.42714" lon="1.46141">
        <ele>185</ele>
        <time>2018-06-10T11:02:19Z</time>
      </trkpt>
      <trkpt lat="43.42716" lon="1.46136">
        <ele>185</ele>
        <time>2018-06-10T11:02:34Z</time>
      </trkpt>
      <trkpt lat="43.42717" lon="1.46132">
        <ele>185</ele>
        <time>2018-06-10T11:02:34Z</time>
      </trkpt>
      <trkpt lat="43.42718" lon="1.46127">
        <ele>185</ele>
        <time>2018-06-10T11:02:34Z</time>
      </trkpt>
      <trkpt lat="43.42718" lon="1.46123">
        <ele>185</ele>
        <time>2018-06-10T11:02:34Z</time>
      </trkpt>
      <trkpt lat="43.4272" lon="1.46123">
        <ele>185</ele>
        <time>2018-06-10T11:02:50Z</time>
      </trkpt>
      <trkpt lat="43.42721" lon="1.46116">
        <ele>185</ele>
        <time>2018-06-10T11:02:50Z</time>
      </trkpt>
      <trkpt lat="43.42723" lon="1.46106">
        <ele>185</ele>
        <time>2018-06-10T11:02:50Z</time>
      </trkpt>
      <trkpt lat="43.42724" lon="1.46098">
        <ele>185</ele>
        <time>2018-06-10T11:02:50Z</time>
      </trkpt>
      <trkpt lat="43.42727" lon="1.4609">
        <ele>185</ele>
        <time>2018-06-10T11:03:07Z</time>
      </trkpt>
      <trkpt lat="43.4273" lon="1.46086">
        <ele>185</ele>
        <time>2018-06-10T11:03:07Z</time>
      </trkpt>
      <trkpt lat="43.42734" lon="1.4608">
        <ele>185</ele>
        <time>2018-06-10T11:03:07Z</time>
      </trkpt>
      <trkpt lat="43.42735" lon="1.46075">
        <ele>185</ele>
        <time>2018-06-10T11:03:07Z</time>
      </trkpt>
      <trkpt lat="43.42735" lon="1.46072">
        <ele>185</ele>
        <time>2018-06-10T11:03:22Z</time>
      </trkpt>
      <trkpt lat="43.42737" lon="1.46065">
        <ele>185</ele>
        <time>2018-06-10T11:03:22Z</time>
      </trkpt>
      <trkpt lat="43.42738" lon="1.46061">
        <ele>185</ele>
        <time>2018-06-10T11:03:22Z</time>
      </trkpt>
      <trkpt lat="43.42737" lon="1.46056">
        <ele>185</ele>
        <time>2018-06-10T11:03:22Z</time>
      </trkpt>
      <trkpt lat="43.4274" lon="1.46049">
        <ele>185</ele>
        <time>2018-06-10T11:03:38Z</time>
      </trkpt>
      <trkpt lat="43.4274" lon="1.46043">
        <ele>185</ele>
        <time>2018-06-10T11:03:38Z</time>
      </trkpt>
      <trkpt lat="43.42743" lon="1.46036">
        <ele>187</ele>
        <time>2018-06-10T11:03:38Z</time>
      </trkpt>
      <trkpt lat="43.42744" lon="1.4603">
        <ele>187</ele>
        <time>2018-06-10T11:03:38Z</time>
      </trkpt>
      <trkpt lat="43.42748" lon="1.46026">
        <ele>187</ele>
        <time>2018-06-10T11:03:54Z</time>
      </trkpt>
      <trkpt lat="43.42751" lon="1.4602">
        <ele>187</ele>
        <time>2018-06-10T11:03:54Z</time>
      </trkpt>
      <trkpt lat="43.42754" lon="1.46019">
        <ele>187</ele>
        <time>2018-06-10T11:03:54Z</time>
      </trkpt>
      <trkpt lat="43.42753" lon="1.46013">
        <ele>187</ele>
        <time>2018-06-10T11:03:54Z</time>
      </trkpt>
      <trkpt lat="43.42752" lon="1.46005">
        <ele>187</ele>
        <time>2018-06-10T11:04:10Z</time>
      </trkpt>
      <trkpt lat="43.42753" lon="1.46002">
        <ele>187</ele>
        <time>2018-06-10T11:04:10Z</time>
      </trkpt>
      <trkpt lat="43.42754" lon="1.45995">
        <ele>187</ele>
        <time>2018-06-10T11:04:10Z</time>
      </trkpt>
      <trkpt lat="43.42756" lon="1.45989">
        <ele>187</ele>
        <time>2018-06-10T11:04:10Z</time>
      </trkpt>
      <trkpt lat="43.42757" lon="1.45982">
        <ele>187</ele>
        <time>2018-06-10T11:04:26Z</time>
      </trkpt>
      <trkpt lat="43.42758" lon="1.45973">
        <ele>187</ele>
        <time>2018-06-10T11:04:26Z</time>
      </trkpt>
      <trkpt lat="43.42758" lon="1.45968">
        <ele>187</ele>
        <time>2018-06-10T11:04:26Z</time>
      </trkpt>
      <trkpt lat="43.42758" lon="1.45962">
        <ele>187</ele>
        <time>2018-06-10T11:04:26Z</time>
      </trkpt>
      <trkpt lat="43.42759" lon="1.45956">
        <ele>188</ele>
        <time>2018-06-10T11:04:43Z</time>
      </trkpt>
      <trkpt lat="43.4276" lon="1.4595">
        <ele>188</ele>
        <time>2018-06-10T11:04:43Z</time>
      </trkpt>
      <trkpt lat="43.42761" lon="1.45946">
        <ele>188</ele>
        <time>2018-06-10T11:04:43Z</time>
      </trkpt>
      <trkpt lat="43.42761" lon="1.45943">
        <ele>188</ele>
        <time>2018-06-10T11:04:43Z</time>
      </trkpt>
      <trkpt lat="43.42762" lon="1.45937">
        <ele>188</ele>
        <time>2018-06-10T11:04:58Z</time>
      </trkpt>
      <trkpt lat="43.42763" lon="1.45928">
        <ele>188</ele>
        <time>2018-06-10T11:04:58Z</time>
      </trkpt>
      <trkpt lat="43.42764" lon="1.45924">
        <ele>188</ele>
        <time>2018-06-10T11:04:58Z</time>
      </trkpt>
      <trkpt lat="43.42765" lon="1.4592">
        <ele>188</ele>
        <time>2018-06-10T11:04:58Z</time>
      </trkpt>
      <trkpt lat="43.42767" lon="1.45913">
        <ele>188</ele>
        <time>2018-06-10T11:05:14Z</time>
      </trkpt>
      <trkpt lat="43.4277" lon="1.45905">
        <ele>188</ele>
        <time>2018-06-10T11:05:14Z</time>
      </trkpt>
      <trkpt lat="43.42773" lon="1.459">
        <ele>188</ele>
        <time>2018-06-10T11:05:14Z</time>
      </trkpt>
      <trkpt lat="43.42775" lon="1.45893">
        <ele>188</ele>
        <time>2018-06-10T11:05:14Z</time>
      </trkpt>
      <trkpt lat="43.42778" lon="1.45887">
        <ele>188</ele>
        <time>2018-06-10T11:05:30Z</time>
      </trkpt>
      <trkpt lat="43.4278" lon="1.45881">
        <ele>188</ele>
        <time>2018-06-10T11:05:30Z</time>
      </trkpt>
      <trkpt lat="43.42782" lon="1.45876">
        <ele>188</ele>
        <time>2018-06-10T11:05:30Z</time>
      </trkpt>
      <trkpt lat="43.42784" lon="1.45871">
        <ele>187</ele>
        <time>2018-06-10T11:05:30Z</time>
      </trkpt>
      <trkpt lat="43.42784" lon="1.45866">
        <ele>187</ele>
        <time>2018-06-10T11:05:46Z</time>
      </trkpt>
      <trkpt lat="43.42786" lon="1.45861">
        <ele>187</ele>
        <time>2018-06-10T11:05:46Z</time>
      </trkpt>
      <trkpt lat="43.42789" lon="1.45854">
        <ele>187</ele>
        <time>2018-06-10T11:05:46Z</time>
      </trkpt>
      <trkpt lat="43.42791" lon="1.4585">
        <ele>187</ele>
        <time>2018-06-10T11:05:46Z</time>
      </trkpt>
      <trkpt lat="43.42792" lon="1.45849">
        <ele>190</ele>
        <time>2018-06-10T11:06:03Z</time>
      </trkpt>
      <trkpt lat="43.42794" lon="1.45843">
        <ele>190</ele>
        <time>2018-06-10T11:06:03Z</time>
      </trkpt>
      <trkpt lat="43.42795" lon="1.45836">
        <ele>190</ele>
        <time>2018-06-10T11:06:03Z</time>
      </trkpt>
      <trkpt lat="43.42796" lon="1.45829">
        <ele>190</ele>
        <time>2018-06-10T11:06:03Z</time>
      </trkpt>
      <trkpt lat="43.42796" lon="1.45825">
        <ele>190</ele>
        <time>2018-06-10T11:06:18Z</time>
      </trkpt>
      <trkpt lat="43.42798" lon="1.45819">
        <ele>190</ele>
        <time>2018-06-10T11:06:18Z</time>
      </trkpt>
      <trkpt lat="43.42799" lon="1.45811">
        <ele>190</ele>
        <time>2018-06-10T11:06:18Z</time>
      </trkpt>
      <trkpt lat="43.42799" lon="1.45807">
        <ele>190</ele>
        <time>2018-06-10T11:06:18Z</time>
      </trkpt>
      <trkpt lat="43.42799" lon="1.458">
        <ele>190</ele>
        <time>2018-06-10T11:06:34Z</time>
      </trkpt>
      <trkpt lat="43.42801" lon="1.45796">
        <ele>190</ele>
        <time>2018-06-10T11:06:34Z</time>
      </trkpt>
      <trkpt lat="43.42801" lon="1.4579">
        <ele>188</ele>
        <time>2018-06-10T11:06:34Z</time>
      </trkpt>
      <trkpt lat="43.42801" lon="1.45784">
        <ele>188</ele>
        <time>2018-06-10T11:06:34Z</time>
      </trkpt>
      <trkpt lat="43.42802" lon="1.45777">
        <ele>188</ele>
        <time>2018-06-10T11:06:50Z</time>
      </trkpt>
      <trkpt lat="43.42805" lon="1.45768">
        <ele>188</ele>
        <time>2018-06-10T11:06:50Z</time>
      </trkpt>
      <trkpt lat="43.42806" lon="1.45764">
        <ele>188</ele>
        <time>2018-06-10T11:06:50Z</time>
      </trkpt>
      <trkpt lat="43.42809" lon="1.45757">
        <ele>188</ele>
        <time>2018-06-10T11:06:50Z</time>
      </trkpt>
      <trkpt lat="43.4281" lon="1.45751">
        <ele>188</ele>
        <time>2018-06-10T11:07:10Z</time>
      </trkpt>
      <trkpt lat="43.42811" lon="1.45746">
        <ele>188</ele>
        <time>2018-06-10T11:07:10Z</time>
      </trkpt>
      <trkpt lat="43.4281" lon="1.45743">
        <ele>188</ele>
        <time>2018-06-10T11:07:10Z</time>
      </trkpt>
      <trkpt lat="43.42812" lon="1.45739">
        <ele>188</ele>
        <time>2018-06-10T11:07:10Z</time>
      </trkpt>
      <trkpt lat="43.42812" lon="1.45736">
        <ele>188</ele>
        <time>2018-06-10T11:07:10Z</time>
      </trkpt>
      <trkpt lat="43.42816" lon="1.45729">
        <ele>188</ele>
        <time>2018-06-10T11:07:26Z</time>
      </trkpt>
      <trkpt lat="43.42818" lon="1.45719">
        <ele>188</ele>
        <time>2018-06-10T11:07:26Z</time>
      </trkpt>
      <trkpt lat="43.42817" lon="1.45714">
        <ele>188</ele>
        <time>2018-06-10T11:07:26Z</time>
      </trkpt>
      <trkpt lat="43.42819" lon="1.45708">
        <ele>185</ele>
        <time>2018-06-10T11:07:26Z</time>
      </trkpt>
      <trkpt lat="43.42821" lon="1.45702">
        <ele>185</ele>
        <time>2018-06-10T11:07:42Z</time>
      </trkpt>
      <trkpt lat="43.42822" lon="1.45696">
        <ele>185</ele>
        <time>2018-06-10T11:07:42Z</time>
      </trkpt>
      <trkpt lat="43.42823" lon="1.45687">
        <ele>185</ele>
        <time>2018-06-10T11:07:42Z</time>
      </trkpt>
      <trkpt lat="43.42822" lon="1.45683">
        <ele>185</ele>
        <time>2018-06-10T11:07:42Z</time>
      </trkpt>
      <trkpt lat="43.42823" lon="1.45678">
        <ele>185</ele>
        <time>2018-06-10T11:07:58Z</time>
      </trkpt>
      <trkpt lat="43.42825" lon="1.45671">
        <ele>185</ele>
        <time>2018-06-10T11:07:58Z</time>
      </trkpt>
      <trkpt lat="43.42828" lon="1.45664">
        <ele>185</ele>
        <time>2018-06-10T11:07:58Z</time>
      </trkpt>
      <trkpt lat="43.42831" lon="1.45658">
        <ele>185</ele>
        <time>2018-06-10T11:07:58Z</time>
      </trkpt>
      <trkpt lat="43.42833" lon="1.45651">
        <ele>185</ele>
        <time>2018-06-10T11:08:14Z</time>
      </trkpt>
      <trkpt lat="43.42833" lon="1.45647">
        <ele>185</ele>
        <time>2018-06-10T11:08:14Z</time>
      </trkpt>
      <trkpt lat="43.42835" lon="1.4564">
        <ele>185</ele>
        <time>2018-06-10T11:08:14Z</time>
      </trkpt>
      <trkpt lat="43.42837" lon="1.45636">
        <ele>185</ele>
        <time>2018-06-10T11:08:14Z</time>
      </trkpt>
      <trkpt lat="43.42839" lon="1.45629">
        <ele>185</ele>
        <time>2018-06-10T11:08:30Z</time>
      </trkpt>
      <trkpt lat="43.42839" lon="1.4562">
        <ele>184</ele>
        <time>2018-06-10T11:08:30Z</time>
      </trkpt>
      <trkpt lat="43.4284" lon="1.45614">
        <ele>184</ele>
        <time>2018-06-10T11:08:30Z</time>
      </trkpt>
      <trkpt lat="43.42842" lon="1.45607">
        <ele>184</ele>
        <time>2018-06-10T11:08:30Z</time>
      </trkpt>
      <trkpt lat="43.42843" lon="1.456">
        <ele>184</ele>
        <time>2018-06-10T11:08:46Z</time>
      </trkpt>
      <trkpt lat="43.42845" lon="1.45594">
        <ele>184</ele>
        <time>2018-06-10T11:08:46Z</time>
      </trkpt>
      <trkpt lat="43.42848" lon="1.45588">
        <ele>184</ele>
        <time>2018-06-10T11:08:46Z</time>
      </trkpt>
      <trkpt lat="43.4285" lon="1.45584">
        <ele>184</ele>
        <time>2018-06-10T11:08:46Z</time>
      </trkpt>
      <trkpt lat="43.4285" lon="1.45578">
        <ele>184</ele>
        <time>2018-06-10T11:09:02Z</time>
      </trkpt>
      <trkpt lat="43.4285" lon="1.45568">
        <ele>184</ele>
        <time>2018-06-10T11:09:02Z</time>
      </trkpt>
      <trkpt lat="43.4285" lon="1.45563">
        <ele>184</ele>
        <time>2018-06-10T11:09:02Z</time>
      </trkpt>
      <trkpt lat="43.4285" lon="1.45555">
        <ele>184</ele>
        <time>2018-06-10T11:09:02Z</time>
      </trkpt>
      <trkpt lat="43.42849" lon="1.45545">
        <ele>184</ele>
        <time>2018-06-10T11:09:19Z</time>
      </trkpt>
      <trkpt lat="43.42849" lon="1.4554">
        <ele>183</ele>
        <time>2018-06-10T11:09:19Z</time>
      </trkpt>
      <trkpt lat="43.4285" lon="1.45535">
        <ele>183</ele>
        <time>2018-06-10T11:09:19Z</time>
      </trkpt>
      <trkpt lat="43.42853" lon="1.45528">
        <ele>183</ele>
        <time>2018-06-10T11:09:19Z</time>
      </trkpt>
      <trkpt lat="43.42854" lon="1.45522">
        <ele>183</ele>
        <time>2018-06-10T11:09:34Z</time>
      </trkpt>
      <trkpt lat="43.42855" lon="1.45515">
        <ele>183</ele>
        <time>2018-06-10T11:09:34Z</time>
      </trkpt>
      <trkpt lat="43.42857" lon="1.4551">
        <ele>183</ele>
        <time>2018-06-10T11:09:34Z</time>
      </trkpt>
      <trkpt lat="43.4286" lon="1.45506">
        <ele>183</ele>
        <time>2018-06-10T11:09:34Z</time>
      </trkpt>
      <trkpt lat="43.42861" lon="1.45498">
        <ele>183</ele>
        <time>2018-06-10T11:09:51Z</time>
      </trkpt>
      <trkpt lat="43.42861" lon="1.45493">
        <ele>183</ele>
        <time>2018-06-10T11:09:51Z</time>
      </trkpt>
      <trkpt lat="43.42863" lon="1.45487">
        <ele>183</ele>
        <time>2018-06-10T11:09:51Z</time>
      </trkpt>
      <trkpt lat="43.42864" lon="1.45479">
        <ele>183</ele>
        <time>2018-06-10T11:09:51Z</time>
      </trkpt>
      <trkpt lat="43.42866" lon="1.45474">
        <ele>183</ele>
        <time>2018-06-10T11:10:06Z</time>
      </trkpt>
      <trkpt lat="43.42867" lon="1.45469">
        <ele>183</ele>
        <time>2018-06-10T11:10:06Z</time>
      </trkpt>
      <trkpt lat="43.42869" lon="1.45464">
        <ele>183</ele>
        <time>2018-06-10T11:10:06Z</time>
      </trkpt>
      <trkpt lat="43.4287" lon="1.45458">
        <ele>183</ele>
        <time>2018-06-10T11:10:06Z</time>
      </trkpt>
      <trkpt lat="43.4287" lon="1.4545">
        <ele>183</ele>
        <time>2018-06-10T11:10:23Z</time>
      </trkpt>
      <trkpt lat="43.4287" lon="1.45445">
        <ele>183</ele>
        <time>2018-06-10T11:10:23Z</time>
      </trkpt>
      <trkpt lat="43.42872" lon="1.4544">
        <ele>183</ele>
        <time>2018-06-10T11:10:23Z</time>
      </trkpt>
      <trkpt lat="43.42875" lon="1.45433">
        <ele>183</ele>
        <time>2018-06-10T11:10:23Z</time>
      </trkpt>
      <trkpt lat="43.42877" lon="1.45431">
        <ele>187</ele>
        <time>2018-06-10T11:10:38Z</time>
      </trkpt>
      <trkpt lat="43.42879" lon="1.45426">
        <ele>187</ele>
        <time>2018-06-10T11:10:38Z</time>
      </trkpt>
      <trkpt lat="43.4288" lon="1.45421">
        <ele>187</ele>
        <time>2018-06-10T11:10:38Z</time>
      </trkpt>
      <trkpt lat="43.42883" lon="1.45411">
        <ele>187</ele>
        <time>2018-06-10T11:10:38Z</time>
      </trkpt>
      <trkpt lat="43.42887" lon="1.45405">
        <ele>187</ele>
        <time>2018-06-10T11:10:54Z</time>
      </trkpt>
      <trkpt lat="43.42888" lon="1.45401">
        <ele>187</ele>
        <time>2018-06-10T11:10:54Z</time>
      </trkpt>
      <trkpt lat="43.42891" lon="1.45397">
        <ele>187</ele>
        <time>2018-06-10T11:10:54Z</time>
      </trkpt>
      <trkpt lat="43.42894" lon="1.45389">
        <ele>187</ele>
        <time>2018-06-10T11:10:54Z</time>
      </trkpt>
      <trkpt lat="43.42898" lon="1.45386">
        <ele>187</ele>
        <time>2018-06-10T11:11:10Z</time>
      </trkpt>
      <trkpt lat="43.429" lon="1.45382">
        <ele>187</ele>
        <time>2018-06-10T11:11:10Z</time>
      </trkpt>
      <trkpt lat="43.42905" lon="1.45378">
        <ele>187</ele>
        <time>2018-06-10T11:11:10Z</time>
      </trkpt>
      <trkpt lat="43.42908" lon="1.45375">
        <ele>187</ele>
        <time>2018-06-10T11:11:10Z</time>
      </trkpt>
      <trkpt lat="43.42912" lon="1.45367">
        <ele>186</ele>
        <time>2018-06-10T11:11:27Z</time>
      </trkpt>
      <trkpt lat="43.42914" lon="1.45361">
        <ele>186</ele>
        <time>2018-06-10T11:11:27Z</time>
      </trkpt>
      <trkpt lat="43.42918" lon="1.45358">
        <ele>186</ele>
        <time>2018-06-10T11:11:27Z</time>
      </trkpt>
      <trkpt lat="43.42922" lon="1.45352">
        <ele>186</ele>
        <time>2018-06-10T11:11:27Z</time>
      </trkpt>
      <trkpt lat="43.42925" lon="1.45349">
        <ele>186</ele>
        <time>2018-06-10T11:11:42Z</time>
      </trkpt>
      <trkpt lat="43.42929" lon="1.45342">
        <ele>186</ele>
        <time>2018-06-10T11:11:42Z</time>
      </trkpt>
      <trkpt lat="43.42933" lon="1.45336">
        <ele>186</ele>
        <time>2018-06-10T11:11:42Z</time>
      </trkpt>
      <trkpt lat="43.42935" lon="1.45333">
        <ele>186</ele>
        <time>2018-06-10T11:11:42Z</time>
      </trkpt>
      <trkpt lat="43.42938" lon="1.45328">
        <ele>186</ele>
        <time>2018-06-10T11:11:58Z</time>
      </trkpt>
      <trkpt lat="43.42943" lon="1.45323">
        <ele>186</ele>
        <time>2018-06-10T11:11:58Z</time>
      </trkpt>
      <trkpt lat="43.42946" lon="1.45318">
        <ele>186</ele>
        <time>2018-06-10T11:11:58Z</time>
      </trkpt>
      <trkpt lat="43.42947" lon="1.45312">
        <ele>186</ele>
        <time>2018-06-10T11:11:58Z</time>
      </trkpt>
      <trkpt lat="43.42947" lon="1.45305">
        <ele>186</ele>
        <time>2018-06-10T11:12:14Z</time>
      </trkpt>
      <trkpt lat="43.4295" lon="1.453">
        <ele>186</ele>
        <time>2018-06-10T11:12:14Z</time>
      </trkpt>
      <trkpt lat="43.42953" lon="1.45291">
        <ele>184</ele>
        <time>2018-06-10T11:12:14Z</time>
      </trkpt>
      <trkpt lat="43.42955" lon="1.45286">
        <ele>184</ele>
        <time>2018-06-10T11:12:14Z</time>
      </trkpt>
      <trkpt lat="43.42959" lon="1.4528">
        <ele>190</ele>
        <time>2018-06-10T11:12:30Z</time>
      </trkpt>
      <trkpt lat="43.42961" lon="1.45275">
        <ele>190</ele>
        <time>2018-06-10T11:12:30Z</time>
      </trkpt>
      <trkpt lat="43.42961" lon="1.45272">
        <ele>190</ele>
        <time>2018-06-10T11:12:30Z</time>
      </trkpt>
      <trkpt lat="43.42964" lon="1.45268">
        <ele>190</ele>
        <time>2018-06-10T11:12:30Z</time>
      </trkpt>
      <trkpt lat="43.42968" lon="1.45261">
        <ele>190</ele>
        <time>2018-06-10T11:12:46Z</time>
      </trkpt>
      <trkpt lat="43.4297" lon="1.45257">
        <ele>190</ele>
        <time>2018-06-10T11:12:46Z</time>
      </trkpt>
      <trkpt lat="43.42972" lon="1.4525">
        <ele>190</ele>
        <time>2018-06-10T11:12:46Z</time>
      </trkpt>
      <trkpt lat="43.42974" lon="1.45246">
        <ele>190</ele>
        <time>2018-06-10T11:12:46Z</time>
      </trkpt>
      <trkpt lat="43.42977" lon="1.45241">
        <ele>190</ele>
        <time>2018-06-10T11:13:02Z</time>
      </trkpt>
      <trkpt lat="43.4298" lon="1.45234">
        <ele>190</ele>
        <time>2018-06-10T11:13:02Z</time>
      </trkpt>
      <trkpt lat="43.42981" lon="1.45229">
        <ele>190</ele>
        <time>2018-06-10T11:13:02Z</time>
      </trkpt>
      <trkpt lat="43.42982" lon="1.45222">
        <ele>190</ele>
        <time>2018-06-10T11:13:02Z</time>
      </trkpt>
      <trkpt lat="43.42984" lon="1.45218">
        <ele>190</ele>
        <time>2018-06-10T11:13:18Z</time>
      </trkpt>
      <trkpt lat="43.42986" lon="1.45213">
        <ele>190</ele>
        <time>2018-06-10T11:13:18Z</time>
      </trkpt>
      <trkpt lat="43.42989" lon="1.45206">
        <ele>188</ele>
        <time>2018-06-10T11:13:18Z</time>
      </trkpt>
      <trkpt lat="43.4299" lon="1.45201">
        <ele>188</ele>
        <time>2018-06-10T11:13:18Z</time>
      </trkpt>
      <trkpt lat="43.42993" lon="1.45195">
        <ele>188</ele>
        <time>2018-06-10T11:13:34Z</time>
      </trkpt>
      <trkpt lat="43.42995" lon="1.45189">
        <ele>188</ele>
        <time>2018-06-10T11:13:34Z</time>
      </trkpt>
      <trkpt lat="43.42996" lon="1.45183">
        <ele>188</ele>
        <time>2018-06-10T11:13:34Z</time>
      </trkpt>
      <trkpt lat="43.42999" lon="1.45176">
        <ele>188</ele>
        <time>2018-06-10T11:13:34Z</time>
      </trkpt>
      <trkpt lat="43.43002" lon="1.45168">
        <ele>188</ele>
        <time>2018-06-10T11:13:50Z</time>
      </trkpt>
      <trkpt lat="43.43005" lon="1.45163">
        <ele>188</ele>
        <time>2018-06-10T11:13:50Z</time>
      </trkpt>
      <trkpt lat="43.43008" lon="1.45156">
        <ele>188</ele>
        <time>2018-06-10T11:13:50Z</time>
      </trkpt>
      <trkpt lat="43.43009" lon="1.4515">
        <ele>188</ele>
        <time>2018-06-10T11:13:50Z</time>
      </trkpt>
      <trkpt lat="43.43011" lon="1.45143">
        <ele>188</ele>
        <time>2018-06-10T11:14:06Z</time>
      </trkpt>
      <trkpt lat="43.43014" lon="1.45137">
        <ele>188</ele>
        <time>2018-06-10T11:14:06Z</time>
      </trkpt>
      <trkpt lat="43.43016" lon="1.45132">
        <ele>188</ele>
        <time>2018-06-10T11:14:06Z</time>
      </trkpt>
      <trkpt lat="43.4302" lon="1.45127">
        <ele>188</ele>
        <time>2018-06-10T11:14:06Z</time>
      </trkpt>
      <trkpt lat="43.43022" lon="1.4512">
        <ele>183</ele>
        <time>2018-06-10T11:14:23Z</time>
      </trkpt>
      <trkpt lat="43.43023" lon="1.45116">
        <ele>183</ele>
        <time>2018-06-10T11:14:23Z</time>
      </trkpt>
      <trkpt lat="43.43025" lon="1.4511">
        <ele>183</ele>
        <time>2018-06-10T11:14:23Z</time>
      </trkpt>
      <trkpt lat="43.43027" lon="1.45102">
        <ele>183</ele>
        <time>2018-06-10T11:14:23Z</time>
      </trkpt>
      <trkpt lat="43.43029" lon="1.45097">
        <ele>183</ele>
        <time>2018-06-10T11:14:38Z</time>
      </trkpt>
      <trkpt lat="43.43033" lon="1.45088">
        <ele>183</ele>
        <time>2018-06-10T11:14:38Z</time>
      </trkpt>
      <trkpt lat="43.43036" lon="1.45085">
        <ele>183</ele>
        <time>2018-06-10T11:14:38Z</time>
      </trkpt>
      <trkpt lat="43.43039" lon="1.45079">
        <ele>183</ele>
        <time>2018-06-10T11:14:38Z</time>
      </trkpt>
      <trkpt lat="43.43042" lon="1.45072">
        <ele>195</ele>
        <time>2018-06-10T11:14:54Z</time>
      </trkpt>
      <trkpt lat="43.43044" lon="1.45068">
        <ele>195</ele>
        <time>2018-06-10T11:14:54Z</time>
      </trkpt>
      <trkpt lat="43.43047" lon="1.45063">
        <ele>195</ele>
        <time>2018-06-10T11:14:54Z</time>
      </trkpt>
      <trkpt lat="43.4305" lon="1.45058">
        <ele>195</ele>
        <time>2018-06-10T11:14:54Z</time>
      </trkpt>
      <trkpt lat="43.43052" lon="1.45053">
        <ele>195</ele>
        <time>2018-06-10T11:15:10Z</time>
      </trkpt>
      <trkpt lat="43.43055" lon="1.45047">
        <ele>195</ele>
        <time>2018-06-10T11:15:10Z</time>
      </trkpt>
      <trkpt lat="43.43059" lon="1.45041">
        <ele>188</ele>
        <time>2018-06-10T11:15:10Z</time>
      </trkpt>
      <trkpt lat="43.43061" lon="1.45039">
        <ele>188</ele>
        <time>2018-06-10T11:15:10Z</time>
      </trkpt>
      <trkpt lat="43.43064" lon="1.45032">
        <ele>188</ele>
        <time>2018-06-10T11:15:27Z</time>
      </trkpt>
      <trkpt lat="43.43066" lon="1.45029">
        <ele>188</ele>
        <time>2018-06-10T11:15:27Z</time>
      </trkpt>
      <trkpt lat="43.43067" lon="1.45023">
        <ele>188</ele>
        <time>2018-06-10T11:15:27Z</time>
      </trkpt>
      <trkpt lat="43.43069" lon="1.45016">
        <ele>188</ele>
        <time>2018-06-10T11:15:27Z</time>
      </trkpt>
      <trkpt lat="43.43072" lon="1.45012">
        <ele>188</ele>
        <time>2018-06-10T11:15:42Z</time>
      </trkpt>
      <trkpt lat="43.43075" lon="1.45006">
        <ele>188</ele>
        <time>2018-06-10T11:15:42Z</time>
      </trkpt>
      <trkpt lat="43.43078" lon="1.44999">
        <ele>188</ele>
        <time>2018-06-10T11:15:42Z</time>
      </trkpt>
      <trkpt lat="43.4308" lon="1.44995">
        <ele>188</ele>
        <time>2018-06-10T11:15:42Z</time>
      </trkpt>
      <trkpt lat="43.43084" lon="1.4499">
        <ele>188</ele>
        <time>2018-06-10T11:15:59Z</time>
      </trkpt>
      <trkpt lat="43.43088" lon="1.44982">
        <ele>188</ele>
        <time>2018-06-10T11:15:59Z</time>
      </trkpt>
      <trkpt lat="43.43091" lon="1.44976">
        <ele>188</ele>
        <time>2018-06-10T11:15:59Z</time>
      </trkpt>
      <trkpt lat="43.43094" lon="1.4497">
        <ele>188</ele>
        <time>2018-06-10T11:15:59Z</time>
      </trkpt>
      <trkpt lat="43.43096" lon="1.44968">
        <ele>188</ele>
        <time>2018-06-10T11:16:14Z</time>
      </trkpt>
      <trkpt lat="43.43099" lon="1.44962">
        <ele>188</ele>
        <time>2018-06-10T11:16:14Z</time>
      </trkpt>
      <trkpt lat="43.43099" lon="1.44953">
        <ele>184</ele>
        <time>2018-06-10T11:16:14Z</time>
      </trkpt>
      <trkpt lat="43.431" lon="1.44948">
        <ele>184</ele>
        <time>2018-06-10T11:16:14Z</time>
      </trkpt>
      <trkpt lat="43.43101" lon="1.44943">
        <ele>184</ele>
        <time>2018-06-10T11:16:30Z</time>
      </trkpt>
      <trkpt lat="43.43105" lon="1.44937">
        <ele>184</ele>
        <time>2018-06-10T11:16:30Z</time>
      </trkpt>
      <trkpt lat="43.43109" lon="1.44934">
        <ele>184</ele>
        <time>2018-06-10T11:16:30Z</time>
      </trkpt>
      <trkpt lat="43.43112" lon="1.44928">
        <ele>184</ele>
        <time>2018-06-10T11:16:30Z</time>
      </trkpt>
      <trkpt lat="43.43115" lon="1.44921">
        <ele>184</ele>
        <time>2018-06-10T11:16:46Z</time>
      </trkpt>
      <trkpt lat="43.43116" lon="1.44917">
        <ele>184</ele>
        <time>2018-06-10T11:16:46Z</time>
      </trkpt>
      <trkpt lat="43.43119" lon="1.44912">
        <ele>184</ele>
        <time>2018-06-10T11:16:46Z</time>
      </trkpt>
      <trkpt lat="43.43121" lon="1.4491">
        <ele>184</ele>
        <time>2018-06-10T11:16:46Z</time>
      </trkpt>
      <trkpt lat="43.43125" lon="1.44907">
        <ele>184</ele>
        <time>2018-06-10T11:17:02Z</time>
      </trkpt>
      <trkpt lat="43.43129" lon="1.449">
        <ele>200</ele>
        <time>2018-06-10T11:17:02Z</time>
      </trkpt>
      <trkpt lat="43.43132" lon="1.44894">
        <ele>200</ele>
        <time>2018-06-10T11:17:02Z</time>
      </trkpt>
      <trkpt lat="43.43134" lon="1.44888">
        <ele>200</ele>
        <time>2018-06-10T11:17:02Z</time>
      </trkpt>
      <trkpt lat="43.43135" lon="1.44882">
        <ele>200</ele>
        <time>2018-06-10T11:17:18Z</time>
      </trkpt>
      <trkpt lat="43.43137" lon="1.44876">
        <ele>200</ele>
        <time>2018-06-10T11:17:18Z</time>
      </trkpt>
      <trkpt lat="43.4314" lon="1.4487">
        <ele>194</ele>
        <time>2018-06-10T11:17:18Z</time>
      </trkpt>
      <trkpt lat="43.43143" lon="1.44868">
        <ele>194</ele>
        <time>2018-06-10T11:17:18Z</time>
      </trkpt>
      <trkpt lat="43.43148" lon="1.44864">
        <ele>194</ele>
        <time>2018-06-10T11:17:34Z</time>
      </trkpt>
      <trkpt lat="43.43154" lon="1.44858">
        <ele>194</ele>
        <time>2018-06-10T11:17:34Z</time>
      </trkpt>
      <trkpt lat="43.43155" lon="1.44854">
        <ele>194</ele>
        <time>2018-06-10T11:17:34Z</time>
      </trkpt>
      <trkpt lat="43.43158" lon="1.4485">
        <ele>194</ele>
        <time>2018-06-10T11:17:34Z</time>
      </trkpt>
      <trkpt lat="43.43162" lon="1.44848">
        <ele>194</ele>
        <time>2018-06-10T11:17:50Z</time>
      </trkpt>
      <trkpt lat="43.43165" lon="1.44842">
        <ele>194</ele>
        <time>2018-06-10T11:17:50Z</time>
      </trkpt>
      <trkpt lat="43.43171" lon="1.44837">
        <ele>194</ele>
        <time>2018-06-10T11:17:50Z</time>
      </trkpt>
      <trkpt lat="43.43172" lon="1.44834">
        <ele>194</ele>
        <time>2018-06-10T11:17:50Z</time>
      </trkpt>
      <trkpt lat="43.43173" lon="1.44828">
        <ele>194</ele>
        <time>2018-06-10T11:18:06Z</time>
      </trkpt>
      <trkpt lat="43.43177" lon="1.44824">
        <ele>194</ele>
        <time>2018-06-10T11:18:06Z</time>
      </trkpt>
      <trkpt lat="43.43181" lon="1.44819">
        <ele>194</ele>
        <time>2018-06-10T11:18:06Z</time>
      </trkpt>
      <trkpt lat="43.43184" lon="1.44814">
        <ele>194</ele>
        <time>2018-06-10T11:18:06Z</time>
      </trkpt>
      <trkpt lat="43.43184" lon="1.44816">
        <ele>194</ele>
        <time>2018-06-10T11:18:23Z</time>
      </trkpt>
      <trkpt lat="43.43185" lon="1.44816">
        <ele>194</ele>
        <time>2018-06-10T11:18:23Z</time>
      </trkpt>
      <trkpt lat="43.43189" lon="1.44812">
        <ele>194</ele>
        <time>2018-06-10T11:18:23Z</time>
      </trkpt>
      <trkpt lat="43.43194" lon="1.44806">
        <ele>194</ele>
        <time>2018-06-10T11:18:23Z</time>
      </trkpt>
      <trkpt lat="43.43196" lon="1.44803">
        <ele>194</ele>
        <time>2018-06-10T11:18:38Z</time>
      </trkpt>
      <trkpt lat="43.432" lon="1.44797">
        <ele>194</ele>
        <time>2018-06-10T11:18:38Z</time>
      </trkpt>
      <trkpt lat="43.43202" lon="1.44793">
        <ele>194</ele>
        <time>2018-06-10T11:18:38Z</time>
      </trkpt>
      <trkpt lat="43.43206" lon="1.44789">
        <ele>189</ele>
        <time>2018-06-10T11:18:38Z</time>
      </trkpt>
      <trkpt lat="43.4321" lon="1.44786">
        <ele>197</ele>
        <time>2018-06-10T11:19:02Z</time>
      </trkpt>
      <trkpt lat="43.4321" lon="1.44786">
        <ele>197</ele>
        <time>2018-06-10T11:19:02Z</time>
      </trkpt>
      <trkpt lat="43.43212" lon="1.44783">
        <ele>197</ele>
        <time>2018-06-10T11:19:02Z</time>
      </trkpt>
      <trkpt lat="43.43215" lon="1.4478">
        <ele>197</ele>
        <time>2018-06-10T11:19:02Z</time>
      </trkpt>
      <trkpt lat="43.43218" lon="1.44777">
        <ele>197</ele>
        <time>2018-06-10T11:19:02Z</time>
      </trkpt>
      <trkpt lat="43.43221" lon="1.44771">
        <ele>197</ele>
        <time>2018-06-10T11:19:19Z</time>
      </trkpt>
      <trkpt lat="43.43224" lon="1.44769">
        <ele>197</ele>
        <time>2018-06-10T11:19:19Z</time>
      </trkpt>
      <trkpt lat="43.43229" lon="1.44768">
        <ele>197</ele>
        <time>2018-06-10T11:19:19Z</time>
      </trkpt>
      <trkpt lat="43.43233" lon="1.44764">
        <ele>197</ele>
        <time>2018-06-10T11:19:19Z</time>
      </trkpt>
      <trkpt lat="43.43239" lon="1.44761">
        <ele>197</ele>
        <time>2018-06-10T11:20:38Z</time>
      </trkpt>
      <trkpt lat="43.43239" lon="1.4476">
        <ele>197</ele>
        <time>2018-06-10T11:20:38Z</time>
      </trkpt>
      <trkpt lat="43.43239" lon="1.4476">
        <ele>197</ele>
        <time>2018-06-10T11:20:38Z</time>
      </trkpt>
      <trkpt lat="43.43242" lon="1.44758">
        <ele>197</ele>
        <time>2018-06-10T11:20:38Z</time>
      </trkpt>
      <trkpt lat="43.43246" lon="1.44756">
        <ele>197</ele>
        <time>2018-06-10T11:20:38Z</time>
      </trkpt>
      <trkpt lat="43.4325" lon="1.44753">
        <ele>197</ele>
        <time>2018-06-10T11:20:54Z</time>
      </trkpt>
      <trkpt lat="43.43254" lon="1.44751">
        <ele>197</ele>
        <time>2018-06-10T11:20:54Z</time>
      </trkpt>
      <trkpt lat="43.43258" lon="1.44747">
        <ele>197</ele>
        <time>2018-06-10T11:20:54Z</time>
      </trkpt>
      <trkpt lat="43.43259" lon="1.44746">
        <ele>197</ele>
        <time>2018-06-10T11:20:54Z</time>
      </trkpt>
      <trkpt lat="43.4326" lon="1.44745">
        <ele>197</ele>
        <time>2018-06-10T11:21:10Z</time>
      </trkpt>
      <trkpt lat="43.43263" lon="1.44743">
        <ele>197</ele>
        <time>2018-06-10T11:21:10Z</time>
      </trkpt>
      <trkpt lat="43.43266" lon="1.44738">
        <ele>197</ele>
        <time>2018-06-10T11:21:10Z</time>
      </trkpt>
      <trkpt lat="43.43268" lon="1.44732">
        <ele>197</ele>
        <time>2018-06-10T11:21:10Z</time>
      </trkpt>
      <trkpt lat="43.4327" lon="1.44727">
        <ele>197</ele>
        <time>2018-06-10T11:21:26Z</time>
      </trkpt>
      <trkpt lat="43.43272" lon="1.44722">
        <ele>197</ele>
        <time>2018-06-10T11:21:26Z</time>
      </trkpt>
      <trkpt lat="43.43275" lon="1.44717">
        <ele>197</ele>
        <time>2018-06-10T11:21:26Z</time>
      </trkpt>
      <trkpt lat="43.43277" lon="1.44714">
        <ele>197</ele>
        <time>2018-06-10T11:21:26Z</time>
      </trkpt>
      <trkpt lat="43.43279" lon="1.44709">
        <ele>197</ele>
        <time>2018-06-10T11:21:42Z</time>
      </trkpt>
      <trkpt lat="43.4328" lon="1.44704">
        <ele>191</ele>
        <time>2018-06-10T11:21:42Z</time>
      </trkpt>
      <trkpt lat="43.43282" lon="1.44699">
        <ele>191</ele>
        <time>2018-06-10T11:21:42Z</time>
      </trkpt>
      <trkpt lat="43.43284" lon="1.44694">
        <ele>191</ele>
        <time>2018-06-10T11:21:42Z</time>
      </trkpt>
      <trkpt lat="43.43286" lon="1.44689">
        <ele>191</ele>
        <time>2018-06-10T11:21:58Z</time>
      </trkpt>
      <trkpt lat="43.43289" lon="1.44684">
        <ele>191</ele>
        <time>2018-06-10T11:21:58Z</time>
      </trkpt>
      <trkpt lat="43.43292" lon="1.44679">
        <ele>193</ele>
        <time>2018-06-10T11:21:58Z</time>
      </trkpt>
      <trkpt lat="43.43295" lon="1.44677">
        <ele>193</ele>
        <time>2018-06-10T11:21:58Z</time>
      </trkpt>
      <trkpt lat="43.43296" lon="1.44676">
        <ele>193</ele>
        <time>2018-06-10T11:22:14Z</time>
      </trkpt>
      <trkpt lat="43.43296" lon="1.44674">
        <ele>193</ele>
        <time>2018-06-10T11:22:14Z</time>
      </trkpt>
      <trkpt lat="43.43299" lon="1.44667">
        <ele>193</ele>
        <time>2018-06-10T11:22:14Z</time>
      </trkpt>
      <trkpt lat="43.43302" lon="1.44659">
        <ele>193</ele>
        <time>2018-06-10T11:22:14Z</time>
      </trkpt>
      <trkpt lat="43.43305" lon="1.44652">
        <ele>193</ele>
        <time>2018-06-10T11:22:30Z</time>
      </trkpt>
      <trkpt lat="43.43306" lon="1.44645">
        <ele>193</ele>
        <time>2018-06-10T11:22:30Z</time>
      </trkpt>
      <trkpt lat="43.43309" lon="1.44637">
        <ele>193</ele>
        <time>2018-06-10T11:22:30Z</time>
      </trkpt>
      <trkpt lat="43.43311" lon="1.44631">
        <ele>193</ele>
        <time>2018-06-10T11:22:30Z</time>
      </trkpt>
      <trkpt lat="43.43315" lon="1.44624">
        <ele>191</ele>
        <time>2018-06-10T11:22:46Z</time>
      </trkpt>
      <trkpt lat="43.43317" lon="1.4462">
        <ele>191</ele>
        <time>2018-06-10T11:22:46Z</time>
      </trkpt>
      <trkpt lat="43.43319" lon="1.44615">
        <ele>191</ele>
        <time>2018-06-10T11:22:46Z</time>
      </trkpt>
      <trkpt lat="43.43322" lon="1.4461">
        <ele>191</ele>
        <time>2018-06-10T11:22:46Z</time>
      </trkpt>
      <trkpt lat="43.43326" lon="1.44602">
        <ele>191</ele>
        <time>2018-06-10T11:23:02Z</time>
      </trkpt>
      <trkpt lat="43.43329" lon="1.44597">
        <ele>191</ele>
        <time>2018-06-10T11:23:02Z</time>
      </trkpt>
      <trkpt lat="43.43331" lon="1.44592">
        <ele>191</ele>
        <time>2018-06-10T11:23:02Z</time>
      </trkpt>
      <trkpt lat="43.43333" lon="1.44586">
        <ele>191</ele>
        <time>2018-06-10T11:23:02Z</time>
      </trkpt>
      <trkpt lat="43.43335" lon="1.44581">
        <ele>191</ele>
        <time>2018-06-10T11:23:18Z</time>
      </trkpt>
      <trkpt lat="43.43339" lon="1.44574">
        <ele>191</ele>
        <time>2018-06-10T11:23:18Z</time>
      </trkpt>
      <trkpt lat="43.43343" lon="1.44568">
        <ele>191</ele>
        <time>2018-06-10T11:23:18Z</time>
      </trkpt>
      <trkpt lat="43.43345" lon="1.44564">
        <ele>191</ele>
        <time>2018-06-10T11:23:18Z</time>
      </trkpt>
      <trkpt lat="43.43348" lon="1.4456">
        <ele>191</ele>
        <time>2018-06-10T11:23:34Z</time>
      </trkpt>
      <trkpt lat="43.43353" lon="1.44555">
        <ele>191</ele>
        <time>2018-06-10T11:23:34Z</time>
      </trkpt>
      <trkpt lat="43.43356" lon="1.44549">
        <ele>191</ele>
        <time>2018-06-10T11:23:34Z</time>
      </trkpt>
      <trkpt lat="43.43359" lon="1.44544">
        <ele>191</ele>
        <time>2018-06-10T11:23:34Z</time>
      </trkpt>
      <trkpt lat="43.4336" lon="1.44539">
        <ele>188</ele>
        <time>2018-06-10T11:23:50Z</time>
      </trkpt>
      <trkpt lat="43.43361" lon="1.44534">
        <ele>188</ele>
        <time>2018-06-10T11:23:50Z</time>
      </trkpt>
      <trkpt lat="43.43363" lon="1.44529">
        <ele>188</ele>
        <time>2018-06-10T11:23:50Z</time>
      </trkpt>
      <trkpt lat="43.43365" lon="1.44523">
        <ele>188</ele>
        <time>2018-06-10T11:23:50Z</time>
      </trkpt>
      <trkpt lat="43.43366" lon="1.44519">
        <ele>188</ele>
        <time>2018-06-10T11:24:06Z</time>
      </trkpt>
      <trkpt lat="43.43367" lon="1.44514">
        <ele>188</ele>
        <time>2018-06-10T11:24:06Z</time>
      </trkpt>
      <trkpt lat="43.4337" lon="1.44509">
        <ele>188</ele>
        <time>2018-06-10T11:24:06Z</time>
      </trkpt>
      <trkpt lat="43.43372" lon="1.44501">
        <ele>188</ele>
        <time>2018-06-10T11:24:06Z</time>
      </trkpt>
      <trkpt lat="43.43373" lon="1.44493">
        <ele>188</ele>
        <time>2018-06-10T11:24:22Z</time>
      </trkpt>
      <trkpt lat="43.43375" lon="1.44488">
        <ele>188</ele>
        <time>2018-06-10T11:24:22Z</time>
      </trkpt>
      <trkpt lat="43.43379" lon="1.44483">
        <ele>188</ele>
        <time>2018-06-10T11:24:22Z</time>
      </trkpt>
      <trkpt lat="43.43382" lon="1.44478">
        <ele>188</ele>
        <time>2018-06-10T11:24:22Z</time>
      </trkpt>
      <trkpt lat="43.43385" lon="1.44472">
        <ele>188</ele>
        <time>2018-06-10T11:24:38Z</time>
      </trkpt>
      <trkpt lat="43.43388" lon="1.44467">
        <ele>188</ele>
        <time>2018-06-10T11:24:38Z</time>
      </trkpt>
      <trkpt lat="43.43391" lon="1.44462">
        <ele>188</ele>
        <time>2018-06-10T11:24:38Z</time>
      </trkpt>
      <trkpt lat="43.43393" lon="1.44459">
        <ele>188</ele>
        <time>2018-06-10T11:24:38Z</time>
      </trkpt>
      <trkpt lat="43.43395" lon="1.44455">
        <ele>187</ele>
        <time>2018-06-10T11:24:54Z</time>
      </trkpt>
      <trkpt lat="43.43398" lon="1.44451">
        <ele>187</ele>
        <time>2018-06-10T11:24:54Z</time>
      </trkpt>
      <trkpt lat="43.43401" lon="1.44445">
        <ele>187</ele>
        <time>2018-06-10T11:24:54Z</time>
      </trkpt>
      <trkpt lat="43.43405" lon="1.44439">
        <ele>187</ele>
        <time>2018-06-10T11:24:54Z</time>
      </trkpt>
      <trkpt lat="43.43407" lon="1.44434">
        <ele>187</ele>
        <time>2018-06-10T11:25:10Z</time>
      </trkpt>
      <trkpt lat="43.4341" lon="1.44429">
        <ele>187</ele>
        <time>2018-06-10T11:25:10Z</time>
      </trkpt>
      <trkpt lat="43.43411" lon="1.44425">
        <ele>187</ele>
        <time>2018-06-10T11:25:10Z</time>
      </trkpt>
      <trkpt lat="43.43415" lon="1.44421">
        <ele>187</ele>
        <time>2018-06-10T11:25:10Z</time>
      </trkpt>
      <trkpt lat="43.43418" lon="1.44414">
        <ele>187</ele>
        <time>2018-06-10T11:25:26Z</time>
      </trkpt>
      <trkpt lat="43.43422" lon="1.44409">
        <ele>187</ele>
        <time>2018-06-10T11:25:26Z</time>
      </trkpt>
      <trkpt lat="43.43423" lon="1.44403">
        <ele>187</ele>
        <time>2018-06-10T11:25:26Z</time>
      </trkpt>
      <trkpt lat="43.43425" lon="1.44398">
        <ele>187</ele>
        <time>2018-06-10T11:25:26Z</time>
      </trkpt>
      <trkpt lat="43.43426" lon="1.44397">
        <ele>187</ele>
        <time>2018-06-10T11:25:46Z</time>
      </trkpt>
      <trkpt lat="43.43428" lon="1.44395">
        <ele>187</ele>
        <time>2018-06-10T11:25:46Z</time>
      </trkpt>
      <trkpt lat="43.43427" lon="1.44391">
        <ele>187</ele>
        <time>2018-06-10T11:25:46Z</time>
      </trkpt>
      <trkpt lat="43.43428" lon="1.44386">
        <ele>187</ele>
        <time>2018-06-10T11:25:46Z</time>
      </trkpt>
      <trkpt lat="43.43428" lon="1.44385">
        <ele>187</ele>
        <time>2018-06-10T11:25:46Z</time>
      </trkpt>
      <trkpt lat="43.4343" lon="1.44385">
        <ele>187</ele>
        <time>2018-06-10T11:26:02Z</time>
      </trkpt>
      <trkpt lat="43.43433" lon="1.44384">
        <ele>187</ele>
        <time>2018-06-10T11:26:02Z</time>
      </trkpt>
      <trkpt lat="43.43435" lon="1.44379">
        <ele>187</ele>
        <time>2018-06-10T11:26:02Z</time>
      </trkpt>
      <trkpt lat="43.43437" lon="1.44372">
        <ele>185</ele>
        <time>2018-06-10T11:26:02Z</time>
      </trkpt>
      <trkpt lat="43.4344" lon="1.44364">
        <ele>185</ele>
        <time>2018-06-10T11:26:18Z</time>
      </trkpt>
      <trkpt lat="43.4344" lon="1.44357">
        <ele>185</ele>
        <time>2018-06-10T11:26:18Z</time>
      </trkpt>
      <trkpt lat="43.4344" lon="1.4435">
        <ele>185</ele>
        <time>2018-06-10T11:26:18Z</time>
      </trkpt>
      <trkpt lat="43.43444" lon="1.44344">
        <ele>185</ele>
        <time>2018-06-10T11:26:18Z</time>
      </trkpt>
      <trkpt lat="43.43446" lon="1.44338">
        <ele>185</ele>
        <time>2018-06-10T11:26:34Z</time>
      </trkpt>
      <trkpt lat="43.43448" lon="1.44333">
        <ele>185</ele>
        <time>2018-06-10T11:26:34Z</time>
      </trkpt>
      <trkpt lat="43.43452" lon="1.44327">
        <ele>185</ele>
        <time>2018-06-10T11:26:34Z</time>
      </trkpt>
      <trkpt lat="43.43455" lon="1.44319">
        <ele>185</ele>
        <time>2018-06-10T11:26:34Z</time>
      </trkpt>
      <trkpt lat="43.43457" lon="1.44312">
        <ele>185</ele>
        <time>2018-06-10T11:26:50Z</time>
      </trkpt>
      <trkpt lat="43.43456" lon="1.44305">
        <ele>185</ele>
        <time>2018-06-10T11:26:50Z</time>
      </trkpt>
      <trkpt lat="43.43455" lon="1.443">
        <ele>185</ele>
        <time>2018-06-10T11:26:50Z</time>
      </trkpt>
      <trkpt lat="43.43457" lon="1.44295">
        <ele>185</ele>
        <time>2018-06-10T11:26:50Z</time>
      </trkpt>
      <trkpt lat="43.4346" lon="1.4429">
        <ele>181</ele>
        <time>2018-06-10T11:27:06Z</time>
      </trkpt>
      <trkpt lat="43.43462" lon="1.44284">
        <ele>181</ele>
        <time>2018-06-10T11:27:06Z</time>
      </trkpt>
      <trkpt lat="43.43464" lon="1.44279">
        <ele>181</ele>
        <time>2018-06-10T11:27:06Z</time>
      </trkpt>
      <trkpt lat="43.43464" lon="1.44274">
        <ele>181</ele>
        <time>2018-06-10T11:27:06Z</time>
      </trkpt>
      <trkpt lat="43.43463" lon="1.44268">
        <ele>181</ele>
        <time>2018-06-10T11:27:22Z</time>
      </trkpt>
      <trkpt lat="43.43465" lon="1.44261">
        <ele>181</ele>
        <time>2018-06-10T11:27:22Z</time>
      </trkpt>
      <trkpt lat="43.43468" lon="1.44255">
        <ele>181</ele>
        <time>2018-06-10T11:27:22Z</time>
      </trkpt>
      <trkpt lat="43.4347" lon="1.44249">
        <ele>181</ele>
        <time>2018-06-10T11:27:22Z</time>
      </trkpt>
      <trkpt lat="43.4347" lon="1.44243">
        <ele>181</ele>
        <time>2018-06-10T11:27:38Z</time>
      </trkpt>
      <trkpt lat="43.43471" lon="1.44237">
        <ele>181</ele>
        <time>2018-06-10T11:27:38Z</time>
      </trkpt>
      <trkpt lat="43.43473" lon="1.44232">
        <ele>181</ele>
        <time>2018-06-10T11:27:38Z</time>
      </trkpt>
      <trkpt lat="43.43476" lon="1.44227">
        <ele>181</ele>
        <time>2018-06-10T11:27:38Z</time>
      </trkpt>
      <trkpt lat="43.43475" lon="1.4422">
        <ele>181</ele>
        <time>2018-06-10T11:27:54Z</time>
      </trkpt>
      <trkpt lat="43.43473" lon="1.44215">
        <ele>181</ele>
        <time>2018-06-10T11:27:54Z</time>
      </trkpt>
      <trkpt lat="43.43471" lon="1.4421">
        <ele>181</ele>
        <time>2018-06-10T11:27:54Z</time>
      </trkpt>
      <trkpt lat="43.43467" lon="1.44207">
        <ele>181</ele>
        <time>2018-06-10T11:27:54Z</time>
      </trkpt>
      <trkpt lat="43.43462" lon="1.44203">
        <ele>181</ele>
        <time>2018-06-10T11:28:10Z</time>
      </trkpt>
      <trkpt lat="43.43458" lon="1.44199">
        <ele>176</ele>
        <time>2018-06-10T11:28:10Z</time>
      </trkpt>
      <trkpt lat="43.43453" lon="1.44199">
        <ele>176</ele>
        <time>2018-06-10T11:28:10Z</time>
      </trkpt>
      <trkpt lat="43.43451" lon="1.44198">
        <ele>176</ele>
        <time>2018-06-10T11:28:10Z</time>
      </trkpt>
      <trkpt lat="43.43451" lon="1.44193">
        <ele>176</ele>
        <time>2018-06-10T11:28:26Z</time>
      </trkpt>
      <trkpt lat="43.43448" lon="1.44189">
        <ele>176</ele>
        <time>2018-06-10T11:28:26Z</time>
      </trkpt>
      <trkpt lat="43.43445" lon="1.44183">
        <ele>176</ele>
        <time>2018-06-10T11:28:26Z</time>
      </trkpt>
      <trkpt lat="43.43441" lon="1.44177">
        <ele>176</ele>
        <time>2018-06-10T11:28:26Z</time>
      </trkpt>
      <trkpt lat="43.43436" lon="1.4417">
        <ele>176</ele>
        <time>2018-06-10T11:28:42Z</time>
      </trkpt>
      <trkpt lat="43.43434" lon="1.44167">
        <ele>176</ele>
        <time>2018-06-10T11:28:42Z</time>
      </trkpt>
      <trkpt lat="43.43432" lon="1.44162">
        <ele>176</ele>
        <time>2018-06-10T11:28:42Z</time>
      </trkpt>
      <trkpt lat="43.43429" lon="1.44155">
        <ele>176</ele>
        <time>2018-06-10T11:28:42Z</time>
      </trkpt>
      <trkpt lat="43.43425" lon="1.4415">
        <ele>176</ele>
        <time>2018-06-10T11:28:58Z</time>
      </trkpt>
      <trkpt lat="43.43422" lon="1.44146">
        <ele>176</ele>
        <time>2018-06-10T11:28:58Z</time>
      </trkpt>
      <trkpt lat="43.43419" lon="1.44142">
        <ele>176</ele>
        <time>2018-06-10T11:28:58Z</time>
      </trkpt>
      <trkpt lat="43.43417" lon="1.44139">
        <ele>176</ele>
        <time>2018-06-10T11:28:58Z</time>
      </trkpt>
      <trkpt lat="43.43415" lon="1.44133">
        <ele>176</ele>
        <time>2018-06-10T11:29:14Z</time>
      </trkpt>
      <trkpt lat="43.43412" lon="1.4413">
        <ele>176</ele>
        <time>2018-06-10T11:29:14Z</time>
      </trkpt>
      <trkpt lat="43.43412" lon="1.44125">
        <ele>176</ele>
        <time>2018-06-10T11:29:14Z</time>
      </trkpt>
      <trkpt lat="43.43414" lon="1.4412">
        <ele>173</ele>
        <time>2018-06-10T11:29:14Z</time>
      </trkpt>
      <trkpt lat="43.43417" lon="1.44114">
        <ele>173</ele>
        <time>2018-06-10T11:29:30Z</time>
      </trkpt>
      <trkpt lat="43.43421" lon="1.44107">
        <ele>173</ele>
        <time>2018-06-10T11:29:30Z</time>
      </trkpt>
      <trkpt lat="43.43422" lon="1.44102">
        <ele>173</ele>
        <time>2018-06-10T11:29:30Z</time>
      </trkpt>
      <trkpt lat="43.43425" lon="1.441">
        <ele>173</ele>
        <time>2018-06-10T11:29:30Z</time>
      </trkpt>
      <trkpt lat="43.4343" lon="1.44091">
        <ele>173</ele>
        <time>2018-06-10T11:30:22Z</time>
      </trkpt>
      <trkpt lat="43.4343" lon="1.44091">
        <ele>173</ele>
        <time>2018-06-10T11:30:22Z</time>
      </trkpt>
      <trkpt lat="43.43433" lon="1.4409">
        <ele>173</ele>
        <time>2018-06-10T11:30:22Z</time>
      </trkpt>
      <trkpt lat="43.4344" lon="1.4409">
        <ele>173</ele>
        <time>2018-06-10T11:30:22Z</time>
      </trkpt>
      <trkpt lat="43.43447" lon="1.44091">
        <ele>173</ele>
        <time>2018-06-10T11:30:22Z</time>
      </trkpt>
      <trkpt lat="43.43451" lon="1.44091">
        <ele>173</ele>
        <time>2018-06-10T11:30:38Z</time>
      </trkpt>
      <trkpt lat="43.43456" lon="1.44093">
        <ele>173</ele>
        <time>2018-06-10T11:30:38Z</time>
      </trkpt>
      <trkpt lat="43.43461" lon="1.44093">
        <ele>190</ele>
        <time>2018-06-10T11:30:38Z</time>
      </trkpt>
      <trkpt lat="43.43464" lon="1.44095">
        <ele>190</ele>
        <time>2018-06-10T11:30:38Z</time>
      </trkpt>
      <trkpt lat="43.43469" lon="1.44098">
        <ele>190</ele>
        <time>2018-06-10T11:31:14Z</time>
      </trkpt>
      <trkpt lat="43.43465" lon="1.44095">
        <ele>190</ele>
        <time>2018-06-10T11:31:14Z</time>
      </trkpt>
      <trkpt lat="43.43461" lon="1.44093">
        <ele>190</ele>
        <time>2018-06-10T11:31:14Z</time>
      </trkpt>
      <trkpt lat="43.43459" lon="1.44088">
        <ele>190</ele>
        <time>2018-06-10T11:31:14Z</time>
      </trkpt>
      <trkpt lat="43.43457" lon="1.44085">
        <ele>173</ele>
        <time>2018-06-10T11:31:14Z</time>
      </trkpt>
      <trkpt lat="43.43455" lon="1.44079">
        <ele>173</ele>
        <time>2018-06-10T11:31:30Z</time>
      </trkpt>
      <trkpt lat="43.43458" lon="1.44076">
        <ele>173</ele>
        <time>2018-06-10T11:31:30Z</time>
      </trkpt>
      <trkpt lat="43.4346" lon="1.44074">
        <ele>190</ele>
        <time>2018-06-10T11:31:30Z</time>
      </trkpt>
      <trkpt lat="43.43463" lon="1.44073">
        <ele>190</ele>
        <time>2018-06-10T11:31:30Z</time>
      </trkpt>
      <trkpt lat="43.43468" lon="1.44074">
        <ele>190</ele>
        <time>2018-06-10T11:31:46Z</time>
      </trkpt>
      <trkpt lat="43.43472" lon="1.44076">
        <ele>190</ele>
        <time>2018-06-10T11:31:46Z</time>
      </trkpt>
      <trkpt lat="43.43476" lon="1.44076">
        <ele>190</ele>
        <time>2018-06-10T11:31:46Z</time>
      </trkpt>
      <trkpt lat="43.43479" lon="1.44077">
        <ele>190</ele>
        <time>2018-06-10T11:31:46Z</time>
      </trkpt>
      <trkpt lat="43.43476" lon="1.44074">
        <ele>190</ele>
        <time>2018-06-10T11:32:10Z</time>
      </trkpt>
      <trkpt lat="43.43475" lon="1.4407">
        <ele>190</ele>
        <time>2018-06-10T11:32:10Z</time>
      </trkpt>
      <trkpt lat="43.43475" lon="1.44069">
        <ele>190</ele>
        <time>2018-06-10T11:32:10Z</time>
      </trkpt>
      <trkpt lat="43.43476" lon="1.44066">
        <ele>190</ele>
        <time>2018-06-10T11:32:10Z</time>
      </trkpt>
      <trkpt lat="43.43474" lon="1.44064">
        <ele>190</ele>
        <time>2018-06-10T11:32:10Z</time>
      </trkpt>
      <trkpt lat="43.43473" lon="1.44061">
        <ele>190</ele>
        <time>2018-06-10T11:32:26Z</time>
      </trkpt>
      <trkpt lat="43.43473" lon="1.44056">
        <ele>190</ele>
        <time>2018-06-10T11:32:26Z</time>
      </trkpt>
      <trkpt lat="43.43473" lon="1.44053">
        <ele>190</ele>
        <time>2018-06-10T11:32:26Z</time>
      </trkpt>
      <trkpt lat="43.43479" lon="1.44049">
        <ele>190</ele>
        <time>2018-06-10T11:32:26Z</time>
      </trkpt>
      <trkpt lat="43.43482" lon="1.44046">
        <ele>190</ele>
        <time>2018-06-10T11:32:42Z</time>
      </trkpt>
      <trkpt lat="43.43484" lon="1.44045">
        <ele>190</ele>
        <time>2018-06-10T11:32:42Z</time>
      </trkpt>
      <trkpt lat="43.43487" lon="1.44046">
        <ele>190</ele>
        <time>2018-06-10T11:32:42Z</time>
      </trkpt>
      <trkpt lat="43.43491" lon="1.44047">
        <ele>190</ele>
        <time>2018-06-10T11:32:42Z</time>
      </trkpt>
      <trkpt lat="43.43496" lon="1.4405">
        <ele>190</ele>
        <time>2018-06-10T11:33:06Z</time>
      </trkpt>
      <trkpt lat="43.435" lon="1.44049">
        <ele>190</ele>
        <time>2018-06-10T11:33:06Z</time>
      </trkpt>
      <trkpt lat="43.435" lon="1.44049">
        <ele>190</ele>
        <time>2018-06-10T11:33:06Z</time>
      </trkpt>
      <trkpt lat="43.43501" lon="1.4405">
        <ele>190</ele>
        <time>2018-06-10T11:33:06Z</time>
      </trkpt>
      <trkpt lat="43.43502" lon="1.4405">
        <ele>190</ele>
        <time>2018-06-10T11:33:06Z</time>
      </trkpt>
      <trkpt lat="43.43507" lon="1.44051">
        <ele>190</ele>
        <time>2018-06-10T11:33:22Z</time>
      </trkpt>
      <trkpt lat="43.43512" lon="1.44054">
        <ele>190</ele>
        <time>2018-06-10T11:33:22Z</time>
      </trkpt>
      <trkpt lat="43.43519" lon="1.44056">
        <ele>190</ele>
        <time>2018-06-10T11:33:22Z</time>
      </trkpt>
      <trkpt lat="43.43522" lon="1.44055">
        <ele>190</ele>
        <time>2018-06-10T11:33:22Z</time>
      </trkpt>
      <trkpt lat="43.43525" lon="1.44054">
        <ele>190</ele>
        <time>2018-06-10T11:33:38Z</time>
      </trkpt>
      <trkpt lat="43.43529" lon="1.44055">
        <ele>190</ele>
        <time>2018-06-10T11:33:38Z</time>
      </trkpt>
      <trkpt lat="43.43533" lon="1.44053">
        <ele>190</ele>
        <time>2018-06-10T11:33:38Z</time>
      </trkpt>
      <trkpt lat="43.43536" lon="1.44052">
        <ele>190</ele>
        <time>2018-06-10T11:33:38Z</time>
      </trkpt>
      <trkpt lat="43.43542" lon="1.44048">
        <ele>190</ele>
        <time>2018-06-10T11:33:54Z</time>
      </trkpt>
      <trkpt lat="43.43547" lon="1.44049">
        <ele>208</ele>
        <time>2018-06-10T11:33:54Z</time>
      </trkpt>
      <trkpt lat="43.43551" lon="1.44051">
        <ele>208</ele>
        <time>2018-06-10T11:33:54Z</time>
      </trkpt>
      <trkpt lat="43.43557" lon="1.44055">
        <ele>208</ele>
        <time>2018-06-10T11:33:54Z</time>
      </trkpt>
      <trkpt lat="43.43565" lon="1.44063">
        <ele>208</ele>
        <time>2018-06-10T11:37:46Z</time>
      </trkpt>
      <trkpt lat="43.43565" lon="1.44063">
        <ele>208</ele>
        <time>2018-06-10T11:37:46Z</time>
      </trkpt>
      <trkpt lat="43.43569" lon="1.44062">
        <ele>208</ele>
        <time>2018-06-10T11:37:46Z</time>
      </trkpt>
      <trkpt lat="43.43573" lon="1.4406">
        <ele>208</ele>
        <time>2018-06-10T11:37:46Z</time>
      </trkpt>
      <trkpt lat="43.43573" lon="1.44061">
        <ele>208</ele>
        <time>2018-06-10T11:37:46Z</time>
      </trkpt>
      <trkpt lat="43.43571" lon="1.44053">
        <ele>208</ele>
        <time>2018-06-10T11:42:34Z</time>
      </trkpt>
      <trkpt lat="43.43572" lon="1.44052">
        <ele>208</ele>
        <time>2018-06-10T11:42:34Z</time>
      </trkpt>
      <trkpt lat="43.43575" lon="1.4405">
        <ele>208</ele>
        <time>2018-06-10T11:42:34Z</time>
      </trkpt>
      <trkpt lat="43.4358" lon="1.44048">
        <ele>208</ele>
        <time>2018-06-10T11:42:34Z</time>
      </trkpt>
      <trkpt lat="43.43584" lon="1.44045">
        <ele>208</ele>
        <time>2018-06-10T11:42:34Z</time>
      </trkpt>
      <trkpt lat="43.43587" lon="1.44043">
        <ele>208</ele>
        <time>2018-06-10T11:42:50Z</time>
      </trkpt>
      <trkpt lat="43.43594" lon="1.44041">
        <ele>193</ele>
        <time>2018-06-10T11:42:50Z</time>
      </trkpt>
      <trkpt lat="43.436" lon="1.44037">
        <ele>193</ele>
        <time>2018-06-10T11:42:50Z</time>
      </trkpt>
      <trkpt lat="43.43603" lon="1.44035">
        <ele>193</ele>
        <time>2018-06-10T11:42:50Z</time>
      </trkpt>
      <trkpt lat="43.43606" lon="1.44035">
        <ele>193</ele>
        <time>2018-06-10T11:43:06Z</time>
      </trkpt>
      <trkpt lat="43.43615" lon="1.44034">
        <ele>193</ele>
        <time>2018-06-10T11:43:06Z</time>
      </trkpt>
      <trkpt lat="43.43621" lon="1.44034">
        <ele>193</ele>
        <time>2018-06-10T11:43:06Z</time>
      </trkpt>
      <trkpt lat="43.43623" lon="1.44033">
        <ele>193</ele>
        <time>2018-06-10T11:43:06Z</time>
      </trkpt>
      <trkpt lat="43.43626" lon="1.44032">
        <ele>210</ele>
        <time>2018-06-10T11:43:22Z</time>
      </trkpt>
      <trkpt lat="43.43634" lon="1.44031">
        <ele>210</ele>
        <time>2018-06-10T11:43:22Z</time>
      </trkpt>
      <trkpt lat="43.43642" lon="1.44027">
        <ele>210</ele>
        <time>2018-06-10T11:43:22Z</time>
      </trkpt>
      <trkpt lat="43.43645" lon="1.44025">
        <ele>210</ele>
        <time>2018-06-10T11:43:22Z</time>
      </trkpt>
      <trkpt lat="43.43648" lon="1.44025">
        <ele>210</ele>
        <time>2018-06-10T11:43:38Z</time>
      </trkpt>
      <trkpt lat="43.4365" lon="1.44024">
        <ele>210</ele>
        <time>2018-06-10T11:43:38Z</time>
      </trkpt>
      <trkpt lat="43.43653" lon="1.44024">
        <ele>210</ele>
        <time>2018-06-10T11:43:38Z</time>
      </trkpt>
      <trkpt lat="43.43657" lon="1.44023">
        <ele>210</ele>
        <time>2018-06-10T11:43:38Z</time>
      </trkpt>
      <trkpt lat="43.43659" lon="1.44023">
        <ele>210</ele>
        <time>2018-06-10T11:43:54Z</time>
      </trkpt>
      <trkpt lat="43.43664" lon="1.44022">
        <ele>210</ele>
        <time>2018-06-10T11:43:54Z</time>
      </trkpt>
      <trkpt lat="43.43667" lon="1.44022">
        <ele>210</ele>
        <time>2018-06-10T11:43:54Z</time>
      </trkpt>
      <trkpt lat="43.43673" lon="1.44022">
        <ele>210</ele>
        <time>2018-06-10T11:43:54Z</time>
      </trkpt>
      <trkpt lat="43.4368" lon="1.44021">
        <ele>210</ele>
        <time>2018-06-10T11:44:10Z</time>
      </trkpt>
      <trkpt lat="43.43683" lon="1.44018">
        <ele>210</ele>
        <time>2018-06-10T11:44:10Z</time>
      </trkpt>
      <trkpt lat="43.43688" lon="1.44017">
        <ele>210</ele>
        <time>2018-06-10T11:44:10Z</time>
      </trkpt>
      <trkpt lat="43.43695" lon="1.44015">
        <ele>210</ele>
        <time>2018-06-10T11:44:10Z</time>
      </trkpt>
      <trkpt lat="43.43699" lon="1.44013">
        <ele>210</ele>
        <time>2018-06-10T11:44:26Z</time>
      </trkpt>
      <trkpt lat="43.43702" lon="1.44012">
        <ele>210</ele>
        <time>2018-06-10T11:44:26Z</time>
      </trkpt>
      <trkpt lat="43.43707" lon="1.44012">
        <ele>210</ele>
        <time>2018-06-10T11:44:26Z</time>
      </trkpt>
      <trkpt lat="43.43713" lon="1.4401">
        <ele>216</ele>
        <time>2018-06-10T11:44:26Z</time>
      </trkpt>
      <trkpt lat="43.43717" lon="1.44008">
        <ele>216</ele>
        <time>2018-06-10T11:44:42Z</time>
      </trkpt>
      <trkpt lat="43.4372" lon="1.44008">
        <ele>216</ele>
        <time>2018-06-10T11:44:42Z</time>
      </trkpt>
      <trkpt lat="43.43727" lon="1.44007">
        <ele>216</ele>
        <time>2018-06-10T11:44:42Z</time>
      </trkpt>
      <trkpt lat="43.43731" lon="1.44005">
        <ele>216</ele>
        <time>2018-06-10T11:44:42Z</time>
      </trkpt>
      <trkpt lat="43.43734" lon="1.44002">
        <ele>216</ele>
        <time>2018-06-10T11:44:58Z</time>
      </trkpt>
      <trkpt lat="43.43737" lon="1.43997">
        <ele>216</ele>
        <time>2018-06-10T11:44:58Z</time>
      </trkpt>
      <trkpt lat="43.4374" lon="1.43994">
        <ele>216</ele>
        <time>2018-06-10T11:44:58Z</time>
      </trkpt>
      <trkpt lat="43.43745" lon="1.4399">
        <ele>216</ele>
        <time>2018-06-10T11:44:58Z</time>
      </trkpt>
      <trkpt lat="43.43746" lon="1.43989">
        <ele>216</ele>
        <time>2018-06-10T11:45:14Z</time>
      </trkpt>
      <trkpt lat="43.43749" lon="1.43987">
        <ele>216</ele>
        <time>2018-06-10T11:45:14Z</time>
      </trkpt>
      <trkpt lat="43.43755" lon="1.43984">
        <ele>216</ele>
        <time>2018-06-10T11:45:14Z</time>
      </trkpt>
      <trkpt lat="43.43757" lon="1.43984">
        <ele>216</ele>
        <time>2018-06-10T11:45:14Z</time>
      </trkpt>
      <trkpt lat="43.4376" lon="1.43982">
        <ele>216</ele>
        <time>2018-06-10T11:45:30Z</time>
      </trkpt>
      <trkpt lat="43.43765" lon="1.4398">
        <ele>216</ele>
        <time>2018-06-10T11:45:30Z</time>
      </trkpt>
      <trkpt lat="43.43772" lon="1.43977">
        <ele>216</ele>
        <time>2018-06-10T11:45:30Z</time>
      </trkpt>
      <trkpt lat="43.43774" lon="1.43974">
        <ele>216</ele>
        <time>2018-06-10T11:45:30Z</time>
      </trkpt>
      <trkpt lat="43.43776" lon="1.43972">
        <ele>216</ele>
        <time>2018-06-10T11:45:46Z</time>
      </trkpt>
      <trkpt lat="43.43781" lon="1.4397">
        <ele>216</ele>
        <time>2018-06-10T11:45:46Z</time>
      </trkpt>
      <trkpt lat="43.43783" lon="1.43969">
        <ele>216</ele>
        <time>2018-06-10T11:45:46Z</time>
      </trkpt>
      <trkpt lat="43.43785" lon="1.43967">
        <ele>216</ele>
        <time>2018-06-10T11:45:46Z</time>
      </trkpt>
      <trkpt lat="43.43793" lon="1.43964">
        <ele>222</ele>
        <time>2018-06-10T11:46:02Z</time>
      </trkpt>
      <trkpt lat="43.43799" lon="1.43959">
        <ele>222</ele>
        <time>2018-06-10T11:46:02Z</time>
      </trkpt>
      <trkpt lat="43.43801" lon="1.43956">
        <ele>204</ele>
        <time>2018-06-10T11:46:02Z</time>
      </trkpt>
      <trkpt lat="43.43805" lon="1.43955">
        <ele>204</ele>
        <time>2018-06-10T11:46:02Z</time>
      </trkpt>
      <trkpt lat="43.4381" lon="1.43951">
        <ele>204</ele>
        <time>2018-06-10T11:46:18Z</time>
      </trkpt>
      <trkpt lat="43.43811" lon="1.4395">
        <ele>204</ele>
        <time>2018-06-10T11:46:18Z</time>
      </trkpt>
      <trkpt lat="43.43814" lon="1.43947">
        <ele>204</ele>
        <time>2018-06-10T11:46:18Z</time>
      </trkpt>
      <trkpt lat="43.43819" lon="1.43946">
        <ele>204</ele>
        <time>2018-06-10T11:46:18Z</time>
      </trkpt>
      <trkpt lat="43.43827" lon="1.43942">
        <ele>204</ele>
        <time>2018-06-10T11:46:34Z</time>
      </trkpt>
      <trkpt lat="43.43827" lon="1.43939">
        <ele>204</ele>
        <time>2018-06-10T11:46:34Z</time>
      </trkpt>
      <trkpt lat="43.43831" lon="1.43937">
        <ele>204</ele>
        <time>2018-06-10T11:46:34Z</time>
      </trkpt>
      <trkpt lat="43.43836" lon="1.43935">
        <ele>204</ele>
        <time>2018-06-10T11:46:34Z</time>
      </trkpt>
      <trkpt lat="43.43842" lon="1.43931">
        <ele>204</ele>
        <time>2018-06-10T11:46:50Z</time>
      </trkpt>
      <trkpt lat="43.43842" lon="1.43929">
        <ele>204</ele>
        <time>2018-06-10T11:46:50Z</time>
      </trkpt>
      <trkpt lat="43.43846" lon="1.43927">
        <ele>204</ele>
        <time>2018-06-10T11:46:50Z</time>
      </trkpt>
      <trkpt lat="43.4385" lon="1.43924">
        <ele>204</ele>
        <time>2018-06-10T11:46:50Z</time>
      </trkpt>
      <trkpt lat="43.43854" lon="1.43922">
        <ele>204</ele>
        <time>2018-06-10T11:47:10Z</time>
      </trkpt>
      <trkpt lat="43.43859" lon="1.43921">
        <ele>204</ele>
        <time>2018-06-10T11:47:10Z</time>
      </trkpt>
      <trkpt lat="43.4386" lon="1.43922">
        <ele>204</ele>
        <time>2018-06-10T11:47:10Z</time>
      </trkpt>
      <trkpt lat="43.43863" lon="1.43924">
        <ele>204</ele>
        <time>2018-06-10T11:47:10Z</time>
      </trkpt>
      <trkpt lat="43.43864" lon="1.43923">
        <ele>204</ele>
        <time>2018-06-10T11:47:10Z</time>
      </trkpt>
      <trkpt lat="43.43867" lon="1.43925">
        <ele>204</ele>
        <time>2018-06-10T11:48:10Z</time>
      </trkpt>
      <trkpt lat="43.43868" lon="1.43925">
        <ele>204</ele>
        <time>2018-06-10T11:48:10Z</time>
      </trkpt>
      <trkpt lat="43.43869" lon="1.43926">
        <ele>204</ele>
        <time>2018-06-10T11:48:10Z</time>
      </trkpt>
      <trkpt lat="43.4387" lon="1.43926">
        <ele>204</ele>
        <time>2018-06-10T11:48:10Z</time>
      </trkpt>
      <trkpt lat="43.43873" lon="1.43927">
        <ele>204</ele>
        <time>2018-06-10T11:48:10Z</time>
      </trkpt>
      <trkpt lat="43.43875" lon="1.43926">
        <ele>204</ele>
        <time>2018-06-10T11:48:34Z</time>
      </trkpt>
      <trkpt lat="43.43876" lon="1.43926">
        <ele>218</ele>
        <time>2018-06-10T11:48:34Z</time>
      </trkpt>
      <trkpt lat="43.43877" lon="1.43924">
        <ele>218</ele>
        <time>2018-06-10T11:48:34Z</time>
      </trkpt>
      <trkpt lat="43.4388" lon="1.43924">
        <ele>218</ele>
        <time>2018-06-10T11:48:34Z</time>
      </trkpt>
      <trkpt lat="43.43884" lon="1.43921">
        <ele>218</ele>
        <time>2018-06-10T11:48:34Z</time>
      </trkpt>
      <trkpt lat="43.43896" lon="1.43914">
        <ele>218</ele>
        <time>2018-06-10T11:49:10Z</time>
      </trkpt>
      <trkpt lat="43.43896" lon="1.43913">
        <ele>218</ele>
        <time>2018-06-10T11:49:10Z</time>
      </trkpt>
      <trkpt lat="43.43897" lon="1.43913">
        <ele>218</ele>
        <time>2018-06-10T11:49:10Z</time>
      </trkpt>
      <trkpt lat="43.43899" lon="1.43914">
        <ele>218</ele>
        <time>2018-06-10T11:49:10Z</time>
      </trkpt>
      <trkpt lat="43.43904" lon="1.43914">
        <ele>218</ele>
        <time>2018-06-10T11:49:10Z</time>
      </trkpt>
      <trkpt lat="43.43911" lon="1.43917">
        <ele>218</ele>
        <time>2018-06-10T11:49:26Z</time>
      </trkpt>
      <trkpt lat="43.43915" lon="1.43922">
        <ele>218</ele>
        <time>2018-06-10T11:49:26Z</time>
      </trkpt>
      <trkpt lat="43.43918" lon="1.43923">
        <ele>218</ele>
        <time>2018-06-10T11:49:26Z</time>
      </trkpt>
      <trkpt lat="43.43919" lon="1.43923">
        <ele>218</ele>
        <time>2018-06-10T11:49:26Z</time>
      </trkpt>
      <trkpt lat="43.4392" lon="1.43922">
        <ele>218</ele>
        <time>2018-06-10T11:49:54Z</time>
      </trkpt>
      <trkpt lat="43.43922" lon="1.43925">
        <ele>218</ele>
        <time>2018-06-10T11:49:54Z</time>
      </trkpt>
      <trkpt lat="43.43922" lon="1.43926">
        <ele>218</ele>
        <time>2018-06-10T11:49:54Z</time>
      </trkpt>
      <trkpt lat="43.43924" lon="1.43928">
        <ele>218</ele>
        <time>2018-06-10T11:49:54Z</time>
      </trkpt>
      <trkpt lat="43.43928" lon="1.43931">
        <ele>218</ele>
        <time>2018-06-10T11:49:54Z</time>
      </trkpt>
      <trkpt lat="43.43931" lon="1.43931">
        <ele>218</ele>
        <time>2018-06-10T11:50:10Z</time>
      </trkpt>
      <trkpt lat="43.43933" lon="1.43928">
        <ele>218</ele>
        <time>2018-06-10T11:50:10Z</time>
      </trkpt>
      <trkpt lat="43.43935" lon="1.43924">
        <ele>218</ele>
        <time>2018-06-10T11:50:10Z</time>
      </trkpt>
      <trkpt lat="43.43938" lon="1.43919">
        <ele>218</ele>
        <time>2018-06-10T11:50:10Z</time>
      </trkpt>
      <trkpt lat="43.4394" lon="1.43914">
        <ele>218</ele>
        <time>2018-06-10T11:50:26Z</time>
      </trkpt>
      <trkpt lat="43.43941" lon="1.43913">
        <ele>218</ele>
        <time>2018-06-10T11:50:26Z</time>
      </trkpt>
      <trkpt lat="43.43942" lon="1.43909">
        <ele>218</ele>
        <time>2018-06-10T11:50:26Z</time>
      </trkpt>
      <trkpt lat="43.43945" lon="1.43902">
        <ele>218</ele>
        <time>2018-06-10T11:50:26Z</time>
      </trkpt>
      <trkpt lat="43.43946" lon="1.43896">
        <ele>218</ele>
        <time>2018-06-10T11:50:42Z</time>
      </trkpt>
      <trkpt lat="43.4395" lon="1.4389">
        <ele>218</ele>
        <time>2018-06-10T11:50:42Z</time>
      </trkpt>
      <trkpt lat="43.43953" lon="1.43887">
        <ele>218</ele>
        <time>2018-06-10T11:50:42Z</time>
      </trkpt>
      <trkpt lat="43.43953" lon="1.43886">
        <ele>218</ele>
        <time>2018-06-10T11:50:42Z</time>
      </trkpt>
      <trkpt lat="43.43954" lon="1.43882">
        <ele>218</ele>
        <time>2018-06-10T11:50:58Z</time>
      </trkpt>
      <trkpt lat="43.43955" lon="1.43879">
        <ele>218</ele>
        <time>2018-06-10T11:50:58Z</time>
      </trkpt>
      <trkpt lat="43.43958" lon="1.43875">
        <ele>218</ele>
        <time>2018-06-10T11:50:58Z</time>
      </trkpt>
      <trkpt lat="43.4396" lon="1.43871">
        <ele>215</ele>
        <time>2018-06-10T11:50:58Z</time>
      </trkpt>
      <trkpt lat="43.43963" lon="1.43868">
        <ele>215</ele>
        <time>2018-06-10T11:51:14Z</time>
      </trkpt>
      <trkpt lat="43.43964" lon="1.43865">
        <ele>215</ele>
        <time>2018-06-10T11:51:14Z</time>
      </trkpt>
      <trkpt lat="43.43968" lon="1.43863">
        <ele>215</ele>
        <time>2018-06-10T11:51:14Z</time>
      </trkpt>
      <trkpt lat="43.43972" lon="1.43861">
        <ele>215</ele>
        <time>2018-06-10T11:51:14Z</time>
      </trkpt>
      <trkpt lat="43.43975" lon="1.43856">
        <ele>215</ele>
        <time>2018-06-10T11:51:30Z</time>
      </trkpt>
      <trkpt lat="43.43978" lon="1.43853">
        <ele>215</ele>
        <time>2018-06-10T11:51:30Z</time>
      </trkpt>
      <trkpt lat="43.4398" lon="1.43849">
        <ele>215</ele>
        <time>2018-06-10T11:51:30Z</time>
      </trkpt>
      <trkpt lat="43.43983" lon="1.43847">
        <ele>215</ele>
        <time>2018-06-10T11:51:30Z</time>
      </trkpt>
      <trkpt lat="43.43988" lon="1.43842">
        <ele>215</ele>
        <time>2018-06-10T11:51:54Z</time>
      </trkpt>
      <trkpt lat="43.43992" lon="1.43841">
        <ele>215</ele>
        <time>2018-06-10T11:51:54Z</time>
      </trkpt>
      <trkpt lat="43.43992" lon="1.43841">
        <ele>215</ele>
        <time>2018-06-10T11:51:54Z</time>
      </trkpt>
      <trkpt lat="43.43993" lon="1.43839">
        <ele>215</ele>
        <time>2018-06-10T11:51:54Z</time>
      </trkpt>
      <trkpt lat="43.43999" lon="1.43836">
        <ele>215</ele>
        <time>2018-06-10T11:51:54Z</time>
      </trkpt>
      <trkpt lat="43.44004" lon="1.4383">
        <ele>215</ele>
        <time>2018-06-10T11:52:10Z</time>
      </trkpt>
      <trkpt lat="43.44008" lon="1.43826">
        <ele>215</ele>
        <time>2018-06-10T11:52:10Z</time>
      </trkpt>
      <trkpt lat="43.44015" lon="1.43822">
        <ele>215</ele>
        <time>2018-06-10T11:52:10Z</time>
      </trkpt>
      <trkpt lat="43.44019" lon="1.43819">
        <ele>215</ele>
        <time>2018-06-10T11:52:10Z</time>
      </trkpt>
      <trkpt lat="43.44021" lon="1.43817">
        <ele>215</ele>
        <time>2018-06-10T11:52:30Z</time>
      </trkpt>
      <trkpt lat="43.44019" lon="1.43815">
        <ele>215</ele>
        <time>2018-06-10T11:52:30Z</time>
      </trkpt>
      <trkpt lat="43.44022" lon="1.43813">
        <ele>215</ele>
        <time>2018-06-10T11:52:30Z</time>
      </trkpt>
      <trkpt lat="43.44026" lon="1.4381">
        <ele>215</ele>
        <time>2018-06-10T11:52:30Z</time>
      </trkpt>
      <trkpt lat="43.44029" lon="1.43805">
        <ele>215</ele>
        <time>2018-06-10T11:52:30Z</time>
      </trkpt>
      <trkpt lat="43.44032" lon="1.438">
        <ele>215</ele>
        <time>2018-06-10T11:52:46Z</time>
      </trkpt>
      <trkpt lat="43.44036" lon="1.43797">
        <ele>215</ele>
        <time>2018-06-10T11:52:46Z</time>
      </trkpt>
      <trkpt lat="43.44041" lon="1.43792">
        <ele>190</ele>
        <time>2018-06-10T11:52:46Z</time>
      </trkpt>
      <trkpt lat="43.44045" lon="1.43784">
        <ele>196</ele>
        <time>2018-06-10T11:52:46Z</time>
      </trkpt>
      <trkpt lat="43.44056" lon="1.43777">
        <ele>196</ele>
        <time>2018-06-10T11:53:18Z</time>
      </trkpt>
      <trkpt lat="43.44056" lon="1.43777">
        <ele>196</ele>
        <time>2018-06-10T11:53:18Z</time>
      </trkpt>
      <trkpt lat="43.44056" lon="1.43777">
        <ele>196</ele>
        <time>2018-06-10T11:53:18Z</time>
      </trkpt>
      <trkpt lat="43.44056" lon="1.43777">
        <ele>196</ele>
        <time>2018-06-10T11:53:18Z</time>
      </trkpt>
      <trkpt lat="43.4406" lon="1.43775">
        <ele>196</ele>
        <time>2018-06-10T11:53:18Z</time>
      </trkpt>
      <trkpt lat="43.44063" lon="1.43773">
        <ele>196</ele>
        <time>2018-06-10T11:53:38Z</time>
      </trkpt>
      <trkpt lat="43.44063" lon="1.43772">
        <ele>196</ele>
        <time>2018-06-10T11:53:38Z</time>
      </trkpt>
      <trkpt lat="43.44062" lon="1.43768">
        <ele>196</ele>
        <time>2018-06-10T11:53:38Z</time>
      </trkpt>
      <trkpt lat="43.44067" lon="1.43765">
        <ele>196</ele>
        <time>2018-06-10T11:53:38Z</time>
      </trkpt>
      <trkpt lat="43.4407" lon="1.43762">
        <ele>196</ele>
        <time>2018-06-10T11:53:38Z</time>
      </trkpt>
      <trkpt lat="43.44074" lon="1.43759">
        <ele>196</ele>
        <time>2018-06-10T11:53:54Z</time>
      </trkpt>
      <trkpt lat="43.44078" lon="1.43756">
        <ele>196</ele>
        <time>2018-06-10T11:53:54Z</time>
      </trkpt>
      <trkpt lat="43.44082" lon="1.4375">
        <ele>196</ele>
        <time>2018-06-10T11:53:54Z</time>
      </trkpt>
      <trkpt lat="43.44083" lon="1.43748">
        <ele>196</ele>
        <time>2018-06-10T11:53:54Z</time>
      </trkpt>
      <trkpt lat="43.44084" lon="1.43748">
        <ele>196</ele>
        <time>2018-06-10T11:54:14Z</time>
      </trkpt>
      <trkpt lat="43.44085" lon="1.43747">
        <ele>196</ele>
        <time>2018-06-10T11:54:14Z</time>
      </trkpt>
      <trkpt lat="43.44086" lon="1.43742">
        <ele>196</ele>
        <time>2018-06-10T11:54:14Z</time>
      </trkpt>
      <trkpt lat="43.44087" lon="1.43738">
        <ele>196</ele>
        <time>2018-06-10T11:54:14Z</time>
      </trkpt>
      <trkpt lat="43.4409" lon="1.43736">
        <ele>196</ele>
        <time>2018-06-10T11:54:14Z</time>
      </trkpt>
      <trkpt lat="43.44094" lon="1.43733">
        <ele>196</ele>
        <time>2018-06-10T11:54:30Z</time>
      </trkpt>
      <trkpt lat="43.44096" lon="1.4373">
        <ele>196</ele>
        <time>2018-06-10T11:54:30Z</time>
      </trkpt>
      <trkpt lat="43.441" lon="1.43727">
        <ele>196</ele>
        <time>2018-06-10T11:54:30Z</time>
      </trkpt>
      <trkpt lat="43.44103" lon="1.43723">
        <ele>196</ele>
        <time>2018-06-10T11:54:30Z</time>
      </trkpt>
      <trkpt lat="43.44108" lon="1.43719">
        <ele>196</ele>
        <time>2018-06-10T11:54:46Z</time>
      </trkpt>
      <trkpt lat="43.44113" lon="1.43719">
        <ele>196</ele>
        <time>2018-06-10T11:54:46Z</time>
      </trkpt>
      <trkpt lat="43.44115" lon="1.43719">
        <ele>196</ele>
        <time>2018-06-10T11:54:46Z</time>
      </trkpt>
      <trkpt lat="43.44117" lon="1.43718">
        <ele>196</ele>
        <time>2018-06-10T11:54:46Z</time>
      </trkpt>
      <trkpt lat="43.44119" lon="1.43716">
        <ele>196</ele>
        <time>2018-06-10T11:55:02Z</time>
      </trkpt>
      <trkpt lat="43.44123" lon="1.43716">
        <ele>196</ele>
        <time>2018-06-10T11:55:02Z</time>
      </trkpt>
      <trkpt lat="43.44125" lon="1.43715">
        <ele>193</ele>
        <time>2018-06-10T11:55:02Z</time>
      </trkpt>
      <trkpt lat="43.44129" lon="1.43714">
        <ele>193</ele>
        <time>2018-06-10T11:55:02Z</time>
      </trkpt>
      <trkpt lat="43.44131" lon="1.43716">
        <ele>193</ele>
        <time>2018-06-10T11:55:22Z</time>
      </trkpt>
      <trkpt lat="43.44133" lon="1.43718">
        <ele>193</ele>
        <time>2018-06-10T11:55:22Z</time>
      </trkpt>
      <trkpt lat="43.44137" lon="1.43719">
        <ele>193</ele>
        <time>2018-06-10T11:55:22Z</time>
      </trkpt>
      <trkpt lat="43.4414" lon="1.43718">
        <ele>193</ele>
        <time>2018-06-10T11:55:22Z</time>
      </trkpt>
      <trkpt lat="43.44141" lon="1.43721">
        <ele>193</ele>
        <time>2018-06-10T11:55:22Z</time>
      </trkpt>
      <trkpt lat="43.4414" lon="1.43722">
        <ele>193</ele>
        <time>2018-06-10T11:55:42Z</time>
      </trkpt>
      <trkpt lat="43.4414" lon="1.43725">
        <ele>193</ele>
        <time>2018-06-10T11:55:42Z</time>
      </trkpt>
      <trkpt lat="43.44139" lon="1.4373">
        <ele>193</ele>
        <time>2018-06-10T11:55:42Z</time>
      </trkpt>
      <trkpt lat="43.44138" lon="1.43734">
        <ele>193</ele>
        <time>2018-06-10T11:55:42Z</time>
      </trkpt>
      <trkpt lat="43.44139" lon="1.43738">
        <ele>193</ele>
        <time>2018-06-10T11:55:42Z</time>
      </trkpt>
      <trkpt lat="43.44138" lon="1.43741">
        <ele>193</ele>
        <time>2018-06-10T11:56:06Z</time>
      </trkpt>
      <trkpt lat="43.44138" lon="1.43742">
        <ele>193</ele>
        <time>2018-06-10T11:56:06Z</time>
      </trkpt>
      <trkpt lat="43.44138" lon="1.43745">
        <ele>193</ele>
        <time>2018-06-10T11:56:06Z</time>
      </trkpt>
      <trkpt lat="43.4414" lon="1.43751">
        <ele>193</ele>
        <time>2018-06-10T11:56:06Z</time>
      </trkpt>
      <trkpt lat="43.4414" lon="1.43755">
        <ele>193</ele>
        <time>2018-06-10T11:56:06Z</time>
      </trkpt>
      <trkpt lat="43.44147" lon="1.43763">
        <ele>193</ele>
        <time>2018-06-10T11:58:22Z</time>
      </trkpt>
      <trkpt lat="43.44147" lon="1.43765">
        <ele>193</ele>
        <time>2018-06-10T11:58:22Z</time>
      </trkpt>
      <trkpt lat="43.44146" lon="1.43769">
        <ele>193</ele>
        <time>2018-06-10T11:58:22Z</time>
      </trkpt>
      <trkpt lat="43.44147" lon="1.43774">
        <ele>193</ele>
        <time>2018-06-10T11:58:22Z</time>
      </trkpt>
      <trkpt lat="43.44143" lon="1.43779">
        <ele>193</ele>
        <time>2018-06-10T11:58:22Z</time>
      </trkpt>
      <trkpt lat="43.44142" lon="1.43784">
        <ele>193</ele>
        <time>2018-06-10T11:58:38Z</time>
      </trkpt>
      <trkpt lat="43.44143" lon="1.43788">
        <ele>193</ele>
        <time>2018-06-10T11:58:38Z</time>
      </trkpt>
      <trkpt lat="43.44143" lon="1.43791">
        <ele>193</ele>
        <time>2018-06-10T11:58:38Z</time>
      </trkpt>
      <trkpt lat="43.44141" lon="1.43797">
        <ele>197</ele>
        <time>2018-06-10T11:58:38Z</time>
      </trkpt>
      <trkpt lat="43.44142" lon="1.43802">
        <ele>197</ele>
        <time>2018-06-10T11:58:54Z</time>
      </trkpt>
      <trkpt lat="43.44144" lon="1.43807">
        <ele>197</ele>
        <time>2018-06-10T11:58:54Z</time>
      </trkpt>
      <trkpt lat="43.44142" lon="1.43811">
        <ele>197</ele>
        <time>2018-06-10T11:58:54Z</time>
      </trkpt>
      <trkpt lat="43.44138" lon="1.43815">
        <ele>197</ele>
        <time>2018-06-10T11:58:54Z</time>
      </trkpt>
      <trkpt lat="43.44136" lon="1.43817">
        <ele>197</ele>
        <time>2018-06-10T11:59:10Z</time>
      </trkpt>
      <trkpt lat="43.44136" lon="1.43822">
        <ele>197</ele>
        <time>2018-06-10T11:59:10Z</time>
      </trkpt>
      <trkpt lat="43.44137" lon="1.43828">
        <ele>197</ele>
        <time>2018-06-10T11:59:10Z</time>
      </trkpt>
      <trkpt lat="43.44138" lon="1.43834">
        <ele>197</ele>
        <time>2018-06-10T11:59:10Z</time>
      </trkpt>
      <trkpt lat="43.44136" lon="1.43839">
        <ele>197</ele>
        <time>2018-06-10T11:59:26Z</time>
      </trkpt>
      <trkpt lat="43.44134" lon="1.43844">
        <ele>197</ele>
        <time>2018-06-10T11:59:26Z</time>
      </trkpt>
      <trkpt lat="43.44132" lon="1.4385">
        <ele>197</ele>
        <time>2018-06-10T11:59:26Z</time>
      </trkpt>
      <trkpt lat="43.4413" lon="1.43854">
        <ele>197</ele>
        <time>2018-06-10T11:59:26Z</time>
      </trkpt>
      <trkpt lat="43.44128" lon="1.43861">
        <ele>197</ele>
        <time>2018-06-10T11:59:42Z</time>
      </trkpt>
      <trkpt lat="43.44127" lon="1.43868">
        <ele>197</ele>
        <time>2018-06-10T11:59:42Z</time>
      </trkpt>
      <trkpt lat="43.44125" lon="1.43873">
        <ele>197</ele>
        <time>2018-06-10T11:59:42Z</time>
      </trkpt>
      <trkpt lat="43.44121" lon="1.43878">
        <ele>204</ele>
        <time>2018-06-10T11:59:42Z</time>
      </trkpt>
      <trkpt lat="43.44121" lon="1.43882">
        <ele>204</ele>
        <time>2018-06-10T12:00:02Z</time>
      </trkpt>
      <trkpt lat="43.44121" lon="1.43885">
        <ele>204</ele>
        <time>2018-06-10T12:00:02Z</time>
      </trkpt>
      <trkpt lat="43.44121" lon="1.43885">
        <ele>204</ele>
        <time>2018-06-10T12:00:02Z</time>
      </trkpt>
      <trkpt lat="43.44119" lon="1.4389">
        <ele>204</ele>
        <time>2018-06-10T12:00:02Z</time>
      </trkpt>
      <trkpt lat="43.44117" lon="1.43895">
        <ele>204</ele>
        <time>2018-06-10T12:00:02Z</time>
      </trkpt>
      <trkpt lat="43.44117" lon="1.43905">
        <ele>204</ele>
        <time>2018-06-10T12:00:19Z</time>
      </trkpt>
      <trkpt lat="43.44116" lon="1.43913">
        <ele>204</ele>
        <time>2018-06-10T12:00:19Z</time>
      </trkpt>
      <trkpt lat="43.44115" lon="1.4392">
        <ele>204</ele>
        <time>2018-06-10T12:00:19Z</time>
      </trkpt>
      <trkpt lat="43.44114" lon="1.43923">
        <ele>204</ele>
        <time>2018-06-10T12:00:19Z</time>
      </trkpt>
      <trkpt lat="43.44113" lon="1.43923">
        <ele>204</ele>
        <time>2018-06-10T12:00:34Z</time>
      </trkpt>
      <trkpt lat="43.44112" lon="1.43926">
        <ele>204</ele>
        <time>2018-06-10T12:00:34Z</time>
      </trkpt>
      <trkpt lat="43.44112" lon="1.43933">
        <ele>204</ele>
        <time>2018-06-10T12:00:34Z</time>
      </trkpt>
      <trkpt lat="43.44108" lon="1.43936">
        <ele>204</ele>
        <time>2018-06-10T12:00:34Z</time>
      </trkpt>
      <trkpt lat="43.44107" lon="1.43941">
        <ele>204</ele>
        <time>2018-06-10T12:00:50Z</time>
      </trkpt>
      <trkpt lat="43.44105" lon="1.43946">
        <ele>204</ele>
        <time>2018-06-10T12:00:50Z</time>
      </trkpt>
      <trkpt lat="43.44105" lon="1.43951">
        <ele>204</ele>
        <time>2018-06-10T12:00:50Z</time>
      </trkpt>
      <trkpt lat="43.44107" lon="1.43956">
        <ele>204</ele>
        <time>2018-06-10T12:00:50Z</time>
      </trkpt>
      <trkpt lat="43.44107" lon="1.43963">
        <ele>205</ele>
        <time>2018-06-10T12:01:06Z</time>
      </trkpt>
      <trkpt lat="43.44109" lon="1.43969">
        <ele>205</ele>
        <time>2018-06-10T12:01:07Z</time>
      </trkpt>
      <trkpt lat="43.44111" lon="1.43972">
        <ele>205</ele>
        <time>2018-06-10T12:01:07Z</time>
      </trkpt>
      <trkpt lat="43.44113" lon="1.43979">
        <ele>205</ele>
        <time>2018-06-10T12:01:07Z</time>
      </trkpt>
      <trkpt lat="43.44115" lon="1.43985">
        <ele>205</ele>
        <time>2018-06-10T12:01:22Z</time>
      </trkpt>
      <trkpt lat="43.44117" lon="1.43992">
        <ele>205</ele>
        <time>2018-06-10T12:01:22Z</time>
      </trkpt>
      <trkpt lat="43.44119" lon="1.43999">
        <ele>205</ele>
        <time>2018-06-10T12:01:22Z</time>
      </trkpt>
      <trkpt lat="43.4412" lon="1.44002">
        <ele>205</ele>
        <time>2018-06-10T12:01:22Z</time>
      </trkpt>
      <trkpt lat="43.44122" lon="1.44011">
        <ele>205</ele>
        <time>2018-06-10T12:01:42Z</time>
      </trkpt>
      <trkpt lat="43.44121" lon="1.44016">
        <ele>205</ele>
        <time>2018-06-10T12:01:42Z</time>
      </trkpt>
      <trkpt lat="43.44122" lon="1.44021">
        <ele>205</ele>
        <time>2018-06-10T12:01:42Z</time>
      </trkpt>
      <trkpt lat="43.44124" lon="1.44023">
        <ele>205</ele>
        <time>2018-06-10T12:01:42Z</time>
      </trkpt>
      <trkpt lat="43.44126" lon="1.44028">
        <ele>206</ele>
        <time>2018-06-10T12:01:42Z</time>
      </trkpt>
      <trkpt lat="43.44127" lon="1.44031">
        <ele>206</ele>
        <time>2018-06-10T12:01:59Z</time>
      </trkpt>
      <trkpt lat="43.4413" lon="1.44039">
        <ele>206</ele>
        <time>2018-06-10T12:01:59Z</time>
      </trkpt>
      <trkpt lat="43.44132" lon="1.44044">
        <ele>214</ele>
        <time>2018-06-10T12:01:59Z</time>
      </trkpt>
      <trkpt lat="43.44133" lon="1.44051">
        <ele>214</ele>
        <time>2018-06-10T12:01:59Z</time>
      </trkpt>
      <trkpt lat="43.44133" lon="1.44053">
        <ele>214</ele>
        <time>2018-06-10T12:02:15Z</time>
      </trkpt>
      <trkpt lat="43.44135" lon="1.44057">
        <ele>214</ele>
        <time>2018-06-10T12:02:15Z</time>
      </trkpt>
      <trkpt lat="43.44135" lon="1.44059">
        <ele>214</ele>
        <time>2018-06-10T12:02:15Z</time>
      </trkpt>
      <trkpt lat="43.4414" lon="1.44068">
        <ele>214</ele>
        <time>2018-06-10T12:02:15Z</time>
      </trkpt>
      <trkpt lat="43.44141" lon="1.44069">
        <ele>214</ele>
        <time>2018-06-10T12:02:31Z</time>
      </trkpt>
      <trkpt lat="43.44144" lon="1.44076">
        <ele>214</ele>
        <time>2018-06-10T12:02:31Z</time>
      </trkpt>
      <trkpt lat="43.44145" lon="1.44078">
        <ele>214</ele>
        <time>2018-06-10T12:02:31Z</time>
      </trkpt>
      <trkpt lat="43.44147" lon="1.44087">
        <ele>214</ele>
        <time>2018-06-10T12:02:31Z</time>
      </trkpt>
      <trkpt lat="43.44147" lon="1.44095">
        <ele>214</ele>
        <time>2018-06-10T12:02:46Z</time>
      </trkpt>
      <trkpt lat="43.44147" lon="1.44103">
        <ele>214</ele>
        <time>2018-06-10T12:02:46Z</time>
      </trkpt>
      <trkpt lat="43.44146" lon="1.44108">
        <ele>214</ele>
        <time>2018-06-10T12:02:46Z</time>
      </trkpt>
      <trkpt lat="43.44145" lon="1.4411">
        <ele>214</ele>
        <time>2018-06-10T12:02:46Z</time>
      </trkpt>
      <trkpt lat="43.44142" lon="1.44118">
        <ele>214</ele>
        <time>2018-06-10T12:03:02Z</time>
      </trkpt>
      <trkpt lat="43.44141" lon="1.44121">
        <ele>214</ele>
        <time>2018-06-10T12:03:02Z</time>
      </trkpt>
      <trkpt lat="43.4414" lon="1.44125">
        <ele>223</ele>
        <time>2018-06-10T12:03:02Z</time>
      </trkpt>
      <trkpt lat="43.4414" lon="1.44139">
        <ele>223</ele>
        <time>2018-06-10T12:03:02Z</time>
      </trkpt>
      <trkpt lat="43.4414" lon="1.44146">
        <ele>223</ele>
        <time>2018-06-10T12:03:18Z</time>
      </trkpt>
      <trkpt lat="43.44139" lon="1.4415">
        <ele>223</ele>
        <time>2018-06-10T12:03:18Z</time>
      </trkpt>
      <trkpt lat="43.44139" lon="1.44161">
        <ele>223</ele>
        <time>2018-06-10T12:03:18Z</time>
      </trkpt>
      <trkpt lat="43.4414" lon="1.44167">
        <ele>223</ele>
        <time>2018-06-10T12:03:18Z</time>
      </trkpt>
      <trkpt lat="43.44139" lon="1.44173">
        <ele>223</ele>
        <time>2018-06-10T12:03:34Z</time>
      </trkpt>
      <trkpt lat="43.44139" lon="1.44177">
        <ele>223</ele>
        <time>2018-06-10T12:03:34Z</time>
      </trkpt>
      <trkpt lat="43.44137" lon="1.44187">
        <ele>223</ele>
        <time>2018-06-10T12:03:34Z</time>
      </trkpt>
      <trkpt lat="43.44136" lon="1.44192">
        <ele>223</ele>
        <time>2018-06-10T12:03:34Z</time>
      </trkpt>
      <trkpt lat="43.44136" lon="1.44195">
        <ele>223</ele>
        <time>2018-06-10T12:03:50Z</time>
      </trkpt>
      <trkpt lat="43.44137" lon="1.44203">
        <ele>223</ele>
        <time>2018-06-10T12:03:50Z</time>
      </trkpt>
      <trkpt lat="43.44137" lon="1.44205">
        <ele>223</ele>
        <time>2018-06-10T12:03:50Z</time>
      </trkpt>
      <trkpt lat="43.44135" lon="1.44208">
        <ele>223</ele>
        <time>2018-06-10T12:03:50Z</time>
      </trkpt>
      <trkpt lat="43.44134" lon="1.44218">
        <ele>230</ele>
        <time>2018-06-10T12:04:06Z</time>
      </trkpt>
      <trkpt lat="43.44133" lon="1.44227">
        <ele>230</ele>
        <time>2018-06-10T12:04:06Z</time>
      </trkpt>
      <trkpt lat="43.44134" lon="1.44235">
        <ele>230</ele>
        <time>2018-06-10T12:04:06Z</time>
      </trkpt>
      <trkpt lat="43.44134" lon="1.44242">
        <ele>230</ele>
        <time>2018-06-10T12:04:06Z</time>
      </trkpt>
      <trkpt lat="43.44133" lon="1.44249">
        <ele>230</ele>
        <time>2018-06-10T12:04:22Z</time>
      </trkpt>
      <trkpt lat="43.44131" lon="1.44256">
        <ele>230</ele>
        <time>2018-06-10T12:04:22Z</time>
      </trkpt>
      <trkpt lat="43.4413" lon="1.44261">
        <ele>230</ele>
        <time>2018-06-10T12:04:22Z</time>
      </trkpt>
      <trkpt lat="43.44129" lon="1.44261">
        <ele>230</ele>
        <time>2018-06-10T12:04:22Z</time>
      </trkpt>
      <trkpt lat="43.44129" lon="1.44266">
        <ele>230</ele>
        <time>2018-06-10T12:04:38Z</time>
      </trkpt>
      <trkpt lat="43.44128" lon="1.44274">
        <ele>230</ele>
        <time>2018-06-10T12:04:38Z</time>
      </trkpt>
      <trkpt lat="43.44126" lon="1.44282">
        <ele>230</ele>
        <time>2018-06-10T12:04:38Z</time>
      </trkpt>
      <trkpt lat="43.44123" lon="1.44287">
        <ele>230</ele>
        <time>2018-06-10T12:04:38Z</time>
      </trkpt>
      <trkpt lat="43.44116" lon="1.44302">
        <ele>233</ele>
        <time>2018-06-10T12:05:15Z</time>
      </trkpt>
      <trkpt lat="43.44116" lon="1.44303">
        <ele>233</ele>
        <time>2018-06-10T12:05:15Z</time>
      </trkpt>
      <trkpt lat="43.44116" lon="1.44305">
        <ele>233</ele>
        <time>2018-06-10T12:05:15Z</time>
      </trkpt>
      <trkpt lat="43.44113" lon="1.44308">
        <ele>233</ele>
        <time>2018-06-10T12:05:15Z</time>
      </trkpt>
      <trkpt lat="43.44112" lon="1.44308">
        <ele>233</ele>
        <time>2018-06-10T12:05:15Z</time>
      </trkpt>
      <trkpt lat="43.44112" lon="1.44311">
        <ele>233</ele>
        <time>2018-06-10T12:08:38Z</time>
      </trkpt>
      <trkpt lat="43.44112" lon="1.44311">
        <ele>233</ele>
        <time>2018-06-10T12:08:38Z</time>
      </trkpt>
      <trkpt lat="43.44113" lon="1.44313">
        <ele>233</ele>
        <time>2018-06-10T12:08:38Z</time>
      </trkpt>
      <trkpt lat="43.44116" lon="1.44316">
        <ele>233</ele>
        <time>2018-06-10T12:08:38Z</time>
      </trkpt>
      <trkpt lat="43.44119" lon="1.4432">
        <ele>233</ele>
        <time>2018-06-10T12:08:38Z</time>
      </trkpt>
      <trkpt lat="43.44123" lon="1.44324">
        <ele>233</ele>
        <time>2018-06-10T12:08:54Z</time>
      </trkpt>
      <trkpt lat="43.44127" lon="1.44329">
        <ele>236</ele>
        <time>2018-06-10T12:08:54Z</time>
      </trkpt>
      <trkpt lat="43.4413" lon="1.44333">
        <ele>236</ele>
        <time>2018-06-10T12:08:54Z</time>
      </trkpt>
      <trkpt lat="43.44135" lon="1.44337">
        <ele>236</ele>
        <time>2018-06-10T12:08:54Z</time>
      </trkpt>
      <trkpt lat="43.4414" lon="1.44341">
        <ele>236</ele>
        <time>2018-06-10T12:09:10Z</time>
      </trkpt>
      <trkpt lat="43.44144" lon="1.44346">
        <ele>236</ele>
        <time>2018-06-10T12:09:10Z</time>
      </trkpt>
      <trkpt lat="43.44147" lon="1.4435">
        <ele>236</ele>
        <time>2018-06-10T12:09:10Z</time>
      </trkpt>
      <trkpt lat="43.4415" lon="1.44353">
        <ele>236</ele>
        <time>2018-06-10T12:09:10Z</time>
      </trkpt>
      <trkpt lat="43.44152" lon="1.44357">
        <ele>236</ele>
        <time>2018-06-10T12:09:26Z</time>
      </trkpt>
      <trkpt lat="43.44157" lon="1.44359">
        <ele>236</ele>
        <time>2018-06-10T12:09:26Z</time>
      </trkpt>
      <trkpt lat="43.44161" lon="1.44363">
        <ele>236</ele>
        <time>2018-06-10T12:09:26Z</time>
      </trkpt>
      <trkpt lat="43.44164" lon="1.44366">
        <ele>236</ele>
        <time>2018-06-10T12:09:26Z</time>
      </trkpt>
      <trkpt lat="43.44168" lon="1.44368">
        <ele>236</ele>
        <time>2018-06-10T12:09:43Z</time>
      </trkpt>
      <trkpt lat="43.44173" lon="1.44371">
        <ele>236</ele>
        <time>2018-06-10T12:09:43Z</time>
      </trkpt>
      <trkpt lat="43.44177" lon="1.44374">
        <ele>236</ele>
        <time>2018-06-10T12:09:43Z</time>
      </trkpt>
      <trkpt lat="43.44181" lon="1.44377">
        <ele>234</ele>
        <time>2018-06-10T12:09:43Z</time>
      </trkpt>
      <trkpt lat="43.44184" lon="1.44382">
        <ele>234</ele>
        <time>2018-06-10T12:09:58Z</time>
      </trkpt>
      <trkpt lat="43.44188" lon="1.44387">
        <ele>234</ele>
        <time>2018-06-10T12:09:58Z</time>
      </trkpt>
      <trkpt lat="43.44192" lon="1.44388">
        <ele>234</ele>
        <time>2018-06-10T12:09:58Z</time>
      </trkpt>
      <trkpt lat="43.44195" lon="1.44391">
        <ele>234</ele>
        <time>2018-06-10T12:09:58Z</time>
      </trkpt>
      <trkpt lat="43.44202" lon="1.44396">
        <ele>234</ele>
        <time>2018-06-10T12:10:15Z</time>
      </trkpt>
      <trkpt lat="43.44204" lon="1.44394">
        <ele>234</ele>
        <time>2018-06-10T12:10:15Z</time>
      </trkpt>
      <trkpt lat="43.44209" lon="1.44392">
        <ele>238</ele>
        <time>2018-06-10T12:10:15Z</time>
      </trkpt>
      <trkpt lat="43.44213" lon="1.44389">
        <ele>238</ele>
        <time>2018-06-10T12:10:15Z</time>
      </trkpt>
      <trkpt lat="43.44216" lon="1.44386">
        <ele>238</ele>
        <time>2018-06-10T12:10:30Z</time>
      </trkpt>
      <trkpt lat="43.44221" lon="1.44385">
        <ele>238</ele>
        <time>2018-06-10T12:10:30Z</time>
      </trkpt>
      <trkpt lat="43.44227" lon="1.44383">
        <ele>238</ele>
        <time>2018-06-10T12:10:30Z</time>
      </trkpt>
      <trkpt lat="43.4423" lon="1.44382">
        <ele>238</ele>
        <time>2018-06-10T12:10:30Z</time>
      </trkpt>
      <trkpt lat="43.44236" lon="1.44379">
        <ele>238</ele>
        <time>2018-06-10T12:10:47Z</time>
      </trkpt>
      <trkpt lat="43.4424" lon="1.44379">
        <ele>238</ele>
        <time>2018-06-10T12:10:47Z</time>
      </trkpt>
      <trkpt lat="43.44244" lon="1.44381">
        <ele>238</ele>
        <time>2018-06-10T12:10:47Z</time>
      </trkpt>
      <trkpt lat="43.44247" lon="1.44383">
        <ele>238</ele>
        <time>2018-06-10T12:10:47Z</time>
      </trkpt>
      <trkpt lat="43.44251" lon="1.44383">
        <ele>238</ele>
        <time>2018-06-10T12:11:02Z</time>
      </trkpt>
      <trkpt lat="43.44255" lon="1.44384">
        <ele>238</ele>
        <time>2018-06-10T12:11:02Z</time>
      </trkpt>
      <trkpt lat="43.44259" lon="1.44383">
        <ele>238</ele>
        <time>2018-06-10T12:11:02Z</time>
      </trkpt>
      <trkpt lat="43.44263" lon="1.44382">
        <ele>238</ele>
        <time>2018-06-10T12:11:02Z</time>
      </trkpt>
      <trkpt lat="43.44268" lon="1.44383">
        <ele>238</ele>
        <time>2018-06-10T12:11:18Z</time>
      </trkpt>
      <trkpt lat="43.44272" lon="1.44383">
        <ele>238</ele>
        <time>2018-06-10T12:11:18Z</time>
      </trkpt>
      <trkpt lat="43.44277" lon="1.44378">
        <ele>238</ele>
        <time>2018-06-10T12:11:18Z</time>
      </trkpt>
      <trkpt lat="43.44279" lon="1.44373">
        <ele>244</ele>
        <time>2018-06-10T12:11:18Z</time>
      </trkpt>
      <trkpt lat="43.44281" lon="1.44368">
        <ele>244</ele>
        <time>2018-06-10T12:11:34Z</time>
      </trkpt>
      <trkpt lat="43.44281" lon="1.44361">
        <ele>244</ele>
        <time>2018-06-10T12:11:34Z</time>
      </trkpt>
      <trkpt lat="43.44282" lon="1.44356">
        <ele>244</ele>
        <time>2018-06-10T12:11:34Z</time>
      </trkpt>
      <trkpt lat="43.44284" lon="1.44356">
        <ele>244</ele>
        <time>2018-06-10T12:11:34Z</time>
      </trkpt>
      <trkpt lat="43.44286" lon="1.44355">
        <ele>244</ele>
        <time>2018-06-10T12:11:51Z</time>
      </trkpt>
      <trkpt lat="43.4429" lon="1.44354">
        <ele>244</ele>
        <time>2018-06-10T12:11:51Z</time>
      </trkpt>
      <trkpt lat="43.44295" lon="1.4435">
        <ele>245</ele>
        <time>2018-06-10T12:11:51Z</time>
      </trkpt>
      <trkpt lat="43.44297" lon="1.44348">
        <ele>245</ele>
        <time>2018-06-10T12:11:51Z</time>
      </trkpt>
      <trkpt lat="43.443" lon="1.44347">
        <ele>245</ele>
        <time>2018-06-10T12:12:06Z</time>
      </trkpt>
      <trkpt lat="43.44303" lon="1.44344">
        <ele>245</ele>
        <time>2018-06-10T12:12:06Z</time>
      </trkpt>
      <trkpt lat="43.44307" lon="1.4434">
        <ele>245</ele>
        <time>2018-06-10T12:12:06Z</time>
      </trkpt>
      <trkpt lat="43.44312" lon="1.44336">
        <ele>245</ele>
        <time>2018-06-10T12:12:06Z</time>
      </trkpt>
      <trkpt lat="43.44316" lon="1.44332">
        <ele>245</ele>
        <time>2018-06-10T12:12:22Z</time>
      </trkpt>
      <trkpt lat="43.44318" lon="1.4433">
        <ele>245</ele>
        <time>2018-06-10T12:12:22Z</time>
      </trkpt>
      <trkpt lat="43.44319" lon="1.44329">
        <ele>245</ele>
        <time>2018-06-10T12:12:22Z</time>
      </trkpt>
      <trkpt lat="43.44324" lon="1.44325">
        <ele>245</ele>
        <time>2018-06-10T12:12:22Z</time>
      </trkpt>
      <trkpt lat="43.44332" lon="1.44321">
        <ele>245</ele>
        <time>2018-06-10T12:12:39Z</time>
      </trkpt>
      <trkpt lat="43.44336" lon="1.44317">
        <ele>245</ele>
        <time>2018-06-10T12:12:39Z</time>
      </trkpt>
      <trkpt lat="43.44341" lon="1.44315">
        <ele>245</ele>
        <time>2018-06-10T12:12:39Z</time>
      </trkpt>
      <trkpt lat="43.44346" lon="1.44313">
        <ele>245</ele>
        <time>2018-06-10T12:12:39Z</time>
      </trkpt>
      <trkpt lat="43.44351" lon="1.44313">
        <ele>245</ele>
        <time>2018-06-10T12:12:54Z</time>
      </trkpt>
      <trkpt lat="43.44355" lon="1.44312">
        <ele>245</ele>
        <time>2018-06-10T12:12:54Z</time>
      </trkpt>
      <trkpt lat="43.4436" lon="1.4431">
        <ele>245</ele>
        <time>2018-06-10T12:12:54Z</time>
      </trkpt>
      <trkpt lat="43.44364" lon="1.44306">
        <ele>245</ele>
        <time>2018-06-10T12:12:54Z</time>
      </trkpt>
      <trkpt lat="43.44367" lon="1.44304">
        <ele>245</ele>
        <time>2018-06-10T12:13:10Z</time>
      </trkpt>
      <trkpt lat="43.44373" lon="1.44302">
        <ele>245</ele>
        <time>2018-06-10T12:13:10Z</time>
      </trkpt>
      <trkpt lat="43.44377" lon="1.44301">
        <ele>241</ele>
        <time>2018-06-10T12:13:10Z</time>
      </trkpt>
      <trkpt lat="43.44381" lon="1.44298">
        <ele>241</ele>
        <time>2018-06-10T12:13:10Z</time>
      </trkpt>
      <trkpt lat="43.44384" lon="1.44295">
        <ele>241</ele>
        <time>2018-06-10T12:13:26Z</time>
      </trkpt>
      <trkpt lat="43.44389" lon="1.44293">
        <ele>241</ele>
        <time>2018-06-10T12:13:26Z</time>
      </trkpt>
      <trkpt lat="43.44395" lon="1.44291">
        <ele>241</ele>
        <time>2018-06-10T12:13:26Z</time>
      </trkpt>
      <trkpt lat="43.44397" lon="1.44291">
        <ele>241</ele>
        <time>2018-06-10T12:13:26Z</time>
      </trkpt>
      <trkpt lat="43.44399" lon="1.44291">
        <ele>241</ele>
        <time>2018-06-10T12:13:42Z</time>
      </trkpt>
      <trkpt lat="43.44403" lon="1.4429">
        <ele>241</ele>
        <time>2018-06-10T12:13:42Z</time>
      </trkpt>
      <trkpt lat="43.44411" lon="1.44286">
        <ele>241</ele>
        <time>2018-06-10T12:13:42Z</time>
      </trkpt>
      <trkpt lat="43.44417" lon="1.44281">
        <ele>241</ele>
        <time>2018-06-10T12:13:42Z</time>
      </trkpt>
      <trkpt lat="43.44423" lon="1.44279">
        <ele>241</ele>
        <time>2018-06-10T12:13:59Z</time>
      </trkpt>
      <trkpt lat="43.44427" lon="1.44275">
        <ele>241</ele>
        <time>2018-06-10T12:13:59Z</time>
      </trkpt>
      <trkpt lat="43.44429" lon="1.44274">
        <ele>241</ele>
        <time>2018-06-10T12:13:59Z</time>
      </trkpt>
      <trkpt lat="43.44432" lon="1.44272">
        <ele>241</ele>
        <time>2018-06-10T12:13:59Z</time>
      </trkpt>
      <trkpt lat="43.44436" lon="1.4427">
        <ele>241</ele>
        <time>2018-06-10T12:14:14Z</time>
      </trkpt>
      <trkpt lat="43.4444" lon="1.44269">
        <ele>241</ele>
        <time>2018-06-10T12:14:14Z</time>
      </trkpt>
      <trkpt lat="43.44444" lon="1.44268">
        <ele>241</ele>
        <time>2018-06-10T12:14:14Z</time>
      </trkpt>
      <trkpt lat="43.44449" lon="1.44267">
        <ele>241</ele>
        <time>2018-06-10T12:14:14Z</time>
      </trkpt>
      <trkpt lat="43.44453" lon="1.44264">
        <ele>241</ele>
        <time>2018-06-10T12:14:31Z</time>
      </trkpt>
      <trkpt lat="43.44456" lon="1.4426">
        <ele>241</ele>
        <time>2018-06-10T12:14:31Z</time>
      </trkpt>
      <trkpt lat="43.44459" lon="1.44257">
        <ele>231</ele>
        <time>2018-06-10T12:14:31Z</time>
      </trkpt>
      <trkpt lat="43.4446" lon="1.44252">
        <ele>231</ele>
        <time>2018-06-10T12:14:31Z</time>
      </trkpt>
      <trkpt lat="43.44461" lon="1.44251">
        <ele>231</ele>
        <time>2018-06-10T12:14:46Z</time>
      </trkpt>
      <trkpt lat="43.44469" lon="1.44248">
        <ele>231</ele>
        <time>2018-06-10T12:14:46Z</time>
      </trkpt>
      <trkpt lat="43.44475" lon="1.44243">
        <ele>231</ele>
        <time>2018-06-10T12:14:46Z</time>
      </trkpt>
      <trkpt lat="43.44479" lon="1.4424">
        <ele>231</ele>
        <time>2018-06-10T12:14:46Z</time>
      </trkpt>
      <trkpt lat="43.44483" lon="1.44238">
        <ele>231</ele>
        <time>2018-06-10T12:15:02Z</time>
      </trkpt>
      <trkpt lat="43.44487" lon="1.44238">
        <ele>231</ele>
        <time>2018-06-10T12:15:02Z</time>
      </trkpt>
      <trkpt lat="43.4449" lon="1.44241">
        <ele>231</ele>
        <time>2018-06-10T12:15:02Z</time>
      </trkpt>
      <trkpt lat="43.44496" lon="1.44243">
        <ele>231</ele>
        <time>2018-06-10T12:15:02Z</time>
      </trkpt>
      <trkpt lat="43.445" lon="1.44241">
        <ele>231</ele>
        <time>2018-06-10T12:15:18Z</time>
      </trkpt>
      <trkpt lat="43.44504" lon="1.44244">
        <ele>231</ele>
        <time>2018-06-10T12:15:18Z</time>
      </trkpt>
      <trkpt lat="43.44508" lon="1.44246">
        <ele>231</ele>
        <time>2018-06-10T12:15:18Z</time>
      </trkpt>
      <trkpt lat="43.44512" lon="1.44246">
        <ele>231</ele>
        <time>2018-06-10T12:15:18Z</time>
      </trkpt>
      <trkpt lat="43.44515" lon="1.4425">
        <ele>231</ele>
        <time>2018-06-10T12:15:35Z</time>
      </trkpt>
      <trkpt lat="43.4452" lon="1.44252">
        <ele>231</ele>
        <time>2018-06-10T12:15:35Z</time>
      </trkpt>
      <trkpt lat="43.44522" lon="1.44254">
        <ele>231</ele>
        <time>2018-06-10T12:15:35Z</time>
      </trkpt>
      <trkpt lat="43.44525" lon="1.44255">
        <ele>231</ele>
        <time>2018-06-10T12:15:35Z</time>
      </trkpt>
      <trkpt lat="43.44534" lon="1.44266">
        <ele>231</ele>
        <time>2018-06-10T12:16:18Z</time>
      </trkpt>
      <trkpt lat="43.44534" lon="1.44266">
        <ele>231</ele>
        <time>2018-06-10T12:16:18Z</time>
      </trkpt>
      <trkpt lat="43.44535" lon="1.44266">
        <ele>231</ele>
        <time>2018-06-10T12:16:18Z</time>
      </trkpt>
      <trkpt lat="43.44535" lon="1.44267">
        <ele>231</ele>
        <time>2018-06-10T12:16:18Z</time>
      </trkpt>
      <trkpt lat="43.44539" lon="1.44269">
        <ele>231</ele>
        <time>2018-06-10T12:16:18Z</time>
      </trkpt>
      <trkpt lat="43.44545" lon="1.44271">
        <ele>235</ele>
        <time>2018-06-10T12:16:38Z</time>
      </trkpt>
      <trkpt lat="43.44546" lon="1.44273">
        <ele>235</ele>
        <time>2018-06-10T12:16:38Z</time>
      </trkpt>
      <trkpt lat="43.44549" lon="1.44275">
        <ele>235</ele>
        <time>2018-06-10T12:16:38Z</time>
      </trkpt>
      <trkpt lat="43.4455" lon="1.4428">
        <ele>235</ele>
        <time>2018-06-10T12:16:38Z</time>
      </trkpt>
      <trkpt lat="43.44551" lon="1.44282">
        <ele>235</ele>
        <time>2018-06-10T12:16:38Z</time>
      </trkpt>
      <trkpt lat="43.44558" lon="1.44287">
        <ele>235</ele>
        <time>2018-06-10T12:16:54Z</time>
      </trkpt>
      <trkpt lat="43.44563" lon="1.44289">
        <ele>235</ele>
        <time>2018-06-10T12:16:54Z</time>
      </trkpt>
      <trkpt lat="43.44569" lon="1.44293">
        <ele>235</ele>
        <time>2018-06-10T12:16:55Z</time>
      </trkpt>
      <trkpt lat="43.44575" lon="1.44297">
        <ele>235</ele>
        <time>2018-06-10T12:16:55Z</time>
      </trkpt>
      <trkpt lat="43.44579" lon="1.44305">
        <ele>235</ele>
        <time>2018-06-10T12:17:42Z</time>
      </trkpt>
      <trkpt lat="43.44579" lon="1.44305">
        <ele>235</ele>
        <time>2018-06-10T12:17:42Z</time>
      </trkpt>
      <trkpt lat="43.44579" lon="1.44305">
        <ele>235</ele>
        <time>2018-06-10T12:17:42Z</time>
      </trkpt>
      <trkpt lat="43.44582" lon="1.44306">
        <ele>235</ele>
        <time>2018-06-10T12:17:42Z</time>
      </trkpt>
      <trkpt lat="43.44586" lon="1.44309">
        <ele>235</ele>
        <time>2018-06-10T12:17:42Z</time>
      </trkpt>
      <trkpt lat="43.4459" lon="1.44312">
        <ele>235</ele>
        <time>2018-06-10T12:17:58Z</time>
      </trkpt>
      <trkpt lat="43.44594" lon="1.44315">
        <ele>235</ele>
        <time>2018-06-10T12:17:58Z</time>
      </trkpt>
      <trkpt lat="43.44599" lon="1.44316">
        <ele>235</ele>
        <time>2018-06-10T12:17:58Z</time>
      </trkpt>
      <trkpt lat="43.44602" lon="1.44319">
        <ele>235</ele>
        <time>2018-06-10T12:17:58Z</time>
      </trkpt>
      <trkpt lat="43.44606" lon="1.44321">
        <ele>235</ele>
        <time>2018-06-10T12:18:14Z</time>
      </trkpt>
      <trkpt lat="43.4461" lon="1.44323">
        <ele>235</ele>
        <time>2018-06-10T12:18:14Z</time>
      </trkpt>
      <trkpt lat="43.44615" lon="1.44325">
        <ele>235</ele>
        <time>2018-06-10T12:18:14Z</time>
      </trkpt>
      <trkpt lat="43.44618" lon="1.44328">
        <ele>235</ele>
        <time>2018-06-10T12:18:14Z</time>
      </trkpt>
      <trkpt lat="43.44622" lon="1.4433">
        <ele>235</ele>
        <time>2018-06-10T12:18:30Z</time>
      </trkpt>
      <trkpt lat="43.44627" lon="1.44333">
        <ele>227</ele>
        <time>2018-06-10T12:18:30Z</time>
      </trkpt>
      <trkpt lat="43.4463" lon="1.44335">
        <ele>227</ele>
        <time>2018-06-10T12:18:30Z</time>
      </trkpt>
      <trkpt lat="43.44635" lon="1.44337">
        <ele>227</ele>
        <time>2018-06-10T12:18:30Z</time>
      </trkpt>
      <trkpt lat="43.44638" lon="1.4434">
        <ele>227</ele>
        <time>2018-06-10T12:18:46Z</time>
      </trkpt>
      <trkpt lat="43.44645" lon="1.44346">
        <ele>227</ele>
        <time>2018-06-10T12:18:46Z</time>
      </trkpt>
      <trkpt lat="43.44651" lon="1.4435">
        <ele>227</ele>
        <time>2018-06-10T12:18:46Z</time>
      </trkpt>
      <trkpt lat="43.44654" lon="1.44351">
        <ele>227</ele>
        <time>2018-06-10T12:18:46Z</time>
      </trkpt>
      <trkpt lat="43.44658" lon="1.44356">
        <ele>227</ele>
        <time>2018-06-10T12:19:02Z</time>
      </trkpt>
      <trkpt lat="43.44664" lon="1.4436">
        <ele>227</ele>
        <time>2018-06-10T12:19:02Z</time>
      </trkpt>
      <trkpt lat="43.44666" lon="1.44361">
        <ele>227</ele>
        <time>2018-06-10T12:19:02Z</time>
      </trkpt>
      <trkpt lat="43.44667" lon="1.44362">
        <ele>227</ele>
        <time>2018-06-10T12:19:02Z</time>
      </trkpt>
      <trkpt lat="43.44673" lon="1.44366">
        <ele>227</ele>
        <time>2018-06-10T12:19:18Z</time>
      </trkpt>
      <trkpt lat="43.44681" lon="1.44368">
        <ele>227</ele>
        <time>2018-06-10T12:19:18Z</time>
      </trkpt>
      <trkpt lat="43.44684" lon="1.44367">
        <ele>227</ele>
        <time>2018-06-10T12:19:18Z</time>
      </trkpt>
      <trkpt lat="43.44687" lon="1.44368">
        <ele>227</ele>
        <time>2018-06-10T12:19:18Z</time>
      </trkpt>
      <trkpt lat="43.44693" lon="1.44371">
        <ele>227</ele>
        <time>2018-06-10T12:19:35Z</time>
      </trkpt>
      <trkpt lat="43.44697" lon="1.44373">
        <ele>227</ele>
        <time>2018-06-10T12:19:35Z</time>
      </trkpt>
      <trkpt lat="43.44703" lon="1.44378">
        <ele>231</ele>
        <time>2018-06-10T12:19:35Z</time>
      </trkpt>
      <trkpt lat="43.44707" lon="1.44376">
        <ele>231</ele>
        <time>2018-06-10T12:19:35Z</time>
      </trkpt>
      <trkpt lat="43.44711" lon="1.44373">
        <ele>223</ele>
        <time>2018-06-10T12:19:50Z</time>
      </trkpt>
      <trkpt lat="43.44715" lon="1.44371">
        <ele>223</ele>
        <time>2018-06-10T12:19:50Z</time>
      </trkpt>
      <trkpt lat="43.44719" lon="1.44371">
        <ele>223</ele>
        <time>2018-06-10T12:19:50Z</time>
      </trkpt>
      <trkpt lat="43.44723" lon="1.44369">
        <ele>223</ele>
        <time>2018-06-10T12:19:50Z</time>
      </trkpt>
      <trkpt lat="43.44727" lon="1.44365">
        <ele>223</ele>
        <time>2018-06-10T12:20:06Z</time>
      </trkpt>
      <trkpt lat="43.44732" lon="1.44362">
        <ele>223</ele>
        <time>2018-06-10T12:20:06Z</time>
      </trkpt>
      <trkpt lat="43.44738" lon="1.44361">
        <ele>223</ele>
        <time>2018-06-10T12:20:06Z</time>
      </trkpt>
      <trkpt lat="43.44742" lon="1.44358">
        <ele>223</ele>
        <time>2018-06-10T12:20:06Z</time>
      </trkpt>
      <trkpt lat="43.44745" lon="1.44357">
        <ele>223</ele>
        <time>2018-06-10T12:20:22Z</time>
      </trkpt>
      <trkpt lat="43.44749" lon="1.44356">
        <ele>223</ele>
        <time>2018-06-10T12:20:22Z</time>
      </trkpt>
      <trkpt lat="43.44752" lon="1.44352">
        <ele>223</ele>
        <time>2018-06-10T12:20:22Z</time>
      </trkpt>
      <trkpt lat="43.44756" lon="1.44349">
        <ele>223</ele>
        <time>2018-06-10T12:20:22Z</time>
      </trkpt>
      <trkpt lat="43.4476" lon="1.44348">
        <ele>223</ele>
        <time>2018-06-10T12:20:39Z</time>
      </trkpt>
      <trkpt lat="43.44764" lon="1.44349">
        <ele>223</ele>
        <time>2018-06-10T12:20:39Z</time>
      </trkpt>
      <trkpt lat="43.44768" lon="1.44348">
        <ele>223</ele>
        <time>2018-06-10T12:20:39Z</time>
      </trkpt>
      <trkpt lat="43.44772" lon="1.44347">
        <ele>223</ele>
        <time>2018-06-10T12:20:39Z</time>
      </trkpt>
      <trkpt lat="43.44776" lon="1.44345">
        <ele>223</ele>
        <time>2018-06-10T12:20:54Z</time>
      </trkpt>
      <trkpt lat="43.4478" lon="1.44342">
        <ele>223</ele>
        <time>2018-06-10T12:20:54Z</time>
      </trkpt>
      <trkpt lat="43.44784" lon="1.44339">
        <ele>223</ele>
        <time>2018-06-10T12:20:54Z</time>
      </trkpt>
      <trkpt lat="43.44788" lon="1.44337">
        <ele>223</ele>
        <time>2018-06-10T12:20:54Z</time>
      </trkpt>
      <trkpt lat="43.44792" lon="1.44338">
        <ele>234</ele>
        <time>2018-06-10T12:21:11Z</time>
      </trkpt>
      <trkpt lat="43.44796" lon="1.44335">
        <ele>234</ele>
        <time>2018-06-10T12:21:11Z</time>
      </trkpt>
      <trkpt lat="43.44798" lon="1.4433">
        <ele>234</ele>
        <time>2018-06-10T12:21:11Z</time>
      </trkpt>
      <trkpt lat="43.44801" lon="1.44328">
        <ele>234</ele>
        <time>2018-06-10T12:21:11Z</time>
      </trkpt>
      <trkpt lat="43.44804" lon="1.44327">
        <ele>234</ele>
        <time>2018-06-10T12:21:26Z</time>
      </trkpt>
      <trkpt lat="43.44807" lon="1.44325">
        <ele>234</ele>
        <time>2018-06-10T12:21:26Z</time>
      </trkpt>
      <trkpt lat="43.44813" lon="1.44322">
        <ele>234</ele>
        <time>2018-06-10T12:21:26Z</time>
      </trkpt>
      <trkpt lat="43.44817" lon="1.44321">
        <ele>234</ele>
        <time>2018-06-10T12:21:26Z</time>
      </trkpt>
      <trkpt lat="43.44822" lon="1.44318">
        <ele>234</ele>
        <time>2018-06-10T12:21:43Z</time>
      </trkpt>
      <trkpt lat="43.44825" lon="1.44317">
        <ele>234</ele>
        <time>2018-06-10T12:21:43Z</time>
      </trkpt>
      <trkpt lat="43.44828" lon="1.44314">
        <ele>234</ele>
        <time>2018-06-10T12:21:43Z</time>
      </trkpt>
      <trkpt lat="43.44832" lon="1.44312">
        <ele>234</ele>
        <time>2018-06-10T12:21:43Z</time>
      </trkpt>
      <trkpt lat="43.44838" lon="1.44307">
        <ele>234</ele>
        <time>2018-06-10T12:21:58Z</time>
      </trkpt>
      <trkpt lat="43.44846" lon="1.44305">
        <ele>234</ele>
        <time>2018-06-10T12:21:58Z</time>
      </trkpt>
      <trkpt lat="43.4485" lon="1.44305">
        <ele>234</ele>
        <time>2018-06-10T12:21:58Z</time>
      </trkpt>
      <trkpt lat="43.44854" lon="1.44303">
        <ele>234</ele>
        <time>2018-06-10T12:21:58Z</time>
      </trkpt>
      <trkpt lat="43.44859" lon="1.44307">
        <ele>234</ele>
        <time>2018-06-10T12:22:15Z</time>
      </trkpt>
      <trkpt lat="43.4486" lon="1.4431">
        <ele>234</ele>
        <time>2018-06-10T12:22:15Z</time>
      </trkpt>
      <trkpt lat="43.44861" lon="1.44317">
        <ele>234</ele>
        <time>2018-06-10T12:22:15Z</time>
      </trkpt>
      <trkpt lat="43.44863" lon="1.44323">
        <ele>234</ele>
        <time>2018-06-10T12:22:15Z</time>
      </trkpt>
      <trkpt lat="43.44864" lon="1.44329">
        <ele>234</ele>
        <time>2018-06-10T12:22:30Z</time>
      </trkpt>
      <trkpt lat="43.44864" lon="1.44335">
        <ele>234</ele>
        <time>2018-06-10T12:22:30Z</time>
      </trkpt>
      <trkpt lat="43.44863" lon="1.44342">
        <ele>234</ele>
        <time>2018-06-10T12:22:30Z</time>
      </trkpt>
      <trkpt lat="43.44861" lon="1.44348">
        <ele>234</ele>
        <time>2018-06-10T12:22:30Z</time>
      </trkpt>
      <trkpt lat="43.44858" lon="1.4435">
        <ele>234</ele>
        <time>2018-06-10T12:22:46Z</time>
      </trkpt>
      <trkpt lat="43.44857" lon="1.44355">
        <ele>234</ele>
        <time>2018-06-10T12:22:46Z</time>
      </trkpt>
      <trkpt lat="43.44854" lon="1.4436">
        <ele>234</ele>
        <time>2018-06-10T12:22:46Z</time>
      </trkpt>
      <trkpt lat="43.44852" lon="1.44367">
        <ele>234</ele>
        <time>2018-06-10T12:22:46Z</time>
      </trkpt>
      <trkpt lat="43.44852" lon="1.44374">
        <ele>234</ele>
        <time>2018-06-10T12:23:02Z</time>
      </trkpt>
      <trkpt lat="43.44851" lon="1.4438">
        <ele>241</ele>
        <time>2018-06-10T12:23:03Z</time>
      </trkpt>
      <trkpt lat="43.4485" lon="1.44387">
        <ele>241</ele>
        <time>2018-06-10T12:23:03Z</time>
      </trkpt>
      <trkpt lat="43.4485" lon="1.44393">
        <ele>241</ele>
        <time>2018-06-10T12:23:03Z</time>
      </trkpt>
      <trkpt lat="43.44848" lon="1.44398">
        <ele>241</ele>
        <time>2018-06-10T12:23:18Z</time>
      </trkpt>
      <trkpt lat="43.44846" lon="1.44404">
        <ele>241</ele>
        <time>2018-06-10T12:23:18Z</time>
      </trkpt>
      <trkpt lat="43.44843" lon="1.44409">
        <ele>241</ele>
        <time>2018-06-10T12:23:18Z</time>
      </trkpt>
      <trkpt lat="43.4484" lon="1.44416">
        <ele>241</ele>
        <time>2018-06-10T12:23:18Z</time>
      </trkpt>
      <trkpt lat="43.44837" lon="1.44422">
        <ele>241</ele>
        <time>2018-06-10T12:23:34Z</time>
      </trkpt>
      <trkpt lat="43.44835" lon="1.44426">
        <ele>241</ele>
        <time>2018-06-10T12:23:34Z</time>
      </trkpt>
      <trkpt lat="43.44833" lon="1.4443">
        <ele>241</ele>
        <time>2018-06-10T12:23:34Z</time>
      </trkpt>
      <trkpt lat="43.44831" lon="1.44435">
        <ele>241</ele>
        <time>2018-06-10T12:23:34Z</time>
      </trkpt>
      <trkpt lat="43.44829" lon="1.44441">
        <ele>241</ele>
        <time>2018-06-10T12:23:50Z</time>
      </trkpt>
      <trkpt lat="43.44827" lon="1.44448">
        <ele>241</ele>
        <time>2018-06-10T12:23:50Z</time>
      </trkpt>
      <trkpt lat="43.44824" lon="1.44454">
        <ele>241</ele>
        <time>2018-06-10T12:23:50Z</time>
      </trkpt>
      <trkpt lat="43.44821" lon="1.4446">
        <ele>245</ele>
        <time>2018-06-10T12:23:50Z</time>
      </trkpt>
      <trkpt lat="43.44818" lon="1.44466">
        <ele>245</ele>
        <time>2018-06-10T12:24:06Z</time>
      </trkpt>
      <trkpt lat="43.44816" lon="1.44471">
        <ele>245</ele>
        <time>2018-06-10T12:24:06Z</time>
      </trkpt>
      <trkpt lat="43.44814" lon="1.44477">
        <ele>245</ele>
        <time>2018-06-10T12:24:06Z</time>
      </trkpt>
      <trkpt lat="43.44813" lon="1.44481">
        <ele>245</ele>
        <time>2018-06-10T12:24:06Z</time>
      </trkpt>
      <trkpt lat="43.44812" lon="1.44486">
        <ele>245</ele>
        <time>2018-06-10T12:24:23Z</time>
      </trkpt>
      <trkpt lat="43.44809" lon="1.44491">
        <ele>245</ele>
        <time>2018-06-10T12:24:23Z</time>
      </trkpt>
      <trkpt lat="43.44808" lon="1.44496">
        <ele>245</ele>
        <time>2018-06-10T12:24:23Z</time>
      </trkpt>
      <trkpt lat="43.44807" lon="1.445">
        <ele>245</ele>
        <time>2018-06-10T12:24:23Z</time>
      </trkpt>
      <trkpt lat="43.44804" lon="1.44508">
        <ele>245</ele>
        <time>2018-06-10T12:24:38Z</time>
      </trkpt>
      <trkpt lat="43.44802" lon="1.44516">
        <ele>245</ele>
        <time>2018-06-10T12:24:38Z</time>
      </trkpt>
      <trkpt lat="43.448" lon="1.44523">
        <ele>245</ele>
        <time>2018-06-10T12:24:38Z</time>
      </trkpt>
      <trkpt lat="43.44797" lon="1.44529">
        <ele>245</ele>
        <time>2018-06-10T12:24:38Z</time>
      </trkpt>
      <trkpt lat="43.44795" lon="1.44534">
        <ele>245</ele>
        <time>2018-06-10T12:24:54Z</time>
      </trkpt>
      <trkpt lat="43.44795" lon="1.4454">
        <ele>245</ele>
        <time>2018-06-10T12:24:54Z</time>
      </trkpt>
      <trkpt lat="43.44793" lon="1.44545">
        <ele>245</ele>
        <time>2018-06-10T12:24:54Z</time>
      </trkpt>
      <trkpt lat="43.4479" lon="1.4455">
        <ele>243</ele>
        <time>2018-06-10T12:24:54Z</time>
      </trkpt>
      <trkpt lat="43.44786" lon="1.44556">
        <ele>243</ele>
        <time>2018-06-10T12:25:10Z</time>
      </trkpt>
      <trkpt lat="43.44783" lon="1.44563">
        <ele>243</ele>
        <time>2018-06-10T12:25:10Z</time>
      </trkpt>
      <trkpt lat="43.4478" lon="1.44569">
        <ele>243</ele>
        <time>2018-06-10T12:25:10Z</time>
      </trkpt>
      <trkpt lat="43.44777" lon="1.44575">
        <ele>243</ele>
        <time>2018-06-10T12:25:10Z</time>
      </trkpt>
      <trkpt lat="43.44774" lon="1.4458">
        <ele>243</ele>
        <time>2018-06-10T12:25:26Z</time>
      </trkpt>
      <trkpt lat="43.44772" lon="1.44586">
        <ele>243</ele>
        <time>2018-06-10T12:25:26Z</time>
      </trkpt>
      <trkpt lat="43.44769" lon="1.4459">
        <ele>243</ele>
        <time>2018-06-10T12:25:26Z</time>
      </trkpt>
      <trkpt lat="43.44769" lon="1.44593">
        <ele>243</ele>
        <time>2018-06-10T12:25:26Z</time>
      </trkpt>
    </trkseg>
  </trk>
</gpx>